GFSMA_850_spd_003.txt.gz
Wind_Speed
6 6 3 3 5 8 11 14 18 19 16 16 19 21 21 22 21 20 19 18 19 18 14 13 11 11 12 10 10 8 9 10 11 13 16 19 22 24 25 25 27 29 31
8 6 3 5 8 13 14 16 15 19 21 23 24 24 22 20 17 15 14 12 9 8 7 7 9 10 10 9 10 10 10 11 13 15 16 16 17 17 17 20 22 25 28
5 4 5 8 10 10 12 15 19 22 24 24 22 19 15 13 11 9 7 7 8 7 8 9 11 12 12 13 14 15 17 17 18 19 20 20 21 20 19 19 20 22 23
5 4 5 6 7 10 15 18 20 21 21 20 18 14 12 10 8 7 7 9 9 10 10 11 13 15 17 18 18 19 21 23 22 21 21 26 24 24 24 25 24 24 25
5 4 3 5 9 12 14 15 16 18 19 18 17 14 10 9 8 8 6 10 11 13 12 12 14 17 18 19 22 22 24 22 16 16 18 20 19 24 27 28 27 26 24
6 2 4 7 11 14 16 16 15 15 18 20 19 17 8 7 12 12 9 16 11 16 12 17 19 18 20 21 22 23 25 26 25 21 20 18 17 18 19 19 21 22 23
4 2 6 10 14 18 19 18 16 15 17 22 25 23 11 8 14 11 15 19 20 18 15 25 20 22 22 23 23 24 25 25 19 23 20 18 18 19 20 21 22 23 24
1 4 8 12 15 17 16 15 16 16 18 21 23 19 13 15 6 13 22 16 25 18 29 22 27 26 26 27 26 26 28 25 20 19 18 18 20 22 23 25 26 27 29
0 5 9 13 16 17 16 15 15 17 17 16 18 15 9 7 35 16 33 27 32 33 32 32 31 29 28 29 31 31 27 23 20 19 19 21 23 25 28 29 31 32 32
2 6 9 13 16 16 14 14 15 16 18 20 18 16 14 18 15 20 27 42 35 41 40 39 35 30 33 34 32 27 24 25 21 22 25 27 30 32 33 33 34 34 35
4 6 9 13 15 15 14 14 14 16 18 19 20 23 24 24 22 20 35 41 47 45 44 39 39 38 33 33 28 24 26 29 28 29 30 33 35 34 34 35 37 37 39
5 7 10 13 15 15 15 15 16 17 19 20 21 22 22 23 26 25 32 39 41 44 45 47 37 35 33 26 26 30 32 30 28 34 35 34 33 34 35 37 38 39 39
6 8 11 13 15 16 16 16 17 19 21 22 23 24 23 23 24 26 33 43 44 49 38 31 26 21 25 30 29 33 33 34 35 34 34 34 36 36 37 39 39 40 41
8 9 12 14 16 16 17 18 19 21 22 23 24 24 24 23 25 28 31 37 47 35 40 31 35 28 24 25 27 33 37 34 35 35 36 36 37 39 40 40 40 41 41
9 10 13 15 16 17 18 19 21 22 22 23 24 26 27 28 29 31 32 32 29 32 43 30 24 31 28 32 34 31 36 35 33 33 34 36 39 40 42 45 46 46 44
9 11 14 16 17 17 19 21 22 22 24 24 27 28 29 31 32 34 34 31 26 28 38 43 40 37 36 34 41 36 37 34 31 31 36 39 44 46 46 47 47 45 43
11 13 15 17 18 19 21 22 23 24 25 27 28 29 31 32 34 35 34 30 27 26 35 48 44 44 49 43 41 39 35 32 37 38 40 45 43 38 38 39 40 40 41
12 14 16 17 18 20 22 23 24 25 27 29 30 30 32 33 34 34 34 30 28 28 29 37 48 49 44 43 47 43 32 45 39 38 39 37 35 35 35 34 35 37 36
13 15 16 17 19 21 22 24 26 27 28 29 30 32 32 32 33 34 33 32 30 28 33 39 44 45 41 45 45 33 48 46 39 38 37 32 30 31 34 38 39 39 37
14 15 16 18 21 22 24 26 27 28 30 30 31 30 30 28 30 31 33 32 31 37 39 41 41 38 46 39 37 39 46 40 42 42 35 30 39 39 35 35 36 39 40
15 16 17 19 21 24 26 27 28 29 31 32 31 30 29 29 28 26 28 32 35 37 39 36 41 36 37 38 41 42 41 44 40 40 43 42 37 39 42 37 36 34 34
14 15 19 21 24 26 28 29 27 30 31 30 31 30 27 26 25 25 29 29 29 34 38 41 32 39 46 40 41 41 40 43 45 40 34 45 43 45 44 41 37 33 34
14 17 20 24 26 28 28 28 26 28 29 28 27 26 24 26 27 33 30 33 32 24 25 33 40 39 40 41 40 43 43 41 43 47 41 43 44 44 42 41 37 36 36
16 20 23 26 28 28 28 28 24 27 27 26 25 23 26 28 32 30 35 32 36 43 45 35 31 36 38 40 41 39 40 42 43 43 34 39 43 44 44 43 40 36 33
19 22 25 27 28 28 27 26 23 26 26 28 26 27 29 29 32 30 32 39 41 43 32 33 30 35 38 32 29 32 36 38 40 39 38 36 42 43 44 45 40 32 30
21 24 25 26 26 26 26 24 21 23 28 31 31 32 33 29 29 28 35 36 39 32 37 37 41 33 28 29 28 28 32 36 38 42 33 35 41 37 34 36 32 42 41

GFSMA_850_spd_006.txt.gz
Wind_Speed
5 4 3 2 4 7 10 11 14 15 15 17 20 22 24 23 22 20 17 16 14 12 7 7 8 9 8 6 4 6 10 10 10 11 12 13 15 17 19 21 23 24 25
4 3 4 3 7 11 13 12 15 18 21 23 24 23 21 19 16 12 10 9 7 7 8 8 9 9 8 10 10 11 12 14 15 16 18 19 20 20 21 20 19 22 24
5 4 3 6 10 9 11 15 19 22 23 21 19 16 14 13 11 8 7 7 7 9 9 10 12 12 14 14 15 17 19 20 20 19 19 22 22 23 23 23 24 23 23
5 5 6 7 7 10 13 17 19 19 18 17 14 12 13 12 10 8 7 9 10 11 12 13 14 15 17 18 19 19 21 22 24 25 26 27 27 27 25 25 25 26 27
5 7 5 5 8 11 14 16 17 17 17 15 14 11 12 9 10 10 10 8 10 12 14 14 15 18 20 21 22 23 24 25 26 24 21 23 25 21 22 22 23 27 29
7 5 4 6 9 12 14 15 15 16 18 18 17 15 8 8 9 12 17 12 16 15 22 19 19 23 22 23 25 26 27 28 27 19 23 20 16 16 16 16 18 18 19
8 4 3 6 11 15 18 18 17 16 18 22 23 20 8 4 12 15 10 17 21 18 23 21 28 26 27 28 29 29 29 30 27 16 21 19 18 17 19 20 20 21 22
7 3 3 8 13 17 18 18 17 17 19 22 23 19 10 10 1 9 24 19 25 21 29 24 28 28 29 29 30 32 33 33 29 24 20 19 19 21 23 24 24 25 26
7 2 5 9 13 16 18 18 18 18 18 17 19 16 8 7 31 8 28 18 31 29 34 33 33 31 31 32 33 34 34 31 26 21 20 21 24 26 27 29 30 30 31
6 3 6 9 13 16 17 17 18 18 18 18 16 16 15 16 13 18 16 38 33 41 40 39 37 38 33 32 32 33 31 27 22 23 26 27 28 31 33 34 34 33 32
5 4 7 10 13 15 16 16 16 17 18 19 20 21 20 20 19 20 35 40 45 44 43 44 40 35 35 31 29 27 27 24 26 27 28 31 35 35 35 35 36 35 36
6 6 7 10 13 15 16 16 17 18 19 20 20 20 21 21 23 22 32 42 43 44 49 41 39 35 34 29 27 31 28 26 29 30 34 35 35 35 36 36 37 38 38
7 7 8 11 13 15 17 17 17 18 20 21 22 21 21 21 23 25 31 39 46 53 34 42 36 31 31 28 34 31 31 30 34 34 35 36 37 36 36 37 38 39 41
8 8 10 12 15 16 17 18 19 19 21 21 21 22 23 23 25 26 28 34 46 31 39 33 32 21 23 32 28 29 32 34 36 37 36 36 36 36 37 39 40 40 42
9 10 11 14 16 18 19 19 20 21 21 22 23 24 26 26 27 28 29 29 29 32 45 31 22 41 39 37 34 32 33 31 32 35 37 36 35 37 41 43 45 46 46
11 11 13 16 17 19 19 20 20 21 22 23 26 28 28 29 29 29 30 29 27 30 37 44 45 42 40 44 39 34 35 35 35 32 29 33 41 46 47 48 47 42 41
11 12 15 17 18 19 20 21 22 23 25 27 28 30 31 30 30 29 29 29 29 29 36 51 45 45 49 43 41 40 41 36 35 30 37 43 44 42 42 42 41 40 39
12 14 16 18 19 19 21 22 24 26 28 29 30 31 32 31 30 29 27 29 30 29 32 41 46 49 45 45 44 45 43 37 43 41 37 39 40 41 38 36 36 37 37
13 15 17 18 19 20 22 24 26 28 29 30 31 32 32 32 31 29 28 29 29 30 31 36 45 46 46 41 44 39 44 41 38 36 37 36 36 35 35 36 40 40 40
14 15 17 18 20 21 23 26 28 29 30 30 30 31 30 28 26 24 26 26 29 34 35 38 42 43 37 34 41 41 43 39 41 38 42 40 35 35 35 36 36 37 38
14 16 17 18 21 23 26 28 28 29 30 31 30 28 26 23 21 21 24 30 32 32 38 37 31 35 43 41 40 43 42 44 44 40 42 42 38 40 44 39 36 35 34
14 16 17 20 22 25 27 28 29 27 30 30 29 26 24 24 26 26 30 25 28 29 29 40 40 40 40 42 44 42 41 45 48 38 35 50 43 44 43 41 37 32 34
14 16 19 22 25 27 28 29 27 26 28 27 26 27 26 27 29 31 28 34 23 34 34 35 38 37 41 41 41 47 45 44 44 46 41 47 44 47 44 42 38 35 35
15 18 21 24 27 28 28 28 27 25 25 24 26 26 28 32 29 30 33 34 39 42 40 31 31 35 36 40 38 38 39 42 45 44 33 40 45 45 45 45 43 36 33
17 20 23 26 28 27 28 28 25 24 24 26 26 28 32 28 32 30 32 38 40 42 31 32 30 36 36 31 28 31 36 39 42 43 42 36 40 43 47 46 34 31 31
19 23 24 25 25 27 28 26 22 22 26 28 28 32 31 29 30 28 33 36 39 34 36 37 40 34 29 27 29 28 32 36 38 43 39 38 43 39 33 37 35 43 40

GFSMA_850_spd_012.txt.gz
Wind_Speed
8 8 9 7 6 7 9 10 12 13 16 18 20 20 19 16 13 9 8 8 7 8 10 10 11 11 11 10 13 14 13 14 14 15 15 16 16 16 16 16 17 19 21
10 8 8 7 7 8 10 10 13 16 18 19 19 18 16 13 10 6 5 7 7 8 10 10 12 12 12 14 16 17 18 18 19 19 18 18 20 21 22 22 23 23 24
9 9 8 7 8 9 9 12 15 17 17 17 16 15 13 11 8 6 6 6 7 9 10 11 13 14 15 17 19 20 21 23 24 24 24 23 23 24 24 24 25 26 26
10 10 8 8 8 7 9 13 15 15 15 13 13 13 13 10 7 6 7 6 7 9 11 12 13 16 18 19 21 22 22 24 26 27 27 27 27 25 28 28 28 29 29
11 10 10 10 7 6 9 11 12 12 12 11 11 12 11 6 7 7 7 8 11 13 16 17 17 20 21 23 24 24 26 26 28 28 29 28 26 28 28 27 22 22 23
12 12 11 8 5 4 7 9 11 13 13 13 11 9 5 4 7 7 9 12 16 14 17 19 23 25 26 25 25 25 26 27 28 30 29 28 22 21 23 23 22 23 23
13 11 12 8 4 3 5 8 11 14 15 15 12 6 6 3 7 7 7 14 15 18 18 23 24 26 25 26 26 25 26 27 28 29 29 27 21 22 24 24 25 26 27
16 14 12 8 4 2 6 9 12 15 16 16 14 7 5 3 2 6 19 15 15 11 20 24 23 23 26 24 25 26 26 27 28 29 27 23 22 24 25 26 28 30 31
18 16 13 8 4 3 6 10 12 14 14 15 13 7 4 3 14 4 9 15 14 21 25 25 23 28 23 28 25 27 28 29 29 29 27 25 26 27 28 30 32 34 36
20 17 13 8 5 4 7 10 13 14 14 13 13 13 9 8 5 10 8 12 17 20 22 23 26 26 26 22 27 27 28 29 31 33 29 27 28 30 33 34 36 38 38
22 18 13 9 6 5 7 11 13 14 15 14 13 13 12 11 8 9 19 14 21 21 21 19 24 20 19 22 23 21 29 36 29 27 28 29 32 34 36 39 40 42 42
24 19 13 9 6 6 8 11 13 15 15 14 14 13 12 10 10 12 19 23 25 23 22 23 17 19 20 24 20 24 35 32 30 29 29 30 32 34 36 39 41 42 41
24 18 13 10 7 7 9 11 14 15 15 14 14 14 15 15 16 17 18 24 25 26 22 17 19 20 21 18 23 32 34 32 29 29 30 32 34 35 36 38 40 42 43
22 17 13 10 8 8 10 12 14 15 15 15 15 16 17 18 18 19 19 22 30 24 25 21 24 16 16 25 27 29 28 28 29 30 32 34 35 36 37 37 38 39 40
20 15 12 10 9 9 11 13 14 15 15 16 16 17 18 19 21 20 19 19 22 32 31 21 15 22 25 26 27 28 28 30 31 33 34 35 36 36 37 38 39 40 41
18 15 12 10 9 10 12 14 15 16 15 17 18 19 20 21 22 22 20 20 20 26 36 26 29 27 27 28 27 28 29 32 34 34 35 35 35 38 38 39 39 39 40
17 14 11 10 10 11 13 14 15 16 17 19 19 21 23 23 22 20 20 20 21 22 32 38 30 29 30 29 29 28 29 33 37 36 37 37 36 37 36 37 39 40 41
15 13 10 9 10 12 13 15 16 17 19 20 21 23 23 22 23 20 19 19 21 22 28 38 35 34 32 30 29 32 36 35 32 33 35 36 36 36 36 36 37 39 40
14 11 9 9 11 13 15 16 16 18 20 21 21 22 22 22 21 18 19 20 21 24 27 33 41 38 36 30 37 40 29 31 29 31 33 34 35 37 35 35 36 38 40
11 9 9 10 12 14 15 17 18 19 19 20 22 21 21 21 20 20 21 22 24 27 30 34 37 38 33 38 36 35 33 32 34 31 38 34 33 33 33 37 39 39 39
9 8 9 11 13 14 16 17 18 18 19 20 20 20 20 21 24 22 21 23 25 29 31 35 29 35 39 36 35 33 36 38 41 33 37 33 33 42 41 37 36 35 34
8 9 10 12 13 15 17 19 21 20 19 18 19 20 20 21 20 22 23 24 25 29 35 29 37 36 36 34 33 36 38 40 41 31 29 47 38 43 41 40 36 35 36
8 9 11 13 14 16 19 20 21 21 19 19 20 19 20 19 22 23 23 25 29 25 27 35 33 32 34 32 37 38 42 38 39 42 38 46 38 41 41 40 36 35 34
8 10 11 13 16 18 19 20 22 20 19 18 18 19 20 21 21 23 27 31 27 31 26 26 28 31 35 33 35 37 36 38 39 36 29 39 42 38 40 44 32 24 28
9 10 12 15 16 18 20 21 23 20 16 17 18 20 21 22 22 26 27 32 29 27 25 25 28 28 32 32 27 28 31 32 39 39 32 28 30 40 42 38 22 25 28
9 11 14 15 17 18 20 22 23 17 17 18 19 20 21 21 25 24 28 28 30 27 27 31 28 27 24 23 21 20 27 31 33 37 24 28 36 29 30 24 26 43 37

GFSMA_850_spd_015.txt.gz
Wind_Speed
8 8 9 7 4 6 6 8 9 10 13 16 15 14 13 11 6 5 13 8 7 9 9 10 11 11 11 12 14 14 14 15 16 16 17 17 17 17 16 16 16 17 17
11 15 11 7 7 8 8 9 10 13 14 15 13 11 10 9 5 3 5 8 8 9 10 10 12 12 13 14 16 18 19 19 20 20 20 21 21 22 22 21 21 22 23
17 11 9 8 9 8 7 8 12 13 13 12 10 11 9 7 6 3 4 4 8 9 10 11 13 14 14 16 17 19 21 23 22 23 23 24 24 25 25 26 26 26 27
11 10 10 10 10 7 6 8 10 10 11 11 11 8 9 10 5 4 5 4 8 8 12 12 14 15 16 18 20 21 22 24 24 25 25 25 26 25 24 26 27 27 28
11 11 10 10 8 5 5 6 8 9 10 10 10 10 10 5 5 5 4 7 11 13 15 17 17 19 20 21 21 21 22 23 24 25 25 26 26 25 23 20 24 27 24
14 13 13 11 9 5 3 4 7 9 10 11 10 8 7 4 6 6 6 7 12 15 15 17 17 19 22 23 23 23 22 23 24 25 26 26 26 24 21 21 23 23 23
17 15 13 12 9 4 1 4 7 9 11 12 9 6 7 7 6 6 8 9 10 13 14 15 18 22 21 23 24 23 24 24 24 25 26 25 23 22 21 22 24 25 25
19 16 14 13 8 4 1 4 7 10 13 13 11 7 3 4 4 5 11 13 11 13 14 20 22 20 21 23 21 24 23 25 25 26 27 27 26 23 23 24 26 27 28
22 19 16 13 9 6 2 4 7 9 11 13 11 6 3 3 14 8 9 12 13 18 19 24 22 21 25 22 23 22 25 27 27 28 29 29 27 27 27 27 29 30 31
25 20 17 15 10 6 3 4 7 9 11 11 11 9 5 8 3 9 5 12 17 19 22 25 26 27 24 22 22 25 27 28 31 31 29 27 27 28 29 30 32 34 35
27 22 19 16 11 6 4 5 8 10 11 11 10 10 8 7 8 11 20 13 21 20 22 22 21 26 20 21 24 24 18 24 28 29 28 28 28 29 30 32 33 35 37
27 24 20 16 11 7 6 7 9 11 12 13 12 11 10 8 9 11 17 24 25 26 21 26 22 21 23 23 25 20 24 28 30 28 27 28 29 30 31 33 34 35 36
28 25 21 16 11 8 7 8 10 12 13 13 13 11 13 13 14 15 18 24 26 30 26 20 21 22 23 27 25 25 34 29 28 28 29 30 32 33 34 35 35 35 37
27 24 20 16 11 9 8 9 11 12 14 14 14 14 14 15 16 18 20 22 28 27 24 21 24 23 20 22 30 29 32 29 30 30 32 34 35 35 36 36 36 36 37
25 23 19 14 11 8 8 10 12 13 15 15 15 15 16 17 19 20 22 22 22 27 29 23 21 12 27 30 30 30 33 31 30 33 35 35 36 36 36 36 37 38 37
23 21 17 13 10 9 9 11 13 14 14 14 16 16 18 19 21 22 22 21 22 26 33 27 28 27 28 29 31 29 32 31 32 34 38 36 36 36 36 37 37 37 38
22 19 15 11 9 9 10 12 13 14 16 15 16 18 21 22 22 22 22 22 23 23 30 34 30 29 30 31 31 31 32 37 39 38 36 34 35 35 35 36 36 37 37
21 17 13 10 9 9 11 13 14 15 16 17 18 20 22 18 22 22 20 20 23 24 28 34 33 33 30 34 31 36 33 37 35 36 31 34 35 35 36 36 37 37 37
18 14 11 9 9 11 13 14 16 16 17 18 19 20 21 20 21 20 20 22 24 26 28 32 36 34 36 34 31 35 39 32 33 33 34 35 35 37 35 34 35 36 37
14 11 9 8 10 12 14 15 16 17 18 19 20 20 21 22 22 20 24 22 23 27 29 32 36 40 36 28 34 34 35 34 36 37 39 38 32 34 34 35 38 38 37
12 9 8 8 10 13 15 16 18 19 20 19 20 20 19 20 25 23 21 24 27 30 32 36 38 37 35 37 33 32 34 36 44 34 41 38 31 43 41 37 37 35 33
9 7 7 9 12 14 15 17 19 20 20 19 20 21 21 22 19 20 22 23 25 28 33 37 36 36 39 33 34 34 42 38 40 40 26 49 40 44 43 40 35 34 34
7 6 7 10 12 14 16 18 19 20 21 19 22 22 20 18 20 21 22 23 28 28 26 33 36 31 34 39 40 40 38 40 44 44 40 47 43 46 41 40 35 34 35
5 6 9 11 13 15 16 18 20 21 20 19 19 18 19 20 21 22 27 30 33 32 28 28 30 34 36 37 36 36 39 41 40 40 31 39 45 42 40 45 39 22 22
5 7 9 11 13 12 18 18 21 22 19 17 16 18 19 21 21 22 27 32 33 32 31 26 28 30 31 31 29 28 33 35 40 43 38 36 33 42 47 46 34 23 26
5 8 10 12 13 14 17 20 22 19 17 16 17 18 18 20 20 24 28 33 36 34 31 33 34 32 27 26 23 22 28 33 39 45 36 30 40 35 31 36 31 41 37

GFSMA_850_spd_018.txt.gz
Wind_Speed
10 9 12 14 11 8 6 5 6 7 10 12 12 12 10 8 3 9 11 9 6 6 7 7 8 9 10 11 13 13 14 15 15 15 16 16 16 16 15 15 15 16 16
10 15 19 13 10 8 7 7 6 8 10 10 9 9 9 7 4 6 10 8 6 6 7 9 9 10 12 13 14 15 16 17 17 18 18 18 19 20 21 21 20 20 20
15 18 15 12 10 8 8 5 6 7 7 9 8 7 9 7 6 3 9 9 8 7 7 9 10 12 13 13 15 17 19 21 21 20 21 21 21 21 21 21 22 23 23
19 16 13 13 11 10 7 4 4 6 7 9 9 8 9 9 4 6 7 9 10 10 11 11 14 15 16 17 19 20 21 22 22 22 22 23 23 23 23 22 22 24 24
17 14 13 12 11 9 6 3 2 5 7 9 9 8 9 5 4 5 7 8 10 11 13 16 14 17 17 18 18 19 20 20 21 21 22 22 22 22 23 23 18 18 21
16 15 13 14 12 9 6 2 2 5 7 9 8 7 8 5 5 7 7 9 11 15 16 17 17 16 20 21 20 22 22 20 22 22 21 22 21 21 21 20 18 19 21
19 19 15 14 13 10 6 2 2 5 7 9 9 7 4 7 8 7 6 9 13 17 18 18 18 22 23 23 22 24 22 23 23 22 23 24 25 25 22 22 20 21 22
23 19 17 15 13 10 6 2 3 5 7 10 10 6 2 4 6 6 10 14 16 16 16 20 23 26 24 24 26 24 23 22 25 23 24 24 26 25 24 24 24 24 25
25 22 18 15 15 11 7 3 2 5 8 9 10 6 2 2 10 9 7 11 13 14 20 23 28 29 27 27 25 24 23 28 27 26 27 27 27 27 26 26 26 27 28
27 25 21 18 15 12 8 4 2 4 8 9 10 7 6 7 4 8 7 12 16 18 20 27 28 28 28 26 26 25 29 28 28 26 27 30 28 27 27 28 28 29 30
30 26 23 20 17 13 9 5 4 5 7 9 9 10 9 8 8 9 21 20 23 25 25 25 26 28 26 27 26 30 29 28 30 30 31 29 28 29 29 30 30 30 31
32 28 24 21 18 14 9 6 5 7 8 9 10 11 11 10 8 12 20 28 30 32 29 28 25 21 24 23 25 27 31 24 28 29 28 29 30 30 31 32 33 33 33
34 31 27 23 19 14 10 7 6 8 9 11 12 12 13 13 14 16 19 26 31 36 35 31 23 22 20 26 31 30 31 30 31 30 31 31 31 32 33 33 34 34 34
36 30 26 23 18 14 10 8 8 9 11 12 13 14 14 14 15 17 20 23 31 32 36 30 31 25 19 21 25 32 39 39 34 31 31 31 33 33 35 36 34 34 34
34 29 25 23 18 14 10 8 9 11 12 13 15 15 16 16 18 19 21 23 24 26 33 32 28 23 31 34 36 38 39 39 31 31 32 34 37 36 35 35 35 35 35
30 27 26 22 17 12 9 9 10 12 12 14 16 17 17 18 20 21 22 23 23 26 33 34 37 35 33 34 37 32 32 35 34 35 36 35 36 33 33 34 35 35 35
28 26 24 20 15 11 10 10 11 13 14 16 16 18 20 21 22 22 23 24 24 24 31 39 36 33 31 31 32 34 35 34 37 40 35 31 33 33 35 35 35 36 36
26 25 21 16 13 10 9 11 12 14 16 16 17 18 20 22 23 24 25 24 23 26 28 35 34 33 32 37 37 34 33 33 42 34 29 34 34 34 35 35 35 35 35
25 22 17 13 10 8 10 11 13 14 15 16 17 20 22 23 25 25 25 25 27 29 26 31 38 36 37 35 34 36 38 41 30 38 33 36 35 34 34 32 33 33 34
21 19 15 11 8 8 11 13 14 15 16 17 18 20 22 24 24 25 27 28 25 27 29 32 36 38 36 36 31 38 38 34 45 42 40 36 34 34 35 33 34 33 31
20 15 10 8 7 9 12 14 15 16 17 18 19 19 21 22 23 24 20 22 25 26 30 32 35 37 31 41 35 32 38 47 43 42 36 41 40 41 38 36 35 32 29
15 11 8 6 8 11 12 15 16 16 17 19 20 20 22 22 22 17 19 20 21 24 29 34 35 39 38 33 35 43 42 43 43 37 39 45 41 42 42 39 36 33 33
10 6 5 6 9 14 13 15 16 17 18 19 19 20 22 21 21 22 24 22 26 26 27 31 35 33 36 38 40 41 41 38 42 46 42 44 43 48 43 41 40 36 34
7 4 4 8 11 12 14 14 16 18 19 18 17 17 18 21 20 21 24 25 29 34 34 31 30 33 34 35 35 36 36 39 42 40 36 36 49 47 47 44 41 30 21
4 4 7 9 9 11 15 16 18 19 19 18 16 17 18 17 20 20 23 29 35 36 36 31 26 28 29 29 26 29 33 35 42 45 42 39 42 47 48 45 36 31 35
3 5 6 7 9 10 14 18 20 21 21 18 18 18 18 19 19 20 25 30 35 37 30 30 33 32 26 27 26 24 27 34 41 47 39 32 43 37 36 38 36 45 41

GFSMA_850_spd_021.txt.gz
Wind_Speed
15 15 14 11 9 7 6 5 6 6 7 8 9 8 7 5 7 7 8 6 2 4 3 4 5 6 7 8 9 10 11 12 12 13 13 13 14 14 14 14 13 13 14
15 17 15 15 12 11 9 8 7 7 8 7 7 6 5 4 5 7 7 6 4 3 4 5 6 7 9 10 11 12 12 14 15 15 16 16 16 17 17 18 17 17 18
17 20 18 18 15 13 10 9 8 7 6 5 5 5 4 4 6 6 7 7 5 5 5 5 7 9 12 12 14 15 17 18 18 18 18 18 19 18 18 19 19 18 20
17 17 18 19 16 12 10 9 7 5 4 4 5 5 5 4 4 6 7 9 7 8 8 9 11 12 12 13 14 16 17 18 18 18 19 18 18 19 19 19 19 18 16
20 21 20 18 15 13 11 9 6 3 2 4 5 4 4 2 2 5 7 7 8 9 11 12 13 14 12 15 17 18 18 18 18 19 18 18 18 18 19 19 19 18 14
24 23 20 16 14 13 12 9 5 2 2 3 4 4 2 3 1 4 7 9 10 12 16 15 15 13 19 21 20 19 20 21 19 19 18 19 19 19 19 19 18 18 17
27 25 21 18 16 14 13 10 6 3 1 3 4 2 0 1 1 3 6 8 12 15 16 18 17 20 22 23 23 21 23 20 19 19 21 20 20 20 21 21 21 21 20
29 28 22 20 16 16 14 11 7 3 1 3 4 2 1 2 3 4 5 10 13 13 14 16 20 23 26 26 24 25 21 21 20 23 19 20 22 24 23 23 23 23 23
33 29 24 21 18 17 14 11 7 4 1 3 5 4 2 2 6 6 9 10 13 14 16 18 21 26 26 25 25 23 22 22 24 19 18 22 25 25 24 24 25 25 26
34 30 27 24 21 18 16 12 8 5 2 3 4 5 4 5 3 4 9 12 13 16 18 20 25 22 23 23 22 24 24 25 25 19 21 26 26 25 26 27 27 27 27
35 32 29 25 24 21 18 14 9 6 4 5 5 6 6 7 8 9 15 14 19 20 21 21 23 21 19 19 22 23 25 28 26 24 27 28 28 29 29 29 29 30 30
38 34 31 28 25 22 18 15 11 7 6 6 7 8 8 8 10 11 16 23 26 28 26 24 21 19 18 21 19 21 22 24 23 25 28 30 31 30 30 30 30 31 32
42 39 33 30 27 24 20 16 12 8 7 7 8 10 11 11 12 13 16 20 26 31 31 28 21 23 19 19 20 22 26 31 33 30 32 30 29 29 30 31 32 33 34
45 38 34 32 29 25 20 15 11 9 8 9 10 11 11 12 13 14 17 19 26 29 32 28 29 26 17 19 26 30 35 35 35 30 28 29 28 31 32 33 33 34 33
42 38 36 33 28 24 19 14 11 9 9 10 12 13 13 13 14 16 18 20 22 22 31 28 27 32 33 34 32 32 32 33 28 31 29 28 31 32 32 31 30 31 31
43 40 35 31 27 22 18 13 11 10 10 12 13 15 15 15 16 18 20 20 20 23 25 31 34 36 36 36 35 34 35 35 31 31 28 30 33 30 29 30 31 33 32
42 38 34 30 25 20 17 13 10 10 11 12 14 15 16 18 19 20 20 22 23 24 29 35 35 36 35 37 34 32 31 29 31 35 31 30 28 30 32 31 31 32 33
39 35 29 25 23 20 15 11 10 11 12 14 14 15 16 18 20 22 23 24 25 25 29 37 34 34 35 35 33 31 28 33 36 33 28 30 32 30 32 32 30 32 32
35 29 27 25 21 16 12 10 10 11 13 14 15 16 18 20 21 23 24 25 26 27 26 30 34 34 36 36 34 33 41 34 35 38 35 33 34 28 28 29 30 31 32
31 30 27 22 17 13 10 10 10 12 13 14 15 17 19 20 22 23 24 26 25 25 26 28 32 36 38 34 32 39 40 39 44 38 38 33 29 32 29 31 31 31 29
28 26 24 19 15 11 9 10 10 12 14 15 16 17 19 19 20 22 21 19 21 24 25 29 34 36 32 38 37 37 43 45 42 41 39 31 40 34 34 35 33 30 28
27 22 19 14 11 9 8 9 11 12 13 15 17 18 19 20 21 19 18 18 19 21 26 29 32 36 39 35 37 39 40 42 42 37 37 46 36 38 39 39 35 33 32
17 15 12 9 7 7 8 10 11 12 14 16 18 20 20 19 19 21 20 19 21 22 23 28 34 34 34 34 35 37 37 36 39 44 44 47 39 43 42 40 38 33 28
16 10 7 8 6 7 8 10 12 13 15 17 19 20 20 19 20 18 19 22 23 27 30 32 32 32 29 29 32 34 35 36 39 38 36 41 44 45 42 42 37 27 25
11 12 8 6 5 6 9 11 13 15 17 18 18 17 17 16 18 17 19 24 29 31 32 31 25 25 25 28 24 25 29 32 39 41 38 38 39 45 45 42 33 28 35
9 5 4 4 5 6 10 13 17 18 19 17 15 18 18 18 17 17 21 26 30 33 30 27 29 30 27 22 21 23 28 32 36 40 36 33 40 39 28 36 24 40 39

GFSMA_850_spd_024.txt.gz
Wind_Speed
17 15 14 13 13 11 9 8 7 7 8 10 10 9 7 6 6 5 4 2 3 5 4 3 4 4 5 6 7 8 9 9 9 10 11 12 12 12 13 13 14 14 14
17 16 18 17 15 12 9 9 9 9 9 10 9 7 6 5 5 5 3 2 2 4 4 4 4 5 6 8 9 10 12 13 14 14 14 14 15 15 15 15 15 15 17
16 18 21 20 16 12 12 11 11 10 9 8 7 6 5 5 6 6 4 2 2 2 3 4 6 8 9 8 10 12 14 14 14 15 15 16 15 15 15 15 16 16 15
19 21 22 20 17 15 15 13 12 10 8 7 6 5 5 6 6 5 4 4 3 3 5 6 7 9 10 10 12 14 16 16 16 16 16 16 17 17 16 16 15 15 14
21 19 20 20 19 18 17 14 12 10 8 6 4 4 4 3 4 4 5 5 5 6 6 10 9 10 9 12 15 15 16 17 18 18 17 16 16 16 16 16 15 14 14
25 20 21 22 20 19 17 15 13 11 8 5 4 4 3 3 3 4 6 7 7 8 12 11 12 10 14 15 17 17 16 17 18 17 15 14 15 16 16 16 17 17 16
27 24 24 24 22 18 16 16 14 12 8 6 4 4 5 4 5 6 7 8 9 11 11 13 13 16 17 20 20 18 18 15 16 14 16 15 14 15 17 18 18 18 18
32 30 26 26 24 20 18 17 15 13 9 6 6 6 6 6 7 8 8 11 12 13 13 14 17 20 22 23 21 21 18 16 16 16 15 15 16 19 20 19 19 20 21
34 32 29 27 26 22 17 18 16 14 11 8 6 5 4 5 6 10 12 12 13 14 14 16 19 21 24 23 24 21 19 19 18 16 15 16 19 22 22 22 22 23 24
35 33 32 32 28 24 20 19 18 15 12 9 6 5 4 5 3 4 10 13 15 15 17 19 23 22 23 22 20 20 21 20 18 16 18 19 22 24 24 25 25 25 26
38 35 36 34 31 26 24 22 21 17 13 9 7 6 6 6 7 8 10 10 15 18 22 21 21 21 21 19 20 22 21 21 20 19 21 23 25 27 28 27 27 26 28
42 39 37 36 32 29 27 24 21 18 14 11 9 8 8 8 9 10 13 18 21 23 21 20 20 20 18 21 20 21 22 24 27 27 26 28 30 29 28 28 28 27 29
45 43 40 39 34 30 29 27 23 18 14 11 10 9 9 10 11 13 15 18 22 27 26 25 22 22 19 18 20 24 27 31 33 34 29 27 27 28 28 28 29 30 30
46 46 41 38 35 32 30 26 22 18 15 12 10 10 11 12 13 14 16 17 23 25 28 24 27 24 18 30 30 31 31 30 31 29 27 28 28 27 28 29 30 30 30
44 43 37 38 36 33 31 28 22 18 15 13 11 11 12 13 14 16 17 18 20 20 27 24 26 29 32 34 35 33 32 32 31 29 27 26 26 27 29 30 28 29 28
40 40 40 40 37 35 30 25 21 19 15 13 11 12 13 15 16 17 17 19 20 21 23 28 31 32 34 35 33 31 30 28 27 26 26 27 27 27 25 27 29 30 31
40 40 40 40 37 34 30 26 20 17 14 13 12 13 15 16 17 18 19 20 21 23 29 32 32 32 32 32 32 31 30 27 29 29 25 25 26 25 29 28 28 30 30
39 39 42 39 35 33 29 26 19 17 12 12 13 15 16 18 19 19 20 22 23 24 27 32 32 32 33 33 35 34 29 33 28 28 29 27 27 27 27 27 26 27 29
37 39 40 37 35 28 26 22 19 14 12 12 14 16 18 19 19 20 22 23 24 24 26 28 33 32 34 36 37 35 37 34 32 33 31 30 29 27 24 25 27 27 29
36 37 36 32 28 22 21 16 14 11 11 14 15 17 18 19 20 21 22 23 23 23 25 28 30 33 35 37 37 39 38 36 36 34 34 32 25 27 30 27 26 29 31
31 34 31 26 24 22 14 14 11 11 12 13 15 17 17 19 20 20 21 20 20 23 24 26 29 34 36 38 39 37 38 37 39 37 35 29 37 39 29 28 30 32 29
31 26 23 20 16 14 13 12 12 12 12 14 14 16 17 19 20 20 17 17 16 20 23 27 30 34 39 38 35 33 34 38 41 36 35 44 37 39 35 35 34 31 31
26 22 17 15 15 14 11 11 10 12 12 13 15 17 18 20 20 20 20 19 18 21 22 25 32 35 35 32 29 33 35 38 40 39 40 46 40 42 35 33 33 33 30
22 21 22 18 13 12 10 9 9 10 12 14 16 18 19 19 19 18 18 18 20 23 26 30 31 31 28 27 29 33 36 36 38 38 35 45 41 37 38 39 36 29 24
18 15 14 10 5 7 9 10 9 10 13 15 16 16 16 18 17 16 17 20 24 28 29 27 25 23 25 26 27 28 29 32 40 42 38 30 37 43 45 42 32 27 30
14 9 6 5 7 7 8 10 12 14 16 17 16 17 19 19 17 14 18 24 27 28 23 26 27 27 25 25 23 22 26 31 35 39 29 35 40 39 29 34 29 39 36

GFSMA_850_spd_027.txt.gz
Wind_Speed
19 17 16 15 14 13 12 11 9 8 8 9 9 9 8 6 5 4 3 3 5 7 5 3 4 4 5 6 8 8 8 8 9 9 10 11 11 11 11 13 14 14 14
20 19 17 17 15 14 12 11 9 9 9 10 9 8 7 5 4 3 2 2 2 4 5 4 5 5 7 8 10 11 11 12 12 12 13 13 14 14 14 14 14 14 15
22 20 18 19 16 15 13 11 10 11 11 11 9 8 7 6 5 3 2 1 2 3 3 4 6 6 7 8 9 11 13 14 14 15 15 16 16 15 15 15 15 15 14
21 20 19 20 19 17 14 12 12 12 12 10 9 8 7 7 6 4 3 2 2 3 3 4 6 8 9 8 9 12 15 17 16 16 16 17 17 17 16 15 15 15 15
21 21 18 19 20 18 15 14 14 14 12 11 10 8 7 7 6 5 4 3 4 4 4 8 7 8 9 10 12 14 15 16 17 18 17 17 16 16 15 15 15 15 14
22 20 18 20 20 18 16 16 17 15 13 12 10 8 7 6 6 6 5 5 6 6 8 10 10 10 11 13 15 17 16 15 16 15 17 16 15 15 15 15 15 15 15
26 26 22 21 20 19 18 18 17 16 14 13 10 9 7 7 8 8 8 8 9 10 11 12 13 14 17 19 20 19 19 18 15 14 13 14 13 13 15 16 17 16 16
28 30 27 25 22 22 22 20 18 18 17 14 11 9 7 10 12 12 11 12 12 13 14 14 16 18 21 23 23 22 22 20 16 15 13 12 13 15 17 18 18 19 20
31 33 31 29 24 23 24 21 19 19 18 16 14 10 6 7 11 13 14 14 14 15 16 16 18 22 25 25 24 22 21 20 19 15 14 15 16 18 20 21 21 22 23
35 36 34 32 31 26 26 24 21 20 20 18 15 14 12 9 7 6 13 15 15 16 17 18 22 26 25 24 23 22 20 20 18 15 16 18 20 21 23 25 26 25 25
39 39 37 35 32 32 30 28 25 24 23 21 18 15 13 11 11 11 7 11 15 18 19 21 25 24 24 23 22 24 23 22 22 22 22 22 24 26 27 28 27 26 26
43 42 41 39 35 36 35 30 29 26 24 22 19 16 14 12 11 11 12 13 15 18 19 20 23 23 22 22 23 23 21 27 28 30 29 26 26 26 27 27 27 27 27
44 44 44 44 40 38 36 33 31 28 27 23 19 17 14 13 13 13 14 15 17 21 20 21 21 18 23 22 19 27 30 31 33 33 30 27 27 28 28 28 26 28 29
43 42 44 46 44 39 37 34 32 30 27 23 19 16 14 13 14 14 14 16 18 20 24 22 24 21 21 26 31 33 34 32 32 32 31 30 27 26 26 26 27 29 30
45 42 43 46 44 40 38 35 32 29 25 21 17 14 14 14 15 15 16 17 18 16 24 22 23 23 29 32 34 34 33 33 32 30 29 28 26 26 27 27 28 28 28
43 43 40 43 42 40 37 34 34 29 23 19 16 16 16 16 17 17 17 18 19 21 21 23 28 28 30 32 32 32 33 33 30 28 29 30 27 26 27 27 27 30 30
42 38 37 41 40 40 38 35 31 28 24 18 16 15 16 15 17 19 18 19 20 21 26 29 29 29 30 31 31 31 32 31 31 30 28 27 26 26 27 28 28 29 29
37 33 34 37 41 39 36 32 30 25 21 18 15 17 18 16 19 20 20 20 20 22 26 30 31 30 31 31 32 34 33 31 30 28 27 26 26 27 26 27 28 27 27
33 32 33 39 39 37 32 30 26 21 18 15 15 16 17 19 20 20 20 20 22 23 25 28 30 30 32 33 35 36 36 35 31 28 27 28 27 23 24 24 26 29 30
32 33 33 36 35 31 28 24 19 16 11 14 16 16 19 20 20 20 20 21 22 23 23 26 29 29 32 34 34 39 40 35 33 30 31 25 23 27 29 27 27 26 28
31 31 30 32 31 28 24 19 14 10 10 14 16 17 20 19 20 20 20 20 20 21 23 24 27 31 33 35 37 38 36 34 36 35 32 30 35 35 31 31 31 30 30
26 23 26 27 25 22 19 13 11 11 10 14 16 18 18 19 20 20 19 17 18 19 21 25 27 30 34 37 37 33 31 35 40 33 38 41 37 39 37 33 28 28 30
23 25 24 22 21 18 14 12 11 12 13 15 16 16 18 19 20 20 19 18 18 19 20 22 28 32 35 34 29 31 31 35 39 39 38 47 42 41 32 31 31 32 31
24 24 22 17 14 12 11 8 8 8 12 13 14 17 18 18 18 17 18 18 18 21 23 27 30 32 29 27 29 31 35 38 38 36 34 45 42 38 39 39 36 29 24
21 19 17 16 12 10 5 3 8 8 10 13 15 16 17 17 18 17 15 18 23 26 26 26 25 25 24 26 27 29 32 32 38 39 37 29 39 43 45 43 35 32 34
17 15 13 9 4 1 3 6 8 10 13 14 15 16 18 19 15 12 17 22 26 26 22 24 25 25 25 23 24 24 26 29 32 39 29 32 39 36 32 38 38 42 39

GFSMA_850_spd_030.txt.gz
Wind_Speed
19 17 16 15 14 12 11 10 9 8 7 7 8 8 8 6 4 2 3 6 8 8 5 2 2 2 4 5 7 8 7 7 8 9 11 11 12 12 12 13 13 13 13
21 19 18 17 15 13 13 12 10 10 9 9 9 8 7 5 4 3 3 4 4 4 4 3 2 3 4 6 8 9 9 9 10 11 12 12 13 13 13 13 14 14 15
24 21 20 19 17 16 15 13 11 11 11 10 10 9 7 6 5 4 4 4 4 4 3 3 3 4 5 6 8 10 11 12 13 13 14 15 15 15 15 15 15 15 15
26 23 22 21 19 18 17 15 12 12 12 12 11 9 8 7 6 5 5 4 4 4 5 4 4 6 7 7 8 10 13 16 17 16 15 16 17 17 16 15 15 15 15
26 25 23 20 20 20 18 17 14 13 13 13 12 10 9 8 8 7 7 6 6 6 7 6 7 6 8 9 10 12 14 16 18 19 18 17 17 15 14 13 14 14 14
27 26 23 22 21 22 21 19 16 15 15 14 13 11 10 9 9 9 9 8 8 8 8 9 8 9 9 11 13 15 16 15 16 17 17 16 15 13 13 13 14 14 14
28 28 25 23 21 21 19 19 18 18 17 16 14 12 11 11 11 12 11 10 10 11 11 12 11 12 13 15 17 18 18 18 18 17 16 14 14 13 13 15 15 15 16
31 30 25 26 24 23 22 22 21 20 19 18 16 13 9 12 14 15 14 13 13 14 14 14 15 16 17 19 22 21 20 19 19 18 16 14 13 14 16 17 18 19 19
33 33 31 30 27 25 22 21 22 22 21 20 20 14 8 8 12 16 17 15 15 15 16 17 18 19 21 24 24 23 22 20 18 18 16 14 16 17 18 20 21 22 23
36 35 36 33 29 30 29 23 22 23 22 23 22 22 19 11 8 8 15 16 16 18 18 19 20 22 24 25 24 23 23 21 22 20 18 17 19 21 22 24 25 26 25
39 37 38 37 35 36 33 30 28 28 26 26 25 23 22 19 16 14 9 13 17 18 19 20 23 24 25 24 23 22 24 24 22 22 26 24 23 25 25 25 25 25 25
45 42 37 40 40 38 37 33 32 31 30 29 28 26 24 21 18 16 15 14 14 16 19 21 23 24 24 23 23 24 23 22 29 29 30 29 25 25 26 27 27 27 27
46 46 43 41 43 40 40 37 36 35 33 31 28 27 25 22 18 16 15 15 16 17 18 20 21 21 21 23 22 22 28 30 31 32 30 29 27 26 26 25 25 26 26
41 46 48 45 42 42 41 40 39 37 35 33 29 24 23 20 17 15 15 14 15 17 21 20 19 21 20 20 26 29 31 31 31 30 30 30 30 29 26 25 26 27 27
36 38 44 47 47 44 42 41 40 40 37 35 29 24 24 17 15 15 14 18 17 13 20 22 18 19 22 28 30 32 32 32 32 32 31 30 29 28 27 25 26 27 28
37 37 40 41 47 48 40 40 40 39 35 32 31 28 24 18 15 12 15 16 17 17 19 20 23 26 26 29 30 31 31 31 31 31 31 29 28 24 25 26 26 27 27
35 37 37 40 42 42 38 38 39 37 32 29 27 23 19 16 15 13 15 18 19 19 23 25 27 26 28 30 30 30 29 31 31 30 29 28 26 24 24 25 26 26 28
30 32 34 36 37 36 35 38 38 35 30 27 23 18 15 16 14 15 19 19 19 20 24 27 28 28 29 29 30 31 31 30 31 28 25 23 24 25 25 25 24 26 27
24 26 28 31 32 33 36 38 34 30 29 25 18 15 14 16 12 16 17 19 20 22 23 27 29 28 30 30 32 32 33 33 29 25 24 25 23 21 21 23 24 26 28
21 24 27 28 30 34 33 33 31 27 22 19 18 15 12 17 15 16 19 21 22 22 23 25 27 28 29 30 32 34 37 33 30 27 26 24 22 25 23 25 27 28 29
21 25 27 27 26 27 30 28 24 22 19 15 13 10 9 14 15 20 21 20 21 22 22 24 26 28 31 31 32 33 34 31 32 29 30 30 30 29 27 28 28 25 24
21 22 21 21 25 26 24 22 22 19 15 12 12 14 14 15 18 18 18 19 19 20 22 23 25 28 30 32 32 30 28 32 36 33 38 39 33 34 34 29 27 27 26
18 18 19 22 24 22 21 18 16 12 10 9 11 8 14 15 17 17 18 18 18 18 18 20 25 28 30 29 26 27 29 32 35 36 38 44 38 39 33 34 31 30 27
15 17 21 20 19 16 14 12 9 6 6 6 11 10 13 14 16 16 17 17 17 18 21 24 25 27 25 22 24 28 32 34 36 34 32 40 38 38 39 39 36 28 26
20 20 20 18 15 13 10 8 3 1 6 8 9 11 13 15 15 15 14 16 20 23 23 22 21 21 22 22 23 26 28 31 36 36 34 29 39 43 44 42 36 37 38
21 19 16 12 9 7 5 5 2 3 6 9 11 13 14 15 14 12 13 19 23 23 20 21 21 19 18 18 20 22 25 27 29 35 28 29 40 39 31 39 41 41 39

GFSMA_850_spd_036.txt.gz
Wind_Speed
16 16 16 16 14 13 13 14 13 12 10 9 8 7 7 6 5 6 6 13 14 13 10 5 4 3 2 2 2 3 3 4 5 6 7 7 8 8 9 9 10 10 10
20 18 17 20 18 15 16 15 15 14 13 11 10 9 9 8 7 8 7 10 13 11 9 6 5 5 4 3 3 3 3 4 5 7 8 9 9 10 10 11 11 11 11
21 19 18 21 20 18 18 19 18 17 16 14 12 11 10 9 9 10 9 7 10 10 10 8 7 6 5 5 5 5 5 6 7 8 9 10 10 11 12 12 12 12 12
25 24 20 22 20 19 22 21 20 19 18 16 14 13 13 12 11 11 12 12 10 10 11 9 9 7 7 6 6 6 8 9 10 11 11 12 11 11 11 12 12 11 12
26 27 25 22 21 22 25 24 22 20 20 18 16 15 15 14 14 14 14 14 14 14 12 11 10 9 8 8 8 8 10 11 13 13 13 14 14 14 13 12 11 11 11
27 27 28 27 23 25 28 27 25 23 22 20 18 18 17 17 17 16 16 17 17 16 15 13 12 12 11 10 10 11 11 13 14 13 14 14 14 14 13 11 11 12 12
30 30 31 30 30 31 31 29 27 27 26 23 20 19 19 20 20 19 19 19 20 18 17 16 16 15 14 13 13 13 14 14 13 14 15 15 15 14 13 12 13 14 14
34 34 34 34 32 33 34 33 33 30 30 27 23 13 9 16 23 23 23 23 22 22 20 19 19 18 17 16 16 16 17 15 13 14 15 16 15 14 14 14 15 16 17
41 40 38 37 35 35 37 37 36 34 32 29 30 20 9 11 12 22 27 26 26 25 24 23 22 22 20 20 18 19 19 18 17 17 17 18 18 17 16 17 19 20 21
41 44 42 41 39 37 39 39 38 33 32 34 34 34 31 15 9 8 21 27 28 28 27 26 25 25 22 21 20 21 23 21 21 20 20 21 21 19 20 20 21 22 22
41 41 45 44 42 40 39 40 40 37 36 38 38 36 36 34 27 17 11 20 28 30 30 29 28 26 24 23 23 25 24 24 23 23 23 23 25 23 22 21 23 23 24
37 41 41 44 46 45 42 40 41 43 42 41 41 41 38 34 35 32 24 19 21 25 30 29 28 26 25 24 25 26 26 25 24 24 26 28 27 26 25 25 23 23 23
36 38 36 39 42 46 45 43 43 45 50 45 44 43 40 38 35 31 32 29 21 23 22 28 28 27 27 25 25 24 26 26 25 29 29 30 31 31 31 31 28 25 25
27 31 35 36 38 41 45 46 46 45 48 50 48 46 42 39 37 34 31 31 26 21 22 21 23 25 25 23 24 23 25 28 29 30 30 32 32 32 32 32 32 31 28
27 26 28 31 33 35 40 45 48 49 48 48 51 48 44 42 38 36 34 30 28 20 20 19 18 19 18 19 21 22 28 31 31 31 32 31 32 33 32 33 32 29 26
24 26 25 28 30 32 35 41 44 45 46 46 47 48 45 40 38 36 34 33 30 26 19 13 16 16 16 17 23 28 30 33 32 32 31 32 33 33 32 29 25 24 25
25 25 25 25 26 29 30 33 38 41 42 41 41 44 41 39 37 34 34 30 30 28 26 25 20 19 23 24 22 29 30 30 30 31 31 32 32 30 27 25 25 25 25
22 23 23 21 23 25 26 28 30 33 36 36 37 39 36 34 33 32 28 27 26 24 25 22 23 24 23 19 23 30 31 30 30 30 31 30 28 27 26 25 24 25 24
13 14 15 15 18 21 22 23 25 28 31 33 35 32 31 32 29 26 25 23 20 18 19 20 19 21 18 22 26 27 25 27 28 28 29 25 23 24 22 23 25 26 26
15 14 13 15 17 19 21 21 24 26 27 27 27 28 27 23 22 21 19 16 17 17 18 17 17 19 24 24 23 22 20 20 23 24 25 23 22 21 23 24 24 25 26
16 16 15 16 15 16 18 20 21 21 21 22 20 18 17 18 16 17 17 17 16 15 17 18 19 20 20 14 15 16 19 20 21 23 21 19 20 22 23 22 23 24 25
14 18 22 14 11 11 11 10 13 15 16 14 14 14 15 16 15 16 16 16 11 11 16 18 18 15 14 14 15 16 17 19 21 19 15 22 23 25 24 22 23 25 25
3 5 5 5 4 4 6 9 12 13 13 13 14 14 13 14 13 12 10 10 11 13 16 15 17 16 16 15 18 22 17 18 22 23 23 26 23 25 22 24 25 26 26
2 4 5 8 10 11 11 12 11 10 10 9 9 10 10 7 7 8 10 11 14 15 16 18 18 17 17 17 15 18 20 21 21 22 19 26 23 22 23 25 27 24 21
9 10 10 10 10 12 10 9 8 7 6 6 3 2 3 4 7 9 11 13 13 12 15 19 22 23 20 19 18 18 18 17 21 22 20 21 21 20 24 28 22 24 28
14 13 12 10 7 8 9 6 3 3 2 0 2 4 6 7 7 8 8 10 11 14 16 18 13 15 15 15 14 16 17 20 20 21 10 18 20 20 17 26 23 28 28

GFSMA_850_spd_039.txt.gz
Wind_Speed
17 16 15 17 15 12 12 12 11 11 10 10 9 7 6 4 5 6 10 16 14 13 12 10 7 5 3 2 2 1 2 3 4 4 5 5 5 6 7 7 7 7 7
17 15 17 21 19 15 14 13 13 13 11 12 11 10 8 8 7 9 10 11 16 15 14 10 8 6 4 3 2 3 1 1 3 4 5 6 6 7 8 8 9 9 9
20 18 17 23 23 20 15 15 14 14 14 14 13 12 11 9 10 10 11 12 12 14 13 10 9 7 7 5 4 4 3 4 4 5 7 7 8 9 10 11 10 10 10
23 22 21 25 23 23 17 17 17 19 18 17 16 15 14 13 11 11 13 13 12 11 14 13 12 10 9 8 6 6 5 5 6 7 7 8 9 9 10 10 10 11 10
23 25 25 24 23 22 21 22 21 20 20 19 18 17 15 15 14 14 15 15 15 14 12 13 14 13 12 10 9 8 8 8 9 10 10 10 11 11 11 11 11 11 10
25 27 26 24 23 24 26 26 24 24 23 22 19 19 19 17 16 17 16 18 18 18 17 17 15 16 15 13 12 10 10 11 11 12 11 12 12 12 12 11 10 10 11
25 28 29 27 28 29 31 28 26 27 27 24 21 20 20 20 21 20 19 21 20 20 21 22 17 19 17 16 15 14 13 13 13 13 12 13 14 13 13 11 11 12 12
33 31 34 33 32 32 32 32 31 32 32 31 29 19 12 18 24 25 23 23 23 23 23 23 22 21 21 18 19 17 17 15 15 15 15 16 16 15 15 13 13 15 15
40 34 35 36 36 36 36 36 35 36 37 35 33 24 10 12 13 19 27 27 26 27 25 25 25 24 24 23 22 20 20 17 17 17 17 17 18 18 18 19 17 17 19
37 36 37 38 39 41 41 40 39 40 39 40 34 36 29 14 11 10 18 28 28 28 28 27 27 27 27 25 25 25 23 20 20 19 18 19 20 20 19 21 20 19 20
39 37 36 38 42 43 43 42 41 43 42 43 41 39 40 36 29 20 15 19 25 29 30 28 30 29 28 27 27 26 25 24 22 21 21 21 21 22 23 21 20 20 21
29 33 33 36 39 41 45 46 44 44 44 44 45 42 43 42 43 37 28 21 23 23 28 31 31 29 28 27 27 29 25 24 24 22 22 22 25 26 28 29 28 26 24
24 30 31 31 36 38 40 42 43 47 47 45 48 47 45 45 43 36 38 27 23 24 24 27 30 31 29 28 28 27 26 25 24 23 23 27 30 31 32 32 31 29 26
24 24 29 32 32 34 36 37 38 43 47 46 45 52 50 45 45 41 44 36 28 27 26 23 25 27 27 28 27 25 23 25 25 23 26 29 31 33 33 33 32 32 31
25 23 22 27 28 28 32 35 38 38 42 45 46 47 51 50 48 45 43 38 32 25 27 23 21 24 26 27 26 22 22 22 26 28 30 31 32 33 32 33 33 33 32
21 16 25 27 25 26 27 31 34 38 40 41 41 42 44 49 50 43 40 34 29 26 22 24 27 25 26 26 25 24 25 29 31 30 31 33 34 32 34 34 34 31 28
23 24 23 23 22 24 25 26 30 35 37 38 39 39 40 39 41 40 37 35 39 35 32 25 26 23 23 23 25 29 31 32 30 30 31 33 34 35 34 31 28 26 25
18 20 21 22 21 19 21 21 23 27 30 34 35 34 32 34 34 34 35 29 25 24 25 25 24 26 27 27 28 28 28 26 30 31 31 34 32 30 28 27 26 26 26
9 10 13 14 13 15 17 18 20 23 24 28 30 31 29 29 27 27 23 20 16 18 19 20 21 22 24 25 25 24 23 27 28 29 28 28 27 26 25 24 25 25 26
11 9 10 13 15 17 16 18 20 19 21 22 22 21 20 19 18 17 16 17 18 17 18 18 20 20 21 22 22 21 22 21 23 25 27 27 25 23 22 23 23 24 25
11 11 11 11 10 11 13 12 14 15 14 14 14 12 11 10 11 13 14 15 15 16 17 17 16 16 17 17 16 14 17 23 23 25 27 23 18 21 23 22 22 23 24
8 8 7 7 8 9 11 10 9 8 6 6 8 9 9 10 10 15 14 12 14 13 13 13 13 14 14 11 12 15 18 22 28 23 15 21 23 25 24 22 22 22 24
7 6 6 6 6 7 6 5 4 4 5 7 8 8 8 9 9 11 9 9 11 11 11 12 11 11 12 13 19 22 24 21 23 23 21 25 22 25 23 22 21 22 23
7 8 10 10 8 8 7 5 4 4 5 5 4 4 4 6 7 6 7 7 9 11 11 11 13 14 16 18 17 17 19 21 22 21 16 25 24 27 24 22 21 21 18
12 12 12 10 7 7 5 4 3 1 1 1 2 4 3 4 6 9 9 10 10 9 9 15 15 18 19 19 18 19 20 20 22 22 19 22 19 24 26 26 19 18 25
14 12 10 9 7 6 5 3 2 4 4 4 3 3 6 9 9 8 8 7 10 11 13 14 14 13 14 14 13 15 16 19 19 20 6 17 22 25 22 27 27 32 32

GFSMA_850_spd_042.txt.gz
Wind_Speed
20 20 12 14 13 10 8 11 11 10 11 11 11 10 8 6 9 13 14 12 15 12 11 10 8 5 4 3 2 1 1 1 1 1 2 3 4 5 5 6 6 5 5
22 20 19 21 20 16 13 16 17 15 15 14 14 13 11 10 10 15 16 13 14 15 13 12 10 7 6 5 4 4 2 1 1 2 2 3 3 4 5 6 6 6 6
23 23 21 21 23 21 19 19 19 17 18 18 17 16 15 13 14 17 18 17 13 15 15 13 11 10 8 7 6 5 4 3 2 2 3 3 4 5 6 6 6 6 6
26 27 25 24 25 24 23 21 22 23 23 22 20 19 18 17 16 16 20 20 16 15 15 15 14 12 11 10 8 7 6 4 3 3 3 3 4 5 6 7 7 6 6
22 25 27 27 28 28 24 26 25 28 27 25 23 21 21 20 19 19 19 21 22 19 16 15 17 15 15 13 11 10 8 7 6 6 5 6 6 7 8 8 9 8 7
27 26 27 28 30 29 27 26 29 31 29 25 24 23 24 22 21 21 22 22 23 23 21 18 17 17 17 16 14 13 11 10 9 9 9 9 9 9 10 10 10 10 8
30 31 30 30 32 32 31 27 31 33 31 26 24 25 26 24 25 25 25 24 25 25 25 25 20 20 20 19 18 16 14 13 11 11 11 11 12 11 11 10 10 10 10
31 35 34 35 34 35 34 33 36 35 32 31 32 27 23 28 29 30 29 27 28 27 26 28 25 23 23 21 21 19 18 16 15 14 14 14 14 14 14 14 12 11 12
37 36 36 38 38 37 38 39 39 39 37 35 38 29 13 17 18 27 32 32 31 31 29 28 28 26 26 25 24 21 21 19 18 17 16 16 16 16 16 16 15 14 14
34 31 40 39 37 37 39 40 42 42 41 39 38 41 35 23 16 12 21 29 33 34 33 31 30 29 29 29 28 26 25 23 21 20 20 18 18 18 19 18 18 17 16
32 32 30 31 37 37 37 38 41 44 45 44 45 43 41 39 29 28 23 25 30 34 34 35 32 31 33 31 31 29 28 27 25 23 22 20 20 20 20 20 21 22 22
27 29 31 30 32 36 39 40 40 41 44 46 47 45 44 45 46 37 32 29 28 30 31 33 34 33 33 32 32 31 29 28 25 23 22 21 21 22 22 24 25 26 27
24 25 28 28 28 28 34 38 40 42 43 44 48 49 46 45 45 45 43 31 28 28 23 28 31 33 33 32 31 30 28 28 27 26 23 21 22 23 25 27 28 28 29
22 19 18 24 25 26 26 32 37 39 40 44 45 48 49 46 46 48 45 39 32 28 29 27 30 30 34 31 28 28 29 28 26 24 20 19 24 27 28 29 30 29 29
24 29 30 23 21 22 22 23 29 35 37 40 41 43 46 47 45 45 45 42 37 28 32 30 26 31 37 36 32 31 31 28 27 24 23 27 31 32 32 31 29 29 30
20 23 23 24 28 28 28 24 23 26 30 35 38 39 41 42 44 44 43 43 41 35 25 26 26 28 34 37 32 34 31 29 27 27 28 32 31 31 31 31 31 30 29
17 18 19 20 25 21 22 23 22 22 23 27 30 34 36 35 36 37 37 37 38 36 35 33 34 29 27 30 30 29 27 27 29 31 33 30 29 32 32 33 30 28 26
10 12 13 13 14 15 17 20 20 20 21 22 23 28 31 32 32 32 31 30 29 30 28 26 27 21 22 27 26 27 29 31 30 27 25 27 31 30 26 25 24 23 23
9 9 9 9 8 10 11 11 15 18 18 17 19 22 25 27 29 27 23 21 18 17 18 17 20 21 22 26 26 28 27 25 24 24 24 23 23 25 24 23 22 22 21
11 10 10 9 8 8 9 12 15 17 15 14 18 18 19 19 17 14 13 10 10 11 13 16 17 18 20 21 21 22 21 19 19 19 21 23 24 25 22 19 19 19 20
8 8 10 10 10 9 8 10 11 10 10 11 11 9 7 6 6 8 9 8 10 11 12 14 12 14 15 17 16 14 16 16 19 20 24 26 21 18 17 19 19 19 20
6 7 7 8 9 8 7 8 6 4 4 2 0 1 4 7 8 8 8 8 9 10 11 11 11 13 13 11 9 11 16 20 23 22 18 20 20 17 15 15 16 15 16
6 8 8 9 9 11 13 11 10 8 7 5 3 2 2 2 3 4 5 6 8 10 11 10 10 10 10 11 14 17 20 22 22 19 19 22 17 17 15 15 14 14 16
10 10 11 11 10 11 9 9 9 8 5 3 2 1 3 4 5 6 7 7 8 8 8 9 12 12 14 15 17 18 19 21 20 19 17 25 18 17 15 14 15 15 12
13 12 13 12 10 10 9 8 8 6 4 3 1 3 5 5 4 5 6 7 7 6 6 10 11 12 15 16 17 17 16 17 19 18 15 18 15 21 20 17 11 11 20
13 12 11 10 9 8 7 6 5 4 4 4 5 4 5 6 7 6 7 8 9 11 13 15 16 16 14 13 11 11 12 14 15 17 6 14 21 22 20 17 21 23 23

GFSMA_850_spd_045.txt.gz
Wind_Speed
15 14 13 13 13 12 15 14 13 13 14 13 12 12 11 10 13 13 12 12 11 12 12 11 9 6 5 4 4 4 3 3 3 2 2 2 1 1 2 2 1 1 0
16 17 19 18 16 15 15 14 13 14 15 14 16 15 14 13 16 16 16 15 13 13 15 14 12 8 8 7 7 6 5 4 3 3 2 1 1 1 0 1 1 1 2
18 20 22 21 20 20 17 16 16 18 20 20 19 18 17 16 17 19 19 19 16 15 15 16 14 11 11 10 9 8 7 6 4 3 3 3 2 2 1 1 2 3 3
18 23 25 26 23 23 23 22 22 23 24 23 22 20 19 19 19 21 22 23 20 18 17 17 17 15 14 13 11 10 9 8 7 6 5 4 4 3 3 3 3 3 4
19 21 26 27 27 25 26 27 25 27 27 28 26 25 24 23 22 23 24 25 24 22 20 18 19 19 16 16 15 13 12 11 9 8 7 6 6 5 4 4 4 4 3
26 25 25 27 30 30 30 29 29 29 30 31 30 29 27 27 25 27 27 26 26 27 23 21 20 21 20 19 18 16 15 13 12 11 10 9 8 7 7 6 6 6 5
28 29 29 30 30 33 33 32 31 29 33 33 32 30 30 30 31 30 30 31 30 29 28 26 23 23 22 23 22 21 19 17 15 14 13 11 11 10 10 9 9 9 8
32 32 32 36 35 35 36 35 35 35 34 35 36 32 27 34 38 36 34 34 34 33 32 31 29 26 25 25 25 24 22 21 19 17 16 15 15 13 13 12 12 12 12
29 29 36 36 39 37 40 39 38 38 38 39 40 31 14 22 24 30 38 39 38 36 36 34 32 31 28 27 27 27 26 24 22 20 20 18 18 17 16 16 15 15 14
31 28 25 28 39 40 40 39 42 42 41 43 43 42 41 32 19 14 23 30 37 39 39 37 36 35 32 30 30 29 26 25 24 23 23 21 20 19 18 18 17 15 15
25 29 28 27 26 30 38 40 39 40 44 47 47 46 45 46 41 35 30 30 28 36 39 38 38 36 35 33 32 30 29 27 25 26 25 24 22 21 21 20 19 19 18
25 25 28 28 27 25 25 32 36 39 41 41 46 47 47 44 46 41 40 39 34 32 35 37 39 39 37 36 34 31 29 30 28 26 26 25 23 23 23 21 20 20 21
21 18 21 24 25 24 24 24 24 31 36 39 42 46 43 47 44 42 42 41 36 32 32 36 40 40 37 35 35 34 31 28 30 28 27 25 25 25 22 23 23 23 24
27 26 22 21 22 21 22 21 21 25 30 33 36 41 43 42 42 43 44 41 37 33 34 34 38 41 36 33 34 32 28 24 26 30 33 31 28 27 26 27 29 28 29
20 24 29 29 27 26 26 21 23 23 24 28 31 32 34 36 37 35 40 41 42 29 35 37 35 39 42 41 39 36 31 30 33 36 35 27 27 27 32 32 30 30 28
19 19 21 22 22 22 24 26 27 27 27 26 26 29 30 32 33 35 30 38 39 39 37 33 35 38 35 34 35 39 29 34 33 28 27 25 28 32 31 29 28 29 28
12 14 16 19 19 18 21 23 23 23 23 24 23 24 25 25 26 27 26 28 36 34 36 36 33 30 30 34 35 37 30 29 25 26 23 27 31 29 27 29 31 30 27
8 8 8 9 10 11 10 10 12 14 14 14 15 18 19 20 19 21 24 26 29 25 25 29 29 27 27 31 29 30 27 26 26 23 26 29 29 26 27 27 24 23 22
10 10 10 9 9 10 10 9 11 14 15 17 16 15 17 19 21 26 28 25 23 18 20 21 23 24 24 23 25 25 22 21 24 25 27 26 21 21 23 23 23 21 19
9 10 9 9 9 10 11 10 10 10 13 13 13 14 14 16 18 18 17 14 11 10 13 15 13 18 19 19 19 19 19 21 21 19 18 18 19 22 24 23 19 19 19
6 5 5 5 6 8 8 8 8 8 9 9 9 10 11 10 8 6 4 5 6 7 10 11 12 14 16 16 16 16 17 16 16 17 20 17 22 18 17 18 19 18 19
1 4 4 5 6 7 7 5 5 5 5 5 4 3 2 2 2 2 2 4 5 6 8 9 11 12 12 12 12 13 13 13 15 17 17 19 18 14 13 14 15 16 15
4 5 8 9 8 10 12 11 12 10 8 7 5 4 4 3 2 4 5 6 6 7 8 9 11 12 11 11 12 13 14 17 21 20 21 22 12 10 10 11 10 10 11
8 9 10 10 10 11 11 11 12 10 8 6 4 4 3 5 6 7 8 8 7 6 8 10 11 10 11 12 14 17 17 19 20 18 15 20 11 10 9 9 11 10 6
11 11 12 11 10 10 9 9 9 7 6 4 3 4 4 4 6 8 8 8 8 8 8 8 10 10 11 13 14 16 16 16 16 13 11 16 8 16 13 9 7 5 11
10 10 9 9 10 9 8 7 7 7 6 6 7 8 9 9 8 8 10 10 11 11 11 13 15 16 16 13 12 12 11 11 11 10 3 12 17 16 10 9 7 16 12

GFSMA_850_spd_048.txt.gz
Wind_Speed
12 13 13 12 10 12 14 15 15 15 15 14 15 15 13 14 15 15 14 13 12 13 14 13 13 11 8 7 7 6 6 5 5 5 4 4 4 4 4 3 3 2 2
13 13 14 14 13 14 14 14 15 16 15 15 17 17 16 17 17 18 18 16 15 15 15 16 16 14 11 10 9 8 8 7 7 6 6 5 5 4 4 3 3 3 2
14 15 16 18 17 17 16 17 17 18 19 19 19 19 20 20 19 20 21 20 19 18 18 19 18 16 14 12 12 11 10 9 8 8 7 6 5 5 4 4 3 3 3
15 17 18 21 19 21 21 21 20 22 21 23 23 22 22 22 22 23 24 24 23 22 21 20 20 19 17 15 14 14 12 12 11 10 9 8 7 7 5 4 4 3 4
17 18 19 21 22 25 26 25 25 26 27 27 27 27 26 25 25 25 26 27 27 26 24 23 22 22 21 18 18 16 15 15 14 12 11 10 9 8 7 6 5 5 4
24 24 24 23 23 27 30 30 29 29 31 30 30 29 30 30 29 30 30 29 30 30 29 26 25 24 23 21 21 19 18 17 16 14 13 12 11 10 10 8 8 7 5
28 29 29 29 29 29 30 32 33 33 33 32 33 33 32 33 35 36 34 34 34 33 33 31 28 27 26 24 24 24 22 20 18 17 16 15 14 13 12 10 10 9 8
28 30 32 33 34 34 35 35 34 36 37 35 36 38 35 36 40 38 39 38 37 37 36 35 33 31 28 27 27 27 25 24 21 20 18 17 16 15 14 13 12 12 11
28 29 28 29 32 35 37 39 41 38 39 38 39 35 16 25 29 30 29 33 37 39 40 38 37 35 32 30 29 29 29 27 26 23 21 20 19 18 15 15 15 14 13
32 31 27 24 25 26 31 38 40 40 40 44 40 40 44 41 23 21 23 24 29 37 39 40 39 37 37 35 32 31 30 29 28 25 23 20 19 18 17 16 16 14 13
30 27 27 25 25 24 27 28 30 36 39 40 44 38 44 46 47 44 39 31 34 27 30 37 38 39 40 38 35 32 32 32 28 27 24 19 17 16 15 13 12 12 15
29 30 31 26 25 24 25 26 25 25 28 29 33 37 38 37 40 44 48 49 46 43 36 33 36 38 40 39 39 32 33 32 29 27 23 17 17 20 23 17 15 16 18
21 25 25 21 25 25 23 21 22 23 24 25 27 30 31 34 41 45 42 43 42 41 36 36 34 38 42 44 39 36 32 32 32 29 29 20 18 18 27 27 25 22 24
20 20 23 24 21 19 16 17 19 20 23 23 26 26 26 29 31 37 41 38 35 36 34 40 37 36 40 43 40 38 38 35 41 32 38 33 33 31 34 37 33 29 26
20 20 20 20 23 25 23 22 24 24 23 21 23 27 26 26 27 28 30 34 36 23 25 31 28 34 35 37 37 41 41 44 40 39 30 32 31 35 37 36 32 25 31
16 18 20 20 20 20 22 25 26 24 24 24 25 24 26 25 23 26 26 28 29 31 29 29 26 28 30 32 33 38 44 43 39 34 33 32 32 32 32 28 25 28 30
9 10 12 13 14 16 17 19 21 21 22 21 21 21 21 21 20 21 21 22 22 24 30 33 29 26 32 29 33 36 39 38 33 29 31 28 27 28 24 25 29 28 28
9 8 8 8 8 8 8 9 12 14 14 13 13 13 14 16 17 19 21 22 22 22 23 25 27 22 25 24 26 27 27 31 30 28 27 22 24 25 27 29 27 21 23
9 9 10 10 10 9 10 11 12 13 12 14 14 15 15 16 19 21 23 24 22 19 18 17 20 20 20 22 24 24 25 26 24 24 22 22 24 25 23 21 22 23 23
6 7 7 8 9 10 11 12 10 10 10 10 9 9 11 12 15 17 17 17 14 12 11 10 11 13 13 14 18 19 21 20 20 21 21 19 16 19 22 25 25 26 24
4 3 3 3 4 4 4 4 5 6 6 6 7 7 7 9 8 8 8 7 6 5 6 6 7 8 8 11 12 13 15 17 18 17 16 15 20 22 21 22 22 22 22
1 0 0 1 3 5 7 6 4 4 4 4 3 4 5 4 4 5 6 6 6 6 7 7 8 9 9 10 12 14 15 14 13 13 14 16 20 20 20 20 18 18 17
3 4 5 5 4 6 7 8 9 7 6 5 5 5 5 5 6 6 6 7 8 9 9 9 10 11 11 10 10 10 11 14 16 18 21 25 19 16 14 14 15 15 15
6 7 8 8 7 8 10 10 9 7 7 7 7 7 7 8 8 8 8 8 8 8 8 9 9 9 10 11 12 15 16 18 20 20 19 22 12 12 12 11 14 15 15
9 9 8 8 8 8 9 9 9 9 8 8 7 7 8 9 9 10 9 10 9 9 9 10 10 9 10 12 13 17 16 15 16 13 11 15 11 12 12 13 14 14 13
8 8 7 6 6 6 6 6 7 8 8 8 9 9 10 10 10 12 12 11 11 12 12 13 14 16 17 16 15 17 16 14 12 10 5 9 15 15 8 8 12 15 12

GFSMA_850_spd_051.txt.gz
Wind_Speed
11 11 12 12 10 10 11 13 14 16 16 15 16 15 15 17 17 15 14 14 14 14 16 16 16 15 12 11 9 9 7 6 6 6 5 5 4 3 3 3 2 2 2
12 12 12 13 13 12 10 11 13 15 17 17 16 16 16 18 19 19 18 17 17 17 17 18 17 17 16 12 12 10 10 9 9 8 7 6 5 5 4 4 3 3 2
13 13 13 13 13 14 13 14 14 16 18 18 20 18 17 19 20 21 22 22 20 19 19 19 19 19 19 17 14 13 12 11 11 10 9 8 7 7 6 5 4 4 4
12 14 15 15 14 16 17 18 18 19 20 21 21 21 21 21 22 22 23 24 24 23 22 21 21 21 20 20 17 15 15 14 13 12 11 10 9 8 8 7 6 5 5
17 16 17 17 16 18 20 22 23 24 24 25 26 25 25 24 23 25 26 26 26 27 26 24 23 23 22 22 20 16 17 17 16 15 14 12 12 10 10 9 8 7 6
23 23 23 23 22 22 23 25 27 27 28 29 30 31 29 28 28 29 29 28 29 30 29 29 26 26 25 24 22 19 18 18 18 18 16 15 14 13 12 11 10 9 7
26 27 29 28 30 30 29 29 29 31 32 32 34 36 36 32 32 36 34 33 33 32 32 32 31 28 27 26 25 24 22 20 20 20 19 17 15 14 14 13 12 11 10
28 31 31 31 29 30 31 32 34 35 35 36 37 38 36 35 35 35 36 36 35 35 34 35 33 32 30 29 27 26 27 24 22 20 20 20 19 17 16 13 13 12 11
32 33 32 31 30 31 32 31 34 34 38 39 41 35 19 22 22 22 23 25 26 28 30 34 35 35 34 33 31 30 29 28 25 21 19 18 19 19 17 15 13 12 12
29 29 29 30 30 30 28 26 24 25 29 37 38 38 39 40 31 26 27 27 23 27 27 30 31 34 36 36 35 34 31 30 29 25 19 18 18 18 16 15 14 12 12
32 32 33 32 30 29 28 27 24 26 27 26 30 32 34 37 38 38 34 34 36 34 32 29 28 31 34 37 38 38 34 30 26 29 23 20 20 20 18 16 14 13 15
21 23 26 29 28 28 27 25 26 25 26 24 22 23 26 29 28 31 34 38 38 37 34 38 36 33 30 34 40 40 40 35 33 36 27 21 20 21 19 17 19 21 20
20 19 19 20 21 21 24 27 26 23 21 21 21 19 18 20 21 25 29 34 37 37 36 32 33 34 33 36 35 38 40 42 36 27 23 29 31 31 30 28 31 33 33
20 20 20 19 18 19 18 17 20 19 17 19 21 20 19 22 22 23 24 27 30 32 32 30 31 29 31 30 32 32 36 41 42 35 35 30 28 37 39 41 39 36 32
18 18 19 19 19 19 19 20 20 20 18 17 21 24 23 20 21 21 22 20 21 22 27 26 26 28 28 28 25 28 30 35 37 40 38 34 36 36 33 33 28 30 30
15 13 14 14 16 17 17 18 18 18 19 20 20 22 21 22 17 15 18 19 17 22 25 24 25 26 28 28 27 25 25 25 31 34 36 31 32 34 31 30 27 30 26
11 9 7 7 8 9 11 13 15 16 16 16 17 19 18 16 17 15 15 16 19 18 21 25 25 26 26 26 24 23 21 25 30 26 27 29 26 26 28 28 24 21 23
11 10 8 8 7 6 6 6 7 10 12 13 14 11 10 12 14 15 16 18 19 22 21 25 27 26 23 20 21 19 21 22 27 28 28 27 27 23 24 24 24 26 27
11 10 10 10 10 9 9 9 10 10 11 10 10 11 14 14 13 15 16 18 19 20 20 21 20 20 17 15 16 18 20 20 22 23 24 22 22 22 23 23 21 19 23
6 7 7 7 7 7 7 7 7 7 7 8 9 10 9 9 10 12 13 13 14 13 12 11 11 11 11 11 12 13 16 17 18 19 20 20 19 21 22 21 24 25 26
5 4 3 2 1 2 2 2 2 3 3 5 7 5 7 7 6 6 6 8 8 7 7 7 7 8 8 9 9 10 11 14 15 17 17 17 17 18 18 22 25 26 26
5 3 1 1 2 3 5 5 4 4 4 4 5 5 6 6 6 7 7 8 9 8 9 9 9 9 9 9 10 11 12 13 13 12 13 14 18 19 20 24 26 26 24
3 3 3 2 2 6 8 7 8 7 7 6 6 6 6 8 8 8 9 9 10 11 11 10 11 10 10 10 11 11 12 13 15 16 20 23 22 23 22 22 21 20 18
5 5 6 8 8 8 7 8 7 6 6 6 7 9 9 9 9 9 10 10 10 10 11 11 10 10 10 11 12 13 15 16 18 19 20 25 21 15 14 16 18 17 16
8 8 7 7 7 6 7 7 8 8 9 9 9 10 10 11 12 12 12 11 11 11 11 10 10 10 10 11 13 16 18 16 16 14 12 16 14 14 12 14 17 18 19
7 7 7 5 5 6 7 7 8 8 9 9 10 11 12 13 13 14 13 13 12 12 11 11 13 15 16 16 16 16 15 14 12 9 5 9 13 17 9 9 10 11 14

GFSMA_850_spd_054.txt.gz
Wind_Speed
8 8 8 9 8 9 8 9 10 11 12 14 15 15 15 15 16 16 15 13 12 13 15 16 16 15 14 13 13 11 9 8 7 6 6 6 5 5 4 4 3 2 2
10 10 9 10 10 11 9 9 10 11 12 15 15 15 15 16 17 17 17 17 16 15 16 17 17 17 17 15 14 13 12 10 10 9 8 8 7 6 5 5 4 3 3
11 11 10 11 10 11 12 12 12 13 14 15 16 16 16 17 17 18 18 18 19 18 18 18 18 18 17 17 17 15 13 13 12 11 10 10 9 8 7 7 6 6 5
11 12 12 11 10 12 13 15 16 17 17 18 19 19 19 18 19 19 20 19 20 20 20 20 19 20 19 18 16 17 15 15 15 14 13 12 11 11 10 9 9 7 7
16 17 17 15 13 14 15 17 19 20 21 22 23 23 23 23 22 22 23 22 22 23 23 22 22 21 21 20 19 16 15 17 17 16 15 15 14 13 13 12 11 10 9
19 20 22 21 21 21 22 22 23 23 24 26 27 28 28 28 26 26 27 26 26 25 25 25 25 25 24 23 21 19 17 18 19 18 18 17 16 15 15 14 13 12 10
22 24 24 24 25 27 26 26 27 29 29 30 32 33 33 32 31 30 29 30 31 30 30 29 28 27 26 25 24 22 21 19 20 21 18 18 18 16 15 14 13 12 11
25 26 27 27 29 29 29 28 28 30 31 31 33 36 35 30 31 28 27 24 21 23 25 26 28 28 28 27 27 26 24 22 22 22 21 19 18 18 16 14 13 12 11
30 30 31 31 31 31 31 30 30 30 31 29 30 31 21 20 25 24 22 22 25 25 26 26 26 26 27 28 29 29 29 27 24 24 24 21 19 17 17 16 15 14 13
26 27 27 27 28 29 29 29 28 29 27 27 26 26 29 31 30 26 23 20 22 30 27 27 25 22 22 26 29 30 31 30 28 27 25 22 19 19 20 19 18 16 14
31 33 32 31 30 31 31 29 29 28 27 25 25 24 23 24 26 29 27 24 26 26 25 26 28 25 25 30 28 30 32 35 32 33 32 34 27 19 21 22 20 17 14
19 21 22 24 25 26 27 27 27 28 27 25 23 22 20 18 20 19 24 26 26 26 23 23 25 24 25 25 24 26 29 33 35 35 31 32 34 30 25 25 23 26 22
21 21 22 22 21 21 21 22 23 26 27 25 22 19 18 15 17 19 20 24 25 26 25 23 22 22 22 20 21 21 24 27 27 31 32 34 37 32 33 31 31 30 27
18 19 20 20 20 20 19 18 17 18 22 21 19 16 15 15 21 16 17 19 23 24 22 20 21 20 19 20 20 22 24 23 25 28 32 31 31 31 34 35 36 31 30
16 17 17 18 18 18 17 16 16 17 21 20 21 21 20 18 22 21 18 20 17 20 18 14 16 15 17 18 20 22 23 22 22 23 30 30 28 34 34 36 36 37 33
14 14 14 14 13 14 14 14 15 15 16 16 18 18 16 15 19 19 18 19 19 20 16 19 21 22 22 23 25 24 23 22 21 20 23 30 33 36 32 32 34 33 28
11 11 10 9 9 9 9 10 10 10 10 10 10 12 15 14 12 11 11 13 15 16 19 20 22 25 25 26 24 23 19 16 13 8 21 25 28 30 32 26 28 27 27
11 11 11 10 10 9 8 7 7 7 7 8 9 9 8 8 10 9 10 12 15 16 19 21 24 23 22 21 21 18 14 13 10 17 22 25 23 23 23 22 25 20 21
11 10 10 11 11 10 10 10 10 9 9 8 7 7 7 8 8 7 8 10 12 13 16 18 17 16 16 15 14 14 13 12 11 15 20 24 24 27 24 21 21 22 21
8 8 8 8 8 8 8 8 7 6 6 6 5 5 4 5 5 5 6 8 9 9 9 9 8 10 12 11 10 11 11 11 11 12 14 15 17 19 22 24 24 25 26
8 7 6 5 4 3 3 2 2 2 2 2 3 3 4 4 3 3 4 5 7 7 7 7 8 9 10 10 9 10 10 10 11 11 12 14 15 17 17 18 19 21 23
8 6 4 3 2 2 3 3 4 4 4 4 5 5 5 5 5 6 7 8 9 8 7 8 9 9 10 10 11 11 12 12 11 12 13 12 14 15 16 19 22 25 25
5 4 5 4 4 6 8 6 6 5 5 4 5 5 6 6 6 6 7 8 9 10 10 9 9 9 9 10 12 12 13 14 15 16 20 21 18 20 20 21 22 22 20
6 6 5 7 6 6 6 5 5 5 6 6 6 7 7 8 8 8 8 8 9 10 10 10 10 10 10 11 11 12 13 15 17 16 17 20 19 15 13 14 15 14 13
7 8 8 7 6 4 4 5 5 6 7 8 9 9 9 10 11 10 10 10 10 10 11 11 10 10 11 12 15 16 17 17 17 15 12 12 12 13 12 11 12 14 14
9 8 7 5 3 2 4 4 5 7 8 10 10 10 12 12 13 14 12 12 11 10 10 10 11 12 13 13 13 14 13 12 11 8 6 12 15 16 9 8 6 9 10

GFSMA_850_spd_057.txt.gz
Wind_Speed
7 5 6 7 8 8 7 7 8 9 9 10 11 12 13 13 14 14 13 12 11 11 12 15 16 15 13 12 12 11 10 8 7 7 6 5 5 5 4 4 3 3 3
9 8 7 7 8 8 8 8 9 9 9 10 10 11 11 13 13 14 15 15 14 13 13 15 16 17 16 14 13 11 11 10 9 9 9 8 7 6 6 5 5 5 5
8 9 10 9 7 8 10 11 11 12 11 12 11 11 13 13 14 15 16 16 16 15 15 15 16 18 17 16 15 15 13 12 11 11 10 10 10 9 8 7 7 7 6
8 10 10 9 9 10 11 12 12 14 15 15 15 14 15 16 17 17 18 19 18 17 17 17 16 17 18 17 15 14 14 16 13 13 13 12 12 12 11 10 10 9 9
12 14 14 13 12 13 14 15 15 16 17 18 18 19 19 20 20 21 22 22 21 19 19 18 18 18 19 19 18 15 15 17 17 15 15 15 14 13 13 13 13 12 12
15 17 19 19 18 19 20 20 21 21 22 23 24 25 25 25 24 25 24 26 26 26 23 23 22 22 21 20 20 19 16 17 20 21 17 17 17 16 15 15 15 14 13
18 20 22 23 22 23 23 24 24 24 25 24 27 29 29 28 29 28 26 25 22 22 22 23 24 24 23 22 22 22 20 18 19 23 25 21 18 17 17 16 15 14 13
24 25 26 25 25 26 26 26 26 27 27 25 27 28 28 25 25 21 17 16 15 15 16 18 19 23 24 23 23 22 22 22 19 21 25 26 23 20 16 14 14 14 13
27 29 29 30 29 30 30 29 29 29 29 28 25 25 16 14 19 18 21 19 21 21 21 18 21 14 16 18 20 22 23 24 24 21 22 24 23 23 21 16 15 15 15
26 27 27 26 26 26 27 27 26 26 26 27 25 26 25 24 18 16 17 19 21 21 19 21 20 18 19 19 18 19 21 25 27 27 24 26 25 22 17 20 22 21 20
26 26 27 28 29 30 29 29 28 27 27 27 27 25 23 23 23 21 21 16 14 15 17 18 19 19 20 20 20 21 21 24 26 29 28 28 31 27 28 21 28 26 25
19 20 20 21 22 22 23 23 24 25 27 26 26 25 24 22 20 17 17 17 18 17 17 16 15 17 18 20 19 18 17 18 19 24 29 30 31 27 23 31 27 26 25
20 20 21 22 23 23 23 22 21 21 20 23 25 25 24 20 17 16 15 16 15 14 14 13 14 13 16 17 16 16 14 15 15 17 20 24 29 30 28 33 36 30 27
19 20 20 20 21 21 21 21 19 19 17 17 19 21 19 17 15 15 16 17 18 16 16 11 13 15 17 15 14 15 15 17 17 17 18 19 26 31 30 26 24 16 22
16 17 17 17 17 17 17 17 17 15 14 15 15 16 18 20 22 22 23 20 18 13 14 10 12 12 17 18 19 18 19 20 17 20 22 22 23 25 24 32 31 32 31
14 14 14 13 12 12 12 13 14 15 15 17 18 20 19 19 21 22 19 19 18 17 16 14 14 16 17 17 19 21 21 18 20 20 22 20 18 24 23 19 22 29 32
12 12 11 10 10 8 8 8 9 11 13 14 14 16 17 19 18 16 13 12 11 13 14 16 16 17 20 19 19 17 18 13 13 13 10 12 20 21 23 27 31 30 31
12 12 12 11 11 10 8 7 7 6 7 7 8 11 13 10 10 12 12 11 13 14 15 17 17 18 16 11 12 12 9 11 11 8 11 13 15 18 21 25 24 27 25
12 11 11 11 11 11 10 9 8 8 8 8 7 7 7 7 8 9 10 10 11 11 13 14 13 10 6 9 8 8 8 8 8 8 13 21 21 22 24 26 24 23 21
10 9 9 9 9 9 8 7 7 6 6 5 5 5 5 6 6 7 7 7 8 8 7 6 5 5 6 7 8 8 8 9 8 8 9 12 15 18 21 22 23 24 24
10 9 8 7 6 6 5 4 3 3 3 3 3 2 1 1 1 3 3 4 5 5 4 4 5 7 9 9 10 10 10 10 10 10 10 12 12 14 15 17 18 20 22
9 8 6 6 6 5 4 4 4 4 4 3 3 1 1 2 3 5 6 7 6 5 5 6 6 7 9 10 10 10 10 10 9 11 11 11 14 14 17 18 19 20 21
9 7 8 7 7 8 8 7 7 6 3 2 1 1 3 4 5 6 6 7 8 8 7 7 7 7 8 9 10 10 11 11 12 14 17 17 14 14 16 17 19 20 20
8 9 9 9 9 10 8 7 6 4 2 1 1 3 5 5 5 6 7 8 8 9 8 7 7 8 9 9 10 11 12 13 14 14 15 15 13 9 9 12 11 11 11
10 10 12 11 10 8 7 5 3 2 2 3 4 5 6 7 7 6 7 7 7 8 8 8 8 9 9 11 13 12 12 12 11 9 7 6 10 13 10 7 7 8 8
12 13 12 10 8 6 5 3 2 2 3 5 6 7 8 8 10 8 7 7 7 7 7 8 9 9 9 9 9 9 8 7 7 5 5 10 11 12 8 6 5 11 12

GFSMA_850_spd_060.txt.gz
Wind_Speed
7 6 7 8 9 9 8 8 8 8 9 10 11 11 12 11 11 11 10 11 11 11 11 13 17 15 14 13 12 11 9 8 8 8 8 7 7 7 6 6 5 5 5
9 9 8 8 9 9 9 9 9 9 9 10 9 10 10 10 11 12 12 12 12 12 13 14 15 16 16 14 14 13 11 10 9 9 9 9 8 8 7 7 7 7 6
9 10 10 10 9 10 11 12 12 12 12 12 11 11 12 12 13 14 15 15 16 15 14 14 15 16 16 15 14 14 15 13 11 9 10 11 11 10 10 9 9 9 8
9 10 11 10 10 11 12 12 13 13 14 14 13 12 13 16 16 17 18 19 19 19 18 15 14 15 16 16 15 15 15 17 16 13 12 12 12 12 12 12 11 11 11
12 12 13 12 12 13 14 14 15 16 15 14 15 18 19 20 20 21 21 22 22 22 23 23 19 17 17 17 17 17 17 17 19 18 16 13 14 14 13 14 14 13 12
15 15 16 16 16 18 19 19 20 19 20 20 20 25 25 25 24 24 24 24 24 25 24 24 24 23 21 20 20 19 18 18 20 20 20 18 16 16 16 15 14 14 13
18 18 19 19 20 21 22 21 20 21 23 21 24 25 20 19 24 24 16 15 17 15 17 19 19 20 21 21 21 21 20 19 19 21 22 21 20 19 17 19 17 12 11
21 23 24 25 25 25 25 25 26 25 26 25 24 22 19 17 19 16 11 11 16 18 16 17 19 17 17 19 21 20 20 21 21 20 22 25 26 25 21 17 19 18 13
23 25 27 28 29 29 29 28 29 29 29 29 27 23 15 16 10 13 15 18 17 17 18 18 19 18 17 16 15 16 19 21 23 23 21 22 26 24 22 19 18 21 26
25 26 27 28 29 29 29 27 27 27 27 28 27 27 27 26 19 13 12 17 19 20 19 17 17 18 19 20 18 18 17 19 23 25 26 25 25 26 29 22 18 18 16
25 26 27 28 28 29 29 30 30 30 29 29 28 27 25 25 22 22 18 16 15 13 17 18 18 20 21 19 17 18 20 21 22 24 25 27 26 27 28 27 25 24 26
23 23 22 23 23 24 24 24 24 25 25 27 28 27 26 22 20 20 21 19 15 12 16 16 17 18 19 17 15 19 22 21 21 22 20 23 24 27 26 27 27 24 28
22 23 23 24 25 25 25 25 25 24 23 23 24 24 24 26 24 22 22 17 13 13 13 16 15 15 13 15 15 19 17 16 16 16 16 18 18 23 28 35 30 23 28
21 21 21 22 22 23 23 23 23 22 20 20 18 18 19 22 22 20 19 15 12 11 14 10 17 15 14 14 17 18 19 18 17 18 19 20 23 27 27 22 31 21 26
21 20 20 20 20 20 19 19 20 20 17 14 16 17 17 17 15 17 19 19 21 14 12 16 16 16 17 17 19 19 19 20 21 21 21 20 23 24 27 31 19 18 18
19 19 18 17 16 15 15 15 16 16 15 14 15 16 17 17 14 15 15 15 18 17 16 18 18 19 19 20 20 21 21 20 20 18 19 19 19 18 21 23 24 22 28
17 17 16 15 13 12 11 11 11 12 13 14 15 16 16 18 18 18 18 17 18 15 16 17 17 19 20 22 23 19 16 17 13 12 16 10 8 13 15 14 18 19 19
16 16 16 15 14 13 12 11 10 9 10 9 10 11 11 12 14 14 13 14 14 13 14 17 18 20 21 18 11 12 8 9 10 10 9 8 13 14 13 16 19 22 27
18 16 16 15 14 14 14 14 12 12 11 11 11 12 12 11 11 11 11 12 12 13 13 16 17 17 14 8 7 7 7 6 8 9 9 12 18 19 19 22 26 27 28
17 16 15 15 13 13 13 13 12 11 10 10 9 9 8 8 8 8 9 10 10 10 10 11 10 8 7 8 8 8 8 8 10 10 11 12 14 16 21 22 23 24 24
16 15 14 14 12 12 11 10 9 8 7 7 6 5 4 4 4 5 5 6 7 7 6 6 6 7 8 9 9 9 9 9 11 10 11 12 13 15 17 17 18 19 20
14 13 12 10 9 9 9 8 7 6 6 5 4 3 2 3 4 5 6 7 7 6 7 8 7 7 10 10 9 9 10 9 6 12 10 11 13 14 17 17 18 18 19
14 12 11 9 9 9 8 8 8 7 6 4 3 3 3 4 5 6 6 7 7 7 8 8 8 8 9 10 10 10 10 10 9 13 15 11 11 10 12 14 16 17 18
12 11 11 10 10 10 10 9 7 6 5 4 3 4 4 4 5 5 7 8 8 8 7 7 8 9 9 9 9 9 10 11 10 11 10 6 7 6 8 10 9 9 10
13 11 11 12 12 11 9 7 6 6 5 3 5 5 4 5 4 6 7 7 8 9 8 7 7 8 8 9 8 9 8 8 6 6 7 5 7 10 8 6 6 5 6
12 12 14 13 12 10 8 7 6 5 4 4 5 4 5 6 6 5 6 6 7 8 8 7 8 8 8 8 8 7 6 5 4 4 5 7 8 10 6 7 5 14 10

GFSMA_850_spd_063.txt.gz
Wind_Speed
8 6 6 7 7 7 7 7 7 7 7 7 7 8 8 9 8 9 10 12 11 12 12 12 14 15 14 14 12 11 10 10 10 9 8 7 7 6 6 5 5 4 5
8 7 7 7 7 8 8 7 7 7 7 7 7 8 9 9 10 10 11 12 13 12 12 12 13 15 15 16 14 14 13 10 9 9 9 9 8 8 7 7 7 6 6
9 8 8 7 7 8 8 9 9 10 10 9 9 9 9 10 10 12 14 15 16 17 15 14 14 14 14 15 13 15 16 15 12 8 9 10 10 9 9 9 8 8 8
10 9 9 9 8 8 9 9 9 9 10 10 10 10 11 12 13 13 15 16 18 18 19 18 15 15 15 16 15 14 17 17 18 16 12 11 11 11 11 11 10 10 10
10 10 9 9 9 10 11 11 11 11 12 12 14 13 14 15 15 15 16 17 17 21 22 19 22 21 20 19 18 16 17 19 19 19 17 15 12 10 11 13 13 13 13
12 12 11 11 12 13 13 14 15 15 15 16 16 17 18 20 19 17 17 17 19 17 21 21 20 21 19 19 20 20 19 19 20 21 20 17 15 13 11 11 14 14 15
13 15 15 13 14 15 16 16 17 19 19 20 20 23 21 17 17 20 19 15 13 18 16 16 13 12 13 16 16 18 20 20 20 21 22 22 21 17 17 15 14 15 16
18 19 19 18 16 18 20 18 18 21 21 20 19 20 18 19 16 18 17 13 15 14 19 17 16 14 14 14 15 17 17 19 21 21 21 22 24 26 22 21 18 16 15
20 21 22 23 24 24 25 25 25 24 24 24 23 21 13 11 10 12 12 16 18 17 16 18 15 17 18 17 18 17 17 18 20 22 23 23 22 22 26 25 19 21 16
22 23 24 24 26 27 28 29 28 28 25 25 25 25 26 26 18 18 19 17 16 16 16 17 15 15 18 17 18 21 21 20 20 21 23 26 25 24 21 26 26 22 17
22 23 24 26 26 27 27 27 27 28 28 28 27 24 25 26 26 24 21 20 15 18 15 13 15 15 16 17 18 16 15 16 17 19 21 24 26 23 24 23 32 23 22
23 24 24 24 24 23 24 24 24 24 24 24 24 23 25 22 21 22 26 24 20 15 13 7 17 19 19 18 17 16 16 18 19 23 23 22 21 19 23 22 26 34 26
22 23 23 24 24 25 26 26 26 27 27 25 23 23 20 22 24 23 25 18 19 18 15 10 17 17 17 17 15 15 15 17 18 19 19 20 22 24 27 25 26 24 33
22 24 24 24 25 25 26 26 26 26 24 20 19 20 20 22 21 23 25 23 20 13 15 13 18 19 16 14 14 15 18 18 21 21 21 21 21 22 23 24 25 26 29
23 23 23 23 24 23 23 22 21 19 18 20 17 17 17 19 18 19 22 19 16 12 13 11 19 18 16 16 17 19 19 20 21 24 23 20 21 22 25 24 24 24 20
22 22 21 21 21 20 19 18 18 18 19 17 13 13 9 15 15 16 15 15 17 16 13 16 21 21 20 20 22 23 22 24 20 21 17 14 16 17 17 16 14 14 17
21 21 20 19 19 17 16 15 15 14 15 14 14 14 14 15 17 18 19 17 17 15 16 20 21 19 20 21 23 23 20 15 16 14 13 15 7 5 7 9 9 12 15
21 21 20 19 18 17 16 15 14 12 11 11 12 12 12 12 12 12 14 14 15 15 16 14 17 17 20 21 19 15 13 12 11 11 12 10 8 9 10 11 12 14 18
21 21 20 20 19 17 17 16 15 14 13 11 12 12 12 13 13 12 12 14 14 15 14 15 17 17 17 15 11 10 10 9 10 11 12 13 12 13 17 17 18 18 21
20 19 19 19 17 16 16 15 16 15 14 13 13 12 12 11 11 11 10 10 10 11 11 12 13 12 10 9 9 9 10 10 11 12 13 13 14 14 16 18 21 22 22
18 19 18 17 17 17 16 14 14 14 12 11 11 10 10 9 8 8 6 7 7 8 8 7 7 7 8 9 8 9 9 10 12 11 11 12 13 14 16 16 18 19 19
18 17 16 16 15 14 13 13 12 10 10 10 7 6 5 5 5 5 5 7 8 8 8 8 7 5 9 10 9 10 10 10 5 13 10 11 14 14 16 18 20 19 20
15 15 14 14 13 11 11 11 10 8 7 7 6 5 5 5 6 6 6 7 7 8 8 9 8 9 9 12 11 10 10 9 9 13 14 10 10 9 11 13 14 15 16
13 14 13 13 12 10 9 10 10 9 7 7 7 5 5 7 7 6 7 8 7 8 7 8 10 10 11 11 11 10 10 10 8 10 10 6 6 6 9 10 8 8 9
13 12 12 13 11 10 11 10 8 7 7 7 6 6 7 7 6 8 7 7 8 8 7 8 9 10 10 10 9 10 8 7 4 5 9 6 7 10 9 8 7 5 6
13 12 13 12 13 12 11 9 8 6 7 7 7 7 7 8 8 7 7 8 7 9 8 7 7 7 8 7 7 7 7 6 6 4 8 7 9 10 6 7 4 11 11

GFSMA_850_spd_066.txt.gz
Wind_Speed
6 6 6 7 5 4 4 6 6 7 8 8 9 10 9 9 9 9 12 12 11 11 12 13 14 14 14 14 14 11 10 9 9 8 8 7 6 6 6 5 5 5 5
9 7 7 7 7 8 8 7 7 6 7 8 9 9 10 12 11 12 12 14 14 13 13 13 13 14 16 15 16 15 13 10 9 9 8 8 8 7 7 7 6 6 5
11 9 8 7 7 7 7 8 9 11 13 13 12 10 10 12 13 14 16 17 17 17 16 14 14 14 14 15 16 15 14 14 13 9 11 10 8 8 8 8 8 8 8
11 10 9 10 10 8 9 9 10 10 10 11 11 11 11 13 15 18 17 18 19 21 21 19 18 16 16 17 16 15 16 17 15 15 11 10 9 8 8 8 8 8 10
10 10 9 8 8 9 11 11 10 11 12 12 13 15 16 17 19 20 20 19 17 19 19 21 21 21 19 18 19 18 17 17 19 18 16 13 11 8 6 7 8 8 10
11 11 10 10 9 10 11 12 13 15 17 18 20 21 22 20 23 23 19 17 17 20 19 17 20 16 16 15 14 16 18 18 19 19 20 18 16 13 10 8 8 9 10
12 12 13 12 12 14 14 13 15 16 18 19 22 24 23 21 18 18 19 19 18 13 17 19 18 14 12 13 14 13 14 16 19 19 19 20 20 18 16 15 12 12 11
17 17 16 15 14 16 16 17 17 20 21 21 23 23 23 21 22 13 16 20 16 15 17 20 17 14 14 13 15 17 17 17 17 19 20 19 19 21 23 22 20 17 17
15 16 17 18 18 20 21 21 23 23 26 26 26 25 16 15 12 12 11 13 15 18 17 17 16 15 16 17 18 18 18 19 18 18 19 20 20 20 20 23 24 22 20
15 16 18 20 22 23 23 25 24 26 27 28 26 25 27 27 25 15 18 18 17 18 20 20 18 12 16 18 19 18 19 19 22 19 19 21 21 23 21 21 23 26 24
18 17 19 20 22 23 24 25 24 24 23 24 24 23 23 23 24 25 25 24 21 20 17 14 13 15 15 17 18 17 16 15 15 16 17 18 20 20 23 22 20 23 32
19 18 19 21 22 23 23 23 23 22 22 22 23 21 20 19 17 18 20 21 22 20 21 15 20 16 17 20 18 15 13 14 16 16 17 18 22 25 26 26 21 16 17
19 21 22 21 21 22 22 23 23 23 24 24 24 21 18 19 20 23 24 19 22 22 14 18 19 18 17 20 18 16 14 15 16 18 20 20 20 20 20 20 19 21 22
20 23 23 22 22 22 22 23 23 22 22 22 21 18 19 21 19 22 24 23 21 18 18 21 16 18 17 16 18 17 17 16 17 20 20 20 21 20 20 20 19 20 20
22 22 23 23 23 22 22 22 21 21 21 22 21 18 18 17 17 19 18 20 20 18 16 15 19 20 16 16 17 18 18 20 21 21 19 18 12 15 18 19 19 19 18
21 22 22 23 22 22 21 20 20 19 19 18 16 12 11 13 16 15 16 15 17 16 9 14 19 17 18 20 19 18 21 21 19 16 16 11 10 8 7 5 3 5 6
22 22 22 21 20 20 19 18 18 16 15 14 13 13 14 15 15 15 15 17 18 20 20 20 19 21 21 19 18 20 20 16 13 10 11 12 7 3 4 3 4 5 7
22 21 20 20 20 19 17 17 16 15 13 13 13 14 15 15 16 15 15 18 20 18 16 16 17 17 17 17 19 18 13 11 10 11 12 9 8 5 6 6 7 7 8
21 21 20 20 20 19 17 16 16 16 15 15 14 13 12 13 13 14 15 13 13 12 13 15 17 18 15 15 14 11 8 9 9 9 11 11 10 10 11 12 14 16 16
21 20 21 20 19 18 17 16 16 17 16 16 15 15 14 14 13 13 12 12 12 12 12 13 11 11 10 8 9 9 10 11 10 10 11 12 12 11 11 13 15 18 20
20 21 19 18 18 17 17 16 16 16 15 15 14 14 13 13 12 11 10 9 9 10 10 10 9 8 8 8 6 8 10 10 11 11 10 12 13 12 14 15 15 15 16
18 18 18 18 17 16 15 15 14 14 13 13 10 11 9 8 7 6 7 9 8 7 9 9 10 8 9 9 10 9 10 10 8 10 9 9 13 13 13 15 15 16 16
15 15 15 14 15 14 14 12 12 12 11 10 9 8 8 8 6 6 5 5 6 6 8 9 10 10 12 10 11 11 12 11 9 10 10 7 8 7 9 9 8 9 10
13 14 14 14 14 13 11 10 10 10 10 9 9 7 8 7 6 5 6 6 6 5 7 9 10 10 11 11 11 10 10 10 9 8 6 4 5 4 6 8 6 6 5
12 12 13 13 14 12 9 9 9 8 8 7 6 6 8 6 6 6 7 8 7 6 7 8 9 10 9 10 10 10 10 9 6 6 5 6 5 7 8 6 4 5 4
11 13 12 13 14 11 11 9 8 8 8 7 7 7 7 8 7 8 9 8 7 7 6 7 8 7 7 8 8 8 8 7 5 5 4 6 8 9 5 5 2 9 9

GFSMA_850_spd_069.txt.gz
Wind_Speed
10 8 6 5 4 5 4 4 3 4 6 6 7 8 7 7 8 9 10 11 11 11 11 12 13 13 12 13 14 12 9 8 8 8 8 8 7 6 6 5 5 5 5
9 9 9 6 5 5 5 6 6 5 5 7 8 9 10 10 11 12 13 13 13 13 13 13 13 13 14 16 14 15 13 10 8 8 7 7 7 7 7 6 5 5 5
12 10 10 9 7 7 7 8 7 8 9 11 12 12 10 9 12 14 15 17 17 18 17 16 14 13 14 15 15 16 16 14 13 10 10 8 7 6 6 6 6 5 5
14 12 11 11 9 8 7 7 9 9 9 9 8 8 10 11 14 16 17 20 21 19 19 18 17 18 16 16 16 17 17 17 17 15 13 11 9 7 7 6 6 6 6
12 13 12 11 11 10 10 9 9 9 9 10 12 13 16 18 18 19 22 23 22 18 18 18 16 18 18 16 16 16 18 18 17 18 17 15 13 11 8 6 6 6 7
12 12 12 11 10 9 10 11 11 12 13 15 17 18 20 22 22 22 23 20 16 18 18 19 17 18 16 14 12 12 13 16 18 18 18 19 18 15 11 10 8 6 6
13 12 12 12 11 13 13 13 13 15 16 15 18 22 23 21 21 20 21 19 18 19 19 14 16 18 16 13 13 12 12 14 14 17 18 17 20 19 16 13 13 12 9
16 14 15 15 16 15 15 16 17 17 18 18 20 22 27 25 23 18 13 13 16 20 15 17 19 17 14 15 12 15 15 15 16 17 18 17 16 18 20 19 19 19 16
21 21 20 18 18 18 18 17 18 20 23 23 23 24 14 11 12 11 14 13 15 17 18 22 18 18 16 16 16 16 17 17 18 18 20 19 19 18 15 18 24 22 21
19 18 18 18 19 20 21 21 23 24 28 27 26 25 27 25 22 14 13 13 17 16 19 22 18 17 17 14 14 15 17 18 19 19 19 22 20 19 18 19 18 19 25
19 17 19 21 21 20 20 21 22 23 23 23 21 22 23 25 25 25 21 22 22 22 20 20 20 20 15 14 14 16 19 17 16 16 16 17 17 18 21 20 19 15 16
21 20 18 18 18 20 22 22 22 22 21 22 21 21 22 22 21 14 18 21 19 17 20 19 20 18 16 16 16 18 15 13 13 15 18 19 19 20 21 21 21 19 18
22 20 18 17 20 21 22 22 22 22 22 23 23 23 23 21 19 20 23 24 20 13 17 19 22 17 18 17 16 15 15 13 15 16 18 19 17 19 19 18 16 16 15
20 17 19 20 21 21 22 23 23 23 24 23 23 21 20 18 18 19 21 22 20 20 18 19 17 19 18 17 17 16 16 16 17 19 18 19 17 17 17 17 16 16 15
21 20 20 21 22 23 23 23 23 23 22 22 21 20 22 17 20 19 20 21 20 17 20 25 22 19 17 18 20 16 17 18 19 20 15 13 10 4 3 7 9 14 15
21 19 20 21 22 23 23 23 22 22 21 20 21 21 16 12 11 16 18 17 17 20 22 22 19 17 17 22 21 21 18 20 18 14 9 8 8 1 3 3 2 1 1
20 21 22 22 22 21 21 22 21 20 19 19 18 17 14 14 15 15 13 14 14 17 18 14 16 20 21 23 24 18 16 16 11 8 7 6 4 1 1 1 2 2 2
20 21 21 21 22 21 21 21 21 20 19 19 17 16 16 16 17 17 19 21 24 22 21 21 20 19 22 21 18 15 13 10 8 7 7 6 6 5 3 4 5 6 6
19 20 21 22 22 20 19 20 21 19 18 17 16 15 15 16 15 14 15 16 16 16 18 17 18 17 18 17 15 11 9 8 7 8 8 9 9 9 9 9 10 11 12
20 21 21 21 20 19 18 19 20 19 18 18 18 16 16 15 16 16 16 16 15 15 15 16 16 15 14 13 8 8 8 9 10 9 11 11 10 10 11 10 11 13 16
20 21 20 20 19 19 18 19 20 19 19 18 18 18 17 16 15 14 13 13 13 12 12 12 13 13 11 9 7 7 7 10 10 10 11 11 10 11 11 10 11 13 15
20 19 19 20 20 19 18 18 19 18 17 16 15 15 14 13 12 10 9 9 10 9 10 11 12 11 8 7 8 8 7 9 8 9 9 10 10 10 10 10 10 10 11
18 18 18 16 16 15 15 14 15 14 14 12 12 10 9 8 7 7 7 8 8 9 10 9 9 10 7 8 10 9 9 10 9 9 8 7 6 6 6 6 5 5 5
16 15 14 14 14 14 15 14 13 12 12 11 9 9 9 8 7 8 7 7 7 7 7 7 7 9 8 9 10 9 8 8 8 7 5 4 3 3 5 6 5 4 2
15 13 13 13 13 13 14 12 9 10 10 10 10 9 8 8 7 7 7 7 6 7 8 7 7 8 8 9 9 8 8 7 7 5 4 4 3 3 5 5 4 4 3
12 11 12 12 12 12 11 9 9 10 10 10 9 9 8 7 7 7 6 6 6 7 7 7 7 6 7 8 8 7 7 6 6 4 4 3 3 3 2 3 3 5 7

GFSMA_850_spd_072.txt.gz
Wind_Speed
8 7 8 8 7 8 7 7 6 5 4 3 3 4 4 5 6 6 7 7 8 9 10 12 13 14 13 11 13 12 9 8 8 8 7 7 7 6 6 5 5 4 3
8 9 11 9 8 7 7 7 6 5 4 5 6 7 7 8 7 8 9 9 11 12 12 12 13 13 12 15 16 15 13 10 9 8 7 7 7 7 6 6 5 4 4
12 13 12 11 8 7 7 7 7 7 8 9 9 11 10 9 9 11 13 15 14 15 14 13 14 13 13 14 16 16 16 18 14 11 10 9 8 8 7 6 6 6 5
11 14 12 12 9 8 8 8 9 10 10 11 11 9 9 11 12 13 15 17 18 19 18 16 16 14 16 14 14 16 17 16 18 17 15 14 12 9 8 7 7 6 6
13 13 14 12 12 11 10 9 9 10 10 10 11 13 14 15 17 19 20 20 21 22 20 15 15 15 17 16 15 14 14 15 16 16 18 17 16 13 10 9 7 7 6
14 13 14 14 13 12 10 9 11 12 12 14 16 17 19 21 21 19 20 19 19 20 18 14 15 15 15 17 15 12 12 13 13 15 16 17 18 17 14 12 10 8 7
17 15 14 14 14 12 12 13 15 16 16 15 19 20 23 23 24 22 20 20 20 18 18 21 16 14 16 18 13 11 10 12 15 15 14 13 15 19 18 16 14 13 11
20 17 15 14 14 13 15 17 19 20 19 17 20 23 27 26 24 17 15 13 15 13 17 17 15 14 16 15 13 12 13 13 15 16 18 17 14 13 17 20 17 18 18
21 20 19 17 17 18 19 19 18 19 21 22 21 23 15 11 14 14 11 16 16 13 14 14 18 18 19 15 14 13 14 15 16 20 21 20 18 16 16 14 18 29 23
25 24 23 21 21 21 21 21 22 24 26 28 27 29 28 29 28 17 16 13 15 14 15 16 19 22 18 16 15 14 12 13 17 18 18 17 16 14 14 16 17 18 22
24 25 24 23 20 20 21 22 24 25 25 26 25 25 23 22 23 25 24 21 21 19 19 21 20 18 17 16 15 13 14 14 15 15 16 16 18 18 19 18 18 17 17
25 24 24 23 21 22 21 22 23 23 24 24 23 23 23 22 22 20 17 17 18 18 20 20 22 20 18 18 16 14 14 13 14 15 16 18 19 19 20 20 18 17 19
26 28 26 24 21 22 21 21 23 24 24 25 24 24 25 25 24 23 21 23 24 23 23 20 18 22 19 20 18 15 15 14 15 17 18 20 19 18 18 18 16 14 12
24 27 24 20 21 21 22 24 23 24 25 25 25 25 25 25 24 21 20 18 24 19 25 20 20 22 24 20 17 15 16 18 18 18 19 20 17 14 14 14 14 14 13
25 23 22 31 25 24 24 24 24 24 25 24 23 24 25 22 24 23 24 23 23 18 20 18 19 20 24 20 16 15 20 19 21 20 18 14 11 4 3 4 7 4 10
26 26 24 23 23 23 24 23 23 23 24 23 22 22 22 22 20 19 18 19 21 22 21 15 20 22 23 17 14 17 21 23 21 18 14 8 8 2 6 4 4 4 5
29 26 24 23 22 21 22 24 24 23 23 22 21 21 21 19 18 15 14 14 19 21 21 20 13 17 15 13 20 22 24 16 15 12 10 7 5 3 3 4 4 4 5
22 22 22 22 22 22 23 23 22 22 21 21 20 21 21 19 17 17 18 18 20 20 17 18 16 17 20 21 21 23 16 14 11 9 9 7 6 5 5 5 6 7 6
20 21 21 22 22 23 23 23 23 22 21 21 20 20 18 17 18 19 19 20 20 21 23 23 21 20 20 20 19 17 12 9 8 9 10 9 8 8 8 9 10 11 10
18 20 21 22 23 23 23 23 22 21 20 20 20 19 19 18 18 17 17 18 18 17 16 17 19 18 19 18 15 10 10 8 9 10 11 10 10 10 10 10 11 14 14
19 20 22 22 22 23 22 21 22 21 20 21 20 20 20 19 19 18 18 18 18 17 15 16 17 17 17 15 10 9 10 9 10 11 12 10 10 10 10 12 13 14 15
20 21 22 22 22 22 24 21 21 20 20 20 19 19 19 19 18 17 15 14 13 12 12 13 14 14 12 11 8 8 8 8 8 11 11 10 10 10 9 10 10 11 12
20 21 21 21 21 20 17 16 17 16 17 16 15 15 14 11 10 9 9 9 10 9 10 11 10 10 11 9 9 9 9 10 9 11 10 8 8 7 6 5 4 4 4
20 20 20 20 18 17 15 16 16 14 14 14 14 14 11 10 9 9 8 8 9 7 7 8 9 10 10 10 11 10 9 9 9 9 7 5 6 5 5 5 5 5 4
19 19 19 18 16 14 14 15 16 14 13 14 14 12 10 9 9 8 8 8 9 8 8 8 9 10 9 10 10 9 8 8 9 7 6 5 6 5 6 6 6 5 6
19 19 18 15 13 13 13 14 13 11 12 13 12 12 10 9 9 8 8 9 9 8 8 7 7 7 7 7 7 7 7 8 7 6 5 5 5 4 3 6 6 5 7

GFSMA_850_spd_075.txt.gz
Wind_Speed
12 11 10 10 9 10 9 9 7 6 6 5 4 4 4 3 5 5 5 6 7 8 9 11 12 14 12 11 13 12 10 9 9 9 8 8 8 8 7 7 6 4 3
11 10 10 10 10 8 9 8 7 7 6 6 6 6 6 7 7 7 7 8 9 10 11 11 11 12 12 14 16 15 13 12 10 10 9 8 8 8 8 8 6 5 3
11 10 9 11 10 9 9 9 8 8 7 8 8 9 11 9 8 10 11 14 14 16 16 13 13 12 12 13 13 13 15 16 15 13 13 11 9 9 9 8 7 6 5
9 10 12 11 11 11 10 9 8 8 9 10 11 10 9 11 11 12 14 16 17 17 17 18 17 14 13 15 15 15 14 14 15 16 15 15 14 10 10 10 8 7 6
13 12 12 12 13 12 10 9 9 10 10 9 11 11 13 15 18 19 21 19 21 20 20 21 15 14 15 14 14 16 16 14 13 12 14 16 16 15 12 12 10 8 7
17 15 12 13 15 14 13 12 11 9 10 11 14 16 18 19 20 24 23 20 19 18 18 18 15 16 15 12 14 15 13 14 13 13 12 12 15 18 17 15 12 11 9
22 18 14 13 16 15 12 9 11 13 14 14 17 20 21 23 24 25 24 23 21 19 19 15 16 17 12 11 15 13 11 12 13 14 13 13 13 12 20 18 17 14 14
23 20 16 16 15 15 13 14 15 17 18 17 19 20 26 26 21 9 15 17 15 14 10 13 15 12 11 12 15 14 13 13 15 17 17 16 16 14 13 17 20 20 18
25 20 20 17 15 16 16 17 17 18 19 19 18 18 13 11 22 23 13 17 17 20 16 13 13 13 14 15 16 15 15 14 15 14 17 19 17 16 15 16 16 17 23
24 22 22 19 18 18 19 19 21 22 21 23 25 26 27 28 27 17 10 11 15 15 14 14 16 19 21 18 16 16 14 14 14 16 17 17 14 12 12 12 14 18 19
24 25 23 19 16 18 21 23 25 23 23 25 25 26 27 24 23 23 26 23 21 21 20 18 18 18 18 17 18 16 14 15 16 15 15 16 17 18 18 20 19 19 17
23 25 22 21 14 16 22 26 26 25 25 26 25 24 24 24 23 22 22 22 22 19 19 18 18 19 19 20 18 16 15 14 15 15 17 19 20 19 19 20 19 18 17
22 23 22 19 16 17 24 24 24 25 25 24 23 23 22 23 23 24 24 24 22 21 24 24 21 20 19 17 19 19 14 14 14 18 19 20 21 20 18 17 16 15 14
20 22 25 22 21 24 25 26 26 27 25 24 23 24 24 23 23 23 23 21 22 17 22 24 20 18 18 19 23 22 18 12 17 22 19 19 18 15 11 10 9 10 13
21 24 26 25 25 24 26 27 28 24 24 24 25 25 24 22 23 21 21 24 22 20 17 20 19 18 22 21 20 18 18 13 18 21 23 18 13 8 4 3 2 4 4
19 18 20 20 25 34 30 27 25 24 26 25 24 22 23 23 21 20 20 19 21 23 23 22 21 23 20 22 22 20 16 16 23 24 20 14 10 9 8 6 6 6 3
23 23 22 26 28 28 27 26 26 25 25 24 24 24 22 22 20 18 18 14 15 19 23 24 22 20 22 21 19 16 17 21 25 18 16 10 9 6 6 7 7 5 5
20 21 23 23 24 24 24 24 25 25 25 25 23 23 21 20 19 17 16 18 18 18 16 13 13 16 17 16 17 19 21 23 16 14 11 9 9 8 5 6 8 8 7
22 21 22 21 20 21 22 24 24 25 25 24 23 22 20 20 19 17 17 17 19 21 23 24 23 19 20 19 20 21 22 16 12 11 9 9 9 10 9 9 10 10 10
19 18 18 19 20 21 22 24 24 24 24 23 22 21 20 20 20 18 18 19 18 19 19 18 18 19 19 19 21 22 16 11 11 11 11 11 11 11 11 12 13 15 15
17 17 17 18 20 21 22 24 25 25 25 23 21 21 21 21 20 19 18 18 19 19 21 17 17 18 19 20 19 16 13 12 12 13 12 12 12 11 11 12 14 14 15
16 17 18 19 20 20 21 23 25 23 22 22 20 20 19 18 18 18 18 18 17 16 15 14 14 16 16 16 13 12 11 11 11 13 13 12 12 11 11 12 12 13 13
18 18 18 19 19 19 20 19 18 17 17 16 16 16 15 15 14 11 10 10 10 11 11 13 13 13 12 11 11 11 11 11 12 12 10 11 11 10 9 9 8 7 8
18 17 18 19 19 18 18 17 15 16 16 14 14 14 14 12 10 9 9 9 8 8 8 9 11 12 12 11 11 11 12 11 11 11 11 9 9 8 8 8 8 8 7
19 18 18 19 18 18 16 14 15 16 17 14 13 13 13 10 10 9 9 10 10 9 9 8 10 10 11 10 11 11 10 10 9 9 9 8 7 8 8 9 9 9 8
21 20 20 19 19 17 13 14 16 16 15 13 14 13 11 10 11 9 8 9 10 9 9 9 7 7 7 8 7 8 9 9 8 6 9 9 7 6 5 9 9 9 9

GFSMA_850_spd_078.txt.gz
Wind_Speed
12 12 11 10 11 12 11 10 9 7 7 6 5 4 3 3 4 4 4 4 5 6 8 9 11 11 10 12 12 13 10 9 9 8 8 8 7 7 7 6 5 3 1
12 12 11 11 11 10 10 10 10 8 8 7 6 5 5 5 6 5 5 6 9 10 11 11 11 11 11 14 14 13 14 13 12 10 9 9 8 7 7 7 6 4 2
13 11 10 11 10 10 11 10 10 9 8 8 6 7 8 6 5 6 8 9 11 13 14 15 15 13 11 13 14 13 14 14 13 13 14 13 12 8 8 7 6 5 4
14 11 11 10 11 12 12 11 10 9 8 8 8 7 6 7 9 10 12 14 15 15 15 18 18 17 15 13 15 14 15 16 15 12 12 14 14 13 11 9 8 6 6
17 13 10 10 11 13 12 11 10 9 8 7 6 7 9 11 14 15 18 19 18 19 18 17 18 16 13 13 15 13 16 14 15 13 12 11 15 15 14 12 10 9 8
16 14 12 11 13 14 14 13 10 9 6 7 10 12 14 16 16 19 19 22 22 22 21 18 18 13 14 15 13 12 15 14 14 14 14 13 11 11 16 16 14 12 11
19 20 18 14 14 16 14 12 9 8 10 11 13 16 19 21 21 22 20 16 15 16 18 16 14 12 16 15 11 13 16 14 14 13 13 13 13 12 11 16 19 16 14
21 25 22 18 15 15 15 13 11 12 12 13 15 17 18 20 11 8 14 20 14 13 9 9 12 14 12 11 10 17 15 15 16 16 15 14 14 15 15 14 14 20 19
21 23 24 23 17 14 14 15 13 13 14 14 15 15 10 9 23 19 17 16 17 15 18 18 12 13 13 15 16 17 16 16 15 15 14 15 15 12 11 13 15 13 12
24 26 24 23 20 16 15 13 12 13 16 19 20 22 22 25 26 20 19 13 15 15 15 14 14 15 17 18 20 19 17 16 15 14 15 17 18 16 14 12 11 12 16
20 20 19 21 20 16 11 10 12 15 18 22 23 24 23 22 20 20 26 24 19 16 18 18 19 18 20 18 18 18 16 16 16 16 18 20 19 17 16 16 19 20 20
13 15 19 20 14 14 16 19 28 24 15 23 26 23 22 22 22 19 20 23 26 24 21 18 16 18 18 18 18 19 16 17 18 13 17 22 22 20 18 17 18 18 18
21 20 24 27 18 17 14 21 18 19 23 24 23 23 23 22 21 22 21 23 24 24 21 20 17 19 21 20 19 16 20 18 16 14 17 24 21 20 19 16 15 14 13
23 20 21 20 15 13 18 19 21 22 22 23 23 22 22 21 21 21 21 20 21 18 19 18 17 17 18 20 16 20 19 20 17 16 16 22 19 17 11 7 3 4 8
17 16 16 15 15 17 20 23 26 24 26 23 22 21 22 21 21 20 20 20 18 17 16 16 17 18 18 19 19 21 19 19 16 17 18 21 19 12 5 5 4 4 5
19 19 21 22 22 23 24 25 21 24 23 23 23 22 22 21 20 19 19 18 18 18 18 17 18 20 21 22 22 21 21 20 19 18 23 20 15 10 10 11 8 7 7
21 23 23 22 22 22 21 20 24 23 22 22 22 22 21 21 20 19 19 18 15 15 20 24 22 20 20 21 20 22 20 17 19 26 22 16 12 9 8 9 8 6 5
19 20 21 19 19 20 22 23 21 21 22 23 22 22 20 20 19 18 18 17 16 17 20 19 15 14 20 23 22 18 16 18 23 23 16 14 11 11 9 7 7 8 7
15 17 17 19 20 19 19 19 20 22 23 23 22 22 21 19 19 18 17 16 17 17 19 21 22 22 21 19 18 18 20 23 24 16 12 11 10 11 11 9 9 10 9
17 17 17 18 18 18 18 19 20 21 21 21 21 20 19 18 18 17 16 16 17 19 20 21 21 20 20 21 20 21 21 22 15 13 12 11 11 12 13 12 12 14 14
18 18 17 17 17 16 17 18 19 20 21 22 23 20 18 17 17 17 18 17 18 18 19 21 20 19 19 20 19 19 19 18 15 14 13 13 12 12 13 13 14 14 15
18 17 17 16 16 16 17 18 18 19 20 20 17 16 16 15 15 14 15 16 17 17 17 16 16 17 18 19 18 19 17 14 13 14 15 14 13 12 13 12 12 13 13
17 17 16 15 14 14 15 16 17 17 18 18 15 12 13 13 13 13 12 9 11 12 13 14 14 14 16 16 13 13 12 12 12 12 10 10 10 11 11 11 11 9 9
18 18 16 15 14 14 15 16 17 16 14 14 12 12 12 12 12 10 8 8 8 8 8 9 11 13 12 13 11 11 11 12 12 13 12 10 10 9 9 9 9 8 7
19 18 17 16 14 15 16 17 17 12 11 13 13 12 12 12 12 11 10 10 9 8 8 8 8 8 10 10 10 11 11 11 11 11 10 9 7 7 8 8 9 8 8
21 20 19 17 17 16 16 16 15 10 12 13 13 12 13 13 12 10 8 9 9 9 9 8 7 7 7 8 8 9 10 10 10 8 9 9 6 6 4 8 9 9 9

GFSMA_850_spd_081.txt.gz
Wind_Speed
14 14 14 13 13 13 12 12 11 10 9 8 6 5 5 4 4 4 3 2 3 4 6 7 9 11 10 9 10 9 7 8 8 8 7 6 6 7 7 5 4 2 1
14 14 14 13 12 12 13 13 12 11 10 9 8 6 6 5 5 5 3 3 4 7 9 10 12 12 10 11 14 14 11 11 12 12 9 8 8 8 7 6 5 4 3
15 14 14 13 13 12 13 13 13 12 10 9 8 6 6 6 4 4 6 6 8 9 12 11 13 14 14 11 13 13 14 11 11 11 12 12 12 9 8 7 5 5 4
18 17 15 13 13 14 13 13 13 12 10 9 7 6 4 4 6 7 9 12 13 15 16 15 15 17 16 13 13 13 13 14 14 11 11 11 12 12 12 10 8 6 6
18 18 15 12 13 14 14 14 13 12 10 8 6 4 5 7 10 12 13 15 16 18 17 16 15 16 15 13 14 14 15 14 14 13 11 10 9 11 14 14 12 9 8
20 20 17 13 14 14 15 15 13 11 9 6 4 7 9 12 13 16 17 18 18 17 17 18 17 17 13 13 13 17 14 16 15 14 12 11 10 10 11 15 15 13 11
20 23 19 16 16 15 14 15 14 12 9 7 7 9 13 17 15 15 11 10 13 16 11 13 12 14 13 13 14 15 14 16 17 14 13 12 11 11 12 12 12 19 17
29 27 26 23 20 17 17 17 16 13 11 9 10 11 9 12 3 4 19 14 16 10 9 9 10 12 17 15 12 14 13 15 16 16 15 16 14 13 14 15 16 14 19
32 31 25 25 25 24 20 19 19 16 13 11 9 9 5 4 18 12 16 18 11 12 13 13 13 13 11 13 14 15 17 19 18 16 15 14 14 15 14 14 13 13 11
29 27 24 22 23 22 20 19 18 16 13 10 11 15 14 16 10 12 15 17 17 17 14 14 15 12 13 16 18 19 19 20 18 14 14 16 17 19 20 19 16 13 14
17 19 22 24 19 15 20 16 11 11 9 10 10 12 15 18 17 18 21 21 18 18 19 17 15 17 21 20 20 19 17 17 15 15 15 18 18 21 23 18 16 19 21
20 20 19 17 14 16 20 8 9 13 15 21 22 27 19 19 18 17 19 24 24 24 20 19 18 16 16 20 19 17 18 18 15 16 18 18 19 21 22 19 17 16 18
20 21 17 16 15 19 22 18 24 20 15 16 16 17 20 21 20 20 19 19 19 22 21 20 16 15 16 19 20 18 19 15 16 20 18 19 19 20 22 18 14 14 15
18 19 20 20 18 20 16 19 18 20 22 18 17 19 21 21 20 20 20 17 16 18 18 17 16 15 14 17 17 17 20 17 19 21 21 19 20 20 17 7 4 2 5
16 18 18 16 15 18 19 20 21 21 19 18 19 19 18 18 19 19 19 17 16 10 13 14 14 15 15 16 17 20 18 19 18 20 19 20 21 21 12 10 7 7 8
16 17 17 17 20 23 23 22 22 20 19 19 19 18 18 18 19 18 18 19 18 17 17 15 16 14 17 19 18 19 21 19 19 19 17 20 24 14 12 14 14 12 12
16 17 19 21 22 23 23 20 19 18 19 18 18 18 18 19 18 18 18 18 18 17 18 20 18 18 18 19 18 19 19 18 20 18 18 25 20 13 12 12 15 12 9
14 17 20 23 22 21 21 19 19 20 19 18 19 18 18 19 17 17 17 17 17 16 18 18 19 17 14 14 18 20 22 19 16 17 22 23 16 14 13 11 8 9 9
13 14 15 17 18 18 18 20 20 19 18 18 18 18 19 18 18 17 17 17 16 17 18 20 20 20 20 19 19 19 18 17 17 20 23 16 12 12 13 10 10 10 11
13 15 16 18 19 18 18 18 17 18 17 18 19 19 19 19 19 18 18 17 16 18 20 21 22 22 21 21 21 21 21 19 18 22 17 13 11 11 13 11 13 13 13
15 16 17 18 17 17 17 17 17 17 18 19 19 20 21 21 17 16 16 17 18 19 20 20 20 20 20 19 19 19 20 18 19 19 14 14 13 13 13 13 14 15 15
16 18 18 19 18 17 17 17 17 17 17 17 17 17 16 14 13 13 14 15 17 20 21 21 20 19 17 17 18 18 17 18 18 13 14 15 14 14 14 14 13 14 14
17 18 17 17 16 16 16 16 16 16 15 16 16 16 12 11 11 12 13 14 14 13 15 16 16 15 15 15 16 17 17 16 15 11 9 9 11 12 12 12 12 11 10
20 20 19 18 18 17 16 16 15 14 14 15 14 13 9 10 11 11 11 11 10 9 8 9 12 14 15 14 13 13 13 12 11 12 11 11 11 11 11 10 10 8 7
21 20 19 18 18 17 16 15 14 13 14 13 12 11 10 11 12 12 11 11 10 10 9 8 8 8 9 10 11 10 10 10 12 11 10 10 9 7 8 9 9 8 8
21 21 21 20 19 18 17 17 16 14 13 13 13 13 13 13 13 13 11 10 10 10 9 9 7 7 7 8 8 9 9 9 10 8 10 9 7 5 4 8 9 8 9

GFSMA_850_spd_084.txt.gz
Wind_Speed
21 21 20 19 18 17 16 15 14 13 12 11 9 8 7 6 6 6 5 6 4 4 5 6 7 10 12 9 8 9 8 8 7 8 8 8 7 6 6 6 6 5 4
20 20 19 19 18 17 17 16 15 14 13 12 9 9 9 8 8 7 6 6 7 6 7 9 9 10 11 12 15 13 9 9 10 9 9 9 10 9 7 7 6 7 6
17 17 17 17 16 16 16 17 17 15 14 13 11 9 9 7 8 7 7 7 9 10 11 12 13 13 13 13 12 15 13 11 10 11 10 10 12 12 10 10 8 7 7
17 17 16 16 16 16 16 16 15 15 14 11 9 8 8 8 7 8 8 9 9 12 13 15 16 18 17 15 14 14 14 12 10 12 12 11 11 11 12 12 11 11 8
20 19 18 17 17 17 17 16 16 15 12 11 11 9 8 7 8 9 9 11 11 15 15 17 17 17 16 15 15 14 16 15 13 12 12 12 11 10 11 14 14 13 12
20 20 20 19 18 19 18 19 18 17 14 11 10 8 8 8 9 10 10 11 11 14 13 17 15 13 15 15 14 13 16 17 13 14 14 12 12 11 11 12 13 16 15
20 21 22 22 21 19 18 19 18 17 17 14 10 10 9 9 11 11 8 7 9 14 12 12 10 10 11 13 15 16 17 16 15 13 13 13 13 12 12 12 12 13 17
16 20 26 26 24 23 20 21 21 18 16 17 13 10 8 6 5 6 9 8 10 11 11 11 13 13 12 14 17 16 15 14 12 17 15 14 14 14 14 14 16 17 16
21 22 27 31 31 29 27 23 22 21 21 19 17 10 5 6 5 8 7 10 11 9 13 15 13 13 14 13 12 13 15 15 15 17 18 15 15 14 13 15 16 18 18
17 21 24 26 25 30 32 30 24 24 22 20 19 15 13 9 7 7 8 10 12 12 13 14 14 15 13 14 15 16 18 18 19 19 17 16 16 15 16 17 21 20 17
14 14 18 17 20 20 22 25 22 26 24 18 13 11 11 13 14 14 12 10 13 13 14 18 18 15 15 18 19 20 19 19 18 18 18 18 20 17 18 19 20 18 19
13 18 20 20 22 24 25 25 22 19 15 13 11 18 18 23 21 17 14 10 11 14 17 16 16 16 16 17 19 20 20 17 18 17 18 17 20 20 19 20 20 18 17
20 20 21 21 22 20 19 17 14 14 16 16 25 26 24 21 19 17 16 16 17 17 13 15 14 11 13 15 18 18 17 18 19 17 17 20 18 17 20 19 18 15 14
26 24 21 22 21 22 18 19 21 24 26 24 21 20 20 18 20 17 18 15 13 14 16 14 16 12 13 13 14 17 18 18 19 19 18 21 21 21 19 18 8 6 6
24 24 23 25 25 27 24 23 22 21 21 24 22 20 19 19 19 19 19 18 16 8 11 10 9 11 12 14 15 15 18 21 18 17 20 19 20 20 20 15 10 11 12
21 22 22 23 26 26 23 21 22 23 24 24 22 20 19 21 20 21 20 19 18 15 14 11 13 15 16 15 18 18 17 19 19 21 19 19 17 18 20 16 16 16 16
17 20 22 23 23 22 23 24 24 24 23 22 21 20 21 20 20 20 20 20 21 20 20 21 21 17 16 17 17 18 18 19 20 18 18 18 17 21 18 15 13 14 17
16 17 20 23 24 24 24 25 25 24 23 22 20 21 21 19 20 21 21 20 21 19 19 20 20 18 16 16 16 17 18 20 18 19 17 16 20 21 17 13 11 10 13
17 17 19 22 25 27 27 26 25 24 23 22 21 20 21 21 21 21 22 22 21 20 18 20 22 19 18 17 18 19 18 18 17 16 16 19 22 18 15 11 10 9 9
15 16 18 20 23 24 25 24 23 23 22 22 21 21 22 22 21 21 22 22 23 21 19 20 22 21 19 19 20 20 21 21 18 17 18 19 18 14 12 10 11 12 12
16 16 16 18 20 21 22 23 22 21 21 21 20 21 21 22 24 24 24 23 20 19 19 21 22 21 20 19 19 18 18 18 18 17 18 20 16 14 13 12 13 13 14
19 19 20 21 22 23 23 22 21 20 21 21 20 20 20 21 21 21 20 18 19 20 20 21 20 22 21 20 19 18 17 16 16 18 19 18 15 16 15 14 14 14 14
20 22 23 24 24 24 23 22 21 20 21 20 19 18 17 17 16 16 14 15 15 16 17 17 20 19 18 16 15 16 16 16 18 18 12 11 11 13 14 14 13 12 12
22 23 23 24 24 23 22 21 20 19 20 18 17 16 16 13 13 13 13 13 13 12 11 11 14 15 15 14 14 14 14 16 16 15 13 12 11 12 12 12 11 10 8
24 23 24 24 24 23 22 21 21 19 17 17 15 15 14 12 11 12 13 12 12 12 11 10 9 9 11 12 12 12 13 13 13 12 12 12 10 9 9 10 9 8 7
25 25 24 24 24 23 22 22 21 18 17 16 16 15 15 13 13 14 14 15 14 13 12 10 8 8 9 10 11 12 12 12 12 9 10 12 9 6 5 9 9 8 8

GFSMA_850_spd_087.txt.gz
Wind_Speed
21 17 15 15 14 14 13 12 12 11 10 9 8 8 7 6 5 6 6 7 7 6 6 7 7 8 8 9 8 11 9 7 7 7 8 8 8 8 7 7 7 7 6
21 20 17 17 15 15 15 13 11 10 10 10 9 8 7 8 7 7 5 8 9 9 8 9 9 10 10 12 12 14 10 9 8 7 9 9 10 10 10 9 9 8 8
18 17 17 17 16 15 13 13 12 11 10 10 10 10 9 8 8 6 7 6 9 12 11 12 14 13 13 12 12 15 13 11 10 8 9 9 10 11 11 10 10 9 9
16 17 14 13 13 13 15 15 15 14 13 11 10 10 10 9 9 8 8 8 8 9 12 13 16 15 16 16 14 14 16 12 9 11 10 11 11 10 11 12 12 11 10
19 17 17 16 13 15 14 14 13 13 13 12 12 11 11 9 9 8 8 8 10 13 11 12 17 15 16 16 14 14 17 15 13 11 10 11 12 11 11 12 13 13 12
23 19 17 16 13 15 14 14 14 14 13 12 12 12 11 11 10 10 9 9 10 10 9 11 12 10 13 12 14 13 15 13 15 13 11 11 11 12 12 11 11 12 14
18 18 18 16 16 17 16 16 15 16 16 15 14 14 14 12 12 11 10 9 7 7 10 8 8 8 7 12 12 12 14 14 15 13 12 12 12 12 13 13 12 12 12
16 17 18 17 17 17 19 18 19 19 19 19 20 12 11 12 11 11 10 7 6 9 7 9 11 13 11 12 15 13 14 15 16 13 12 14 14 14 13 13 13 13 14
15 15 17 18 22 24 27 26 22 24 23 22 24 12 8 7 11 7 10 6 6 7 6 11 11 12 12 15 14 12 13 14 15 16 16 18 18 16 14 14 15 15 18
12 15 18 19 20 25 25 26 29 26 25 26 23 22 14 7 6 5 9 10 10 9 9 10 11 14 14 15 13 14 14 15 15 17 16 18 17 15 15 16 16 16 18
17 20 16 18 20 17 19 22 21 26 27 27 24 24 21 13 7 8 11 13 13 11 11 11 11 12 14 13 15 18 16 16 17 20 14 17 17 20 18 19 19 18 19
20 23 23 18 17 23 21 22 18 16 21 25 26 25 14 12 18 20 22 19 13 13 16 16 14 13 15 15 17 17 16 17 18 17 17 20 20 18 19 18 19 21 17
22 16 22 17 16 19 20 23 23 27 25 21 26 14 14 21 19 21 21 21 18 16 15 13 14 12 12 12 16 13 15 15 15 15 18 19 16 17 18 19 19 18 14
26 22 22 19 18 23 20 23 22 23 21 20 24 21 18 19 19 20 22 18 14 14 14 13 16 14 13 13 11 11 12 16 17 15 19 19 18 18 20 17 17 13 10
31 27 30 26 23 22 22 21 23 24 26 28 26 23 19 19 19 20 19 19 18 14 9 8 11 15 14 11 12 13 14 14 16 17 19 17 16 19 19 16 17 15 13
29 27 30 29 32 30 28 29 29 29 31 29 28 25 23 21 20 19 19 20 19 19 14 13 16 18 15 15 14 17 17 16 16 16 16 18 18 18 18 17 19 18 17
24 23 26 26 27 29 31 32 32 30 27 27 26 25 22 21 21 21 21 22 21 20 19 19 22 22 20 18 15 17 16 15 16 16 18 18 18 17 16 20 19 17 15
21 21 22 23 24 27 29 30 29 27 27 27 25 24 22 22 21 22 22 22 22 21 20 18 21 18 19 16 17 16 16 16 16 17 17 17 16 15 17 21 16 12 12
18 19 20 22 23 26 28 27 27 28 28 26 26 25 24 23 23 24 23 23 22 21 20 20 19 19 17 17 17 17 19 19 20 17 17 15 15 17 20 17 10 10 9
16 18 19 21 22 26 27 29 29 28 29 27 27 26 25 24 23 23 24 23 20 19 19 20 18 21 19 19 18 19 19 20 20 19 17 17 17 18 19 13 9 10 11
15 16 17 19 20 23 26 29 30 29 27 26 26 24 25 24 23 24 24 22 22 22 21 20 19 21 21 21 20 18 17 17 18 17 16 16 17 18 16 13 12 12 12
17 17 16 18 18 20 22 22 22 24 24 25 24 24 24 24 24 24 24 25 25 22 22 21 20 22 21 20 19 19 19 17 16 16 16 16 17 16 15 14 13 13 12
20 20 20 20 20 22 22 23 24 25 24 24 23 23 23 21 21 21 22 21 19 17 17 20 20 22 21 20 17 17 15 14 16 15 14 13 13 13 13 13 13 11 10
22 23 22 23 23 24 22 23 24 25 25 24 23 23 21 21 20 20 17 17 16 15 16 19 17 15 19 15 15 14 12 14 15 15 15 14 12 12 11 11 11 9 8
22 25 24 24 25 26 24 24 25 25 23 22 22 23 22 21 18 17 15 13 14 16 14 13 12 12 12 13 14 14 16 13 13 12 11 12 10 10 9 9 8 7 6
22 24 27 26 25 26 26 26 26 25 24 23 23 23 21 20 17 16 14 15 15 16 14 12 11 11 12 11 11 13 13 12 13 9 9 11 9 7 4 8 7 7 6

GFSMA_850_spd_090.txt.gz
Wind_Speed
22 23 20 22 21 19 17 13 12 8 9 11 10 8 9 6 2 7 8 8 7 6 5 5 6 6 6 9 9 9 9 7 8 8 9 9 9 9 9 8 7 7 7
26 24 17 18 17 15 15 15 15 15 12 8 8 10 9 7 9 10 11 8 7 7 9 8 8 8 7 9 10 12 10 9 8 8 8 9 10 10 10 10 9 8 8
23 25 23 22 21 21 19 16 11 9 13 13 12 8 9 11 8 10 10 8 8 9 8 9 10 10 11 10 10 12 13 11 10 8 8 9 10 11 11 11 11 10 10
21 25 25 23 21 18 16 15 16 17 17 14 15 14 11 11 13 9 9 8 8 9 10 11 11 13 14 12 10 10 14 12 10 9 8 8 10 11 12 12 12 12 12
20 22 21 17 15 14 15 16 16 15 15 15 14 11 11 12 10 11 13 10 8 12 15 17 14 13 12 10 11 11 13 12 10 10 10 9 10 11 12 11 11 12 12
21 20 20 18 16 14 16 15 14 13 14 13 14 14 16 15 13 12 10 9 11 16 17 14 12 9 8 10 8 10 12 12 12 11 11 9 11 12 13 12 11 10 10
20 19 17 16 16 16 16 15 15 15 16 16 14 15 13 15 15 12 11 15 17 15 11 10 8 8 9 13 9 9 10 10 14 13 12 11 10 13 13 13 13 11 12
21 21 20 17 17 18 18 16 16 16 16 16 20 17 17 20 20 17 17 16 14 13 12 10 9 10 11 14 13 12 12 12 13 12 14 13 12 15 15 14 13 13 13
17 16 17 16 16 19 21 22 22 21 20 19 22 21 9 10 18 21 18 17 14 10 8 12 13 11 10 13 15 14 12 11 13 12 14 13 16 15 15 14 14 15 16
17 15 14 14 17 19 22 26 27 24 22 22 23 28 21 10 14 12 18 15 12 9 11 15 15 14 13 15 14 12 11 12 13 13 12 14 15 14 13 14 15 17 18
18 5 4 11 16 21 24 24 18 19 24 26 27 26 34 26 14 14 15 9 7 13 14 15 15 17 18 14 14 13 13 14 14 13 13 18 18 16 16 16 15 18 16
14 14 17 18 19 24 28 24 14 14 13 13 20 20 31 35 24 18 13 18 22 17 15 17 16 16 16 15 14 14 13 13 14 14 15 20 17 19 18 16 17 16 17
30 20 26 23 23 24 21 24 23 17 21 14 19 22 24 27 15 16 18 20 18 16 18 16 16 15 15 16 15 12 12 13 12 14 13 16 18 17 16 16 17 15 16
30 23 25 24 20 17 18 24 19 19 21 14 28 20 20 15 15 22 22 19 19 19 17 14 16 18 17 14 12 10 10 11 13 15 18 17 17 20 16 16 17 17 15
22 25 26 24 21 19 20 21 19 20 22 22 24 22 23 20 20 23 20 19 19 18 15 12 17 19 16 12 12 12 11 12 13 14 15 16 16 16 15 14 17 18 17
26 29 28 29 28 31 32 25 23 25 25 28 27 28 28 25 22 20 20 20 20 19 19 13 18 20 18 17 16 16 14 15 15 15 14 14 15 16 14 15 16 18 18
23 25 26 29 30 33 36 34 33 31 30 31 29 30 32 26 23 22 23 21 20 20 22 23 21 21 22 22 19 16 16 14 11 12 14 14 15 16 16 15 17 18 17
20 23 25 26 27 29 30 32 32 31 31 32 31 29 30 27 25 24 22 22 20 19 22 22 22 21 21 20 18 16 17 14 12 13 15 15 15 15 14 13 18 19 14
18 20 22 23 25 26 27 27 31 31 33 33 28 26 27 27 26 24 23 22 21 20 20 19 21 21 21 18 19 17 15 15 16 17 18 16 15 14 15 15 19 14 10
15 17 20 22 23 24 26 29 31 32 29 29 28 28 28 28 25 23 22 22 22 23 22 22 21 20 20 20 19 16 16 17 18 18 18 17 16 16 18 17 18 11 10
16 16 18 21 22 23 22 26 27 28 28 29 29 28 27 26 24 23 23 24 22 23 22 20 20 20 22 19 17 17 17 17 16 16 16 15 15 16 17 18 13 11 12
17 18 19 20 20 21 21 24 26 27 27 27 27 27 26 26 24 23 22 25 25 26 24 24 24 25 22 19 17 18 17 17 17 17 15 16 14 15 17 15 12 12 12
20 21 21 22 21 21 21 21 22 23 23 23 23 24 25 24 24 23 24 25 26 27 24 22 23 22 21 18 17 17 17 16 16 14 12 13 13 14 11 11 12 12 11
19 21 24 23 23 23 21 22 23 25 25 26 25 25 25 24 24 23 23 23 23 20 20 19 19 18 20 17 17 16 15 16 16 15 14 13 16 12 9 10 11 10 9
19 19 21 24 26 24 23 23 24 28 28 27 26 25 25 24 24 24 22 19 18 20 18 18 17 16 15 15 15 14 17 17 16 16 15 14 13 9 8 9 9 8 8
21 20 22 22 23 26 25 25 25 27 28 28 28 27 26 26 25 23 21 17 19 19 15 14 14 15 14 14 16 14 15 15 14 12 13 13 12 7 4 9 9 8 7

GFSMA_850_spd_093.txt.gz
Wind_Speed
18 25 28 29 28 26 23 19 16 14 12 10 8 7 8 6 7 8 5 6 5 4 5 5 6 6 6 6 7 6 7 6 5 6 6 6 7 7 7 7 7 7 7
24 23 25 26 24 24 21 18 16 14 12 8 10 12 11 11 8 8 8 9 5 4 5 6 6 7 8 8 9 9 9 8 7 7 7 6 6 6 7 7 7 7 7
26 24 23 23 25 23 20 20 15 14 12 11 11 11 10 11 11 13 13 11 5 6 6 5 7 8 9 9 10 11 11 11 10 8 7 7 5 6 8 8 8 8 8
28 25 25 24 25 24 21 20 18 17 17 15 15 13 14 13 13 12 8 8 9 7 9 10 12 15 13 12 11 12 12 13 11 9 8 7 8 8 9 9 10 10 10
31 28 28 25 25 25 23 21 20 18 18 18 17 16 16 16 14 15 12 12 12 10 13 14 16 15 12 10 9 12 13 13 12 11 9 9 8 8 9 11 10 9 9
29 30 32 30 26 25 23 20 19 18 17 16 16 17 15 16 14 12 12 12 13 15 15 16 17 13 10 9 8 8 12 13 14 12 11 9 9 8 10 12 11 11 9
29 27 29 28 26 24 21 19 16 17 16 14 13 13 15 17 17 16 15 16 16 17 18 19 14 11 10 10 9 9 10 12 12 12 11 10 10 9 10 14 14 12 12
33 30 29 28 26 25 22 19 18 17 17 16 18 16 14 18 20 20 20 21 22 22 21 15 13 10 11 12 11 11 11 11 12 13 13 12 12 10 14 14 14 13 13
34 32 30 29 27 26 24 20 19 20 19 17 18 18 8 11 16 25 23 25 25 23 18 15 12 12 13 13 13 13 12 11 12 13 14 14 13 12 15 15 13 13 15
33 27 28 30 26 24 25 22 22 23 22 22 22 24 25 9 5 9 24 25 22 18 12 12 15 16 15 14 15 14 12 12 13 12 13 14 13 12 16 15 14 16 18
35 40 30 26 22 22 20 22 18 22 24 27 26 24 24 20 24 15 16 28 22 15 11 13 17 16 18 16 15 13 13 13 14 14 14 15 17 15 19 17 16 15 14
25 26 28 25 15 13 16 28 20 23 27 27 24 29 24 23 32 35 25 21 21 17 19 17 19 18 17 16 14 14 12 13 14 14 14 14 18 18 16 15 14 13 14
22 24 18 14 18 18 23 25 26 31 26 25 25 25 21 18 18 35 37 25 18 18 18 17 19 19 19 15 14 13 13 12 13 14 12 19 16 16 19 18 17 16 16
18 20 26 23 19 20 24 24 24 27 28 27 25 23 21 14 10 27 29 24 19 18 19 21 21 22 19 16 14 13 13 12 12 14 17 18 18 19 18 19 17 15 15
14 13 27 26 28 22 22 25 22 19 25 25 27 26 20 16 19 17 19 23 21 22 21 21 21 21 20 17 15 13 13 14 14 15 16 17 19 19 17 17 17 16 16
23 24 24 27 27 25 24 27 25 23 18 17 24 23 21 18 25 21 25 28 26 24 23 18 20 22 19 19 16 15 16 16 16 17 16 16 18 18 18 17 15 15 15
26 27 27 23 26 29 27 31 33 32 27 23 23 30 28 26 26 25 25 26 27 26 26 24 22 21 22 21 20 20 18 17 16 13 12 14 15 16 17 17 18 18 18
15 17 19 21 21 24 29 33 33 32 28 28 33 30 31 28 28 30 26 28 28 26 25 24 25 24 24 23 23 21 19 16 15 13 12 13 16 16 16 15 15 16 18
16 17 19 19 20 22 23 22 23 25 26 26 30 29 33 31 32 29 29 28 27 25 24 24 24 25 27 23 22 21 18 17 15 14 13 14 16 16 16 16 16 17 18
16 18 18 18 19 20 21 22 23 24 27 28 29 31 34 33 30 28 30 29 27 25 25 24 23 23 23 23 22 20 20 17 16 16 16 17 17 17 18 19 17 18 15
16 17 18 18 19 18 19 20 21 24 25 28 30 30 27 28 28 29 28 28 28 27 26 24 23 24 25 23 21 19 18 16 17 17 17 17 17 17 18 17 17 18 15
20 20 19 19 19 19 18 18 20 22 25 26 27 27 26 28 28 28 28 28 28 27 26 26 26 24 23 21 20 18 19 18 18 16 18 18 17 17 18 17 18 16 15
21 22 22 21 20 20 19 20 20 21 23 25 26 26 28 28 28 28 28 28 28 29 28 26 26 25 24 19 19 20 19 18 18 17 15 13 15 14 17 18 15 12 12
22 22 22 23 24 22 21 21 21 22 22 22 21 24 26 26 27 27 27 28 27 27 26 24 23 21 20 18 19 19 18 18 18 17 15 15 15 15 16 16 14 11 9
23 21 20 22 23 24 23 23 23 23 23 24 23 24 25 25 26 27 27 28 28 27 26 25 22 21 19 17 18 20 20 21 19 18 18 17 17 12 13 14 14 12 9
24 24 21 18 20 24 24 22 24 26 25 25 26 28 28 27 27 29 29 27 27 26 26 22 21 19 17 17 19 18 18 20 19 14 16 17 14 11 7 14 14 10 9

GFSMA_850_spd_096.txt.gz
Wind_Speed
35 31 29 29 30 29 29 26 23 20 18 17 15 13 12 10 8 9 7 4 6 5 5 5 5 5 4 4 5 6 6 6 6 7 7 7 7 7 7 7 7 7 7
29 26 29 30 28 30 29 26 23 20 19 17 15 15 13 11 9 10 9 7 7 7 5 5 6 6 7 7 7 8 7 7 7 8 8 8 8 8 7 8 9 8 8
25 17 27 31 30 26 27 25 23 20 19 18 16 14 14 13 13 14 11 9 10 8 7 6 5 7 8 9 10 10 11 11 9 9 9 8 8 7 8 8 9 10 10
29 29 25 26 30 29 28 27 25 24 21 20 17 16 16 15 15 14 12 11 9 8 8 9 10 11 13 13 13 13 13 13 12 11 11 9 8 8 7 9 10 11 11
29 31 31 27 29 31 31 30 27 25 23 21 19 17 17 17 17 15 16 14 14 14 12 13 13 14 14 13 12 11 12 13 12 12 11 10 9 8 8 9 11 12 11
35 33 34 31 28 31 32 29 27 25 25 22 20 19 19 19 20 18 16 18 15 16 16 15 15 16 16 13 11 10 10 12 13 13 12 12 10 10 10 10 12 14 14
33 35 33 31 33 34 33 30 28 28 27 23 22 21 22 20 21 20 16 15 18 17 20 18 18 18 16 13 11 11 10 10 11 12 13 13 11 11 14 11 15 15 14
38 37 36 36 35 35 34 33 31 29 26 24 24 19 14 20 23 22 20 21 22 19 21 22 21 20 16 14 13 12 11 10 10 13 14 13 14 13 14 14 16 16 14
39 36 35 36 40 38 36 34 32 28 28 26 25 16 9 12 16 22 23 25 26 23 24 25 23 18 15 14 14 12 12 11 10 11 13 15 15 15 14 12 15 17 17
38 38 36 36 38 39 37 35 33 31 28 29 29 27 22 10 12 9 26 27 25 26 28 26 21 16 15 15 14 13 12 12 10 11 13 13 14 15 14 13 14 20 19
36 38 38 38 39 38 35 35 34 34 32 30 29 25 29 31 20 15 14 23 27 24 23 27 20 16 14 14 15 14 13 12 12 13 15 14 17 16 16 17 16 19 17
31 36 40 38 33 32 32 32 33 32 27 24 28 29 31 30 31 32 28 25 29 27 28 17 18 18 19 17 16 15 14 13 13 14 15 17 21 20 20 16 17 19 18
30 31 34 37 31 34 33 29 27 28 29 28 29 32 41 35 38 37 35 36 30 34 30 30 21 22 20 19 17 16 14 13 12 13 13 18 21 19 17 18 19 20 20
20 31 22 26 31 32 29 29 31 28 28 32 33 40 38 35 36 38 35 40 32 28 30 22 20 21 21 20 18 15 13 12 12 13 16 20 18 18 20 20 21 21 21
18 17 15 19 25 30 29 25 29 29 29 29 33 34 33 33 33 30 33 37 36 28 22 20 20 23 22 20 17 16 14 13 13 16 16 18 21 20 19 20 21 21 21
7 12 14 20 20 26 30 24 25 26 24 24 26 31 33 35 32 27 20 27 32 24 15 18 24 24 20 19 19 18 16 16 16 18 19 19 20 19 21 20 20 20 19
16 16 17 21 19 25 28 26 28 26 29 30 30 27 24 24 20 20 22 24 25 24 22 22 22 21 20 21 20 19 19 19 19 19 20 20 18 16 17 18 18 20 20
11 14 16 16 16 17 21 29 34 30 31 32 33 33 27 25 27 26 34 29 28 27 28 27 26 23 24 23 22 21 23 21 18 18 16 15 14 16 18 18 18 17 17
11 12 14 15 16 16 19 23 26 29 33 32 29 28 31 35 37 35 35 34 33 29 29 29 27 27 27 26 26 25 25 19 18 18 15 14 15 16 17 17 18 17 18
14 14 15 15 14 15 19 21 21 24 25 29 27 28 28 29 31 35 42 37 32 32 30 29 28 28 28 27 26 27 24 21 19 17 16 16 16 17 18 18 18 19 19
18 19 19 18 17 18 18 20 22 23 23 26 26 28 28 29 30 34 33 38 33 32 31 31 30 30 29 31 31 25 23 20 20 19 17 16 16 17 17 17 17 19 20
19 19 20 21 20 20 20 20 21 22 24 25 25 27 29 30 31 31 29 27 31 33 34 32 31 30 31 29 27 24 23 21 22 19 19 17 17 17 18 18 18 19 21
22 21 21 23 21 22 22 22 21 22 23 23 25 26 27 28 27 28 30 31 31 32 29 28 28 28 32 28 24 25 23 22 20 18 15 15 16 17 18 19 18 19 17
27 26 24 22 23 24 24 23 21 22 24 23 24 25 26 26 27 29 29 30 30 29 30 30 29 26 27 26 26 22 19 19 21 19 19 19 17 16 18 18 19 17 15
28 29 29 27 26 25 20 19 20 23 24 24 24 25 26 26 27 28 28 29 29 30 29 28 28 27 27 26 24 24 27 25 24 21 19 19 17 17 18 19 18 17 14
28 28 28 27 27 24 19 17 18 23 26 25 24 25 26 26 25 27 28 28 29 29 30 29 29 29 26 24 23 22 21 24 22 18 20 21 19 13 11 19 18 15 12

GFSMA_850_spd_099.txt.gz
Wind_Speed
23 27 28 27 26 29 30 29 26 24 22 20 19 18 16 14 12 11 10 8 6 6 6 6 6 6 5 6 6 6 7 7 7 7 7 7 7 8 7 7 8 8 9
20 23 33 33 31 29 31 29 26 24 23 21 20 19 17 17 14 12 12 11 8 8 7 7 7 6 7 7 8 8 8 9 9 9 10 9 8 8 8 8 8 8 10
25 24 20 33 30 28 28 28 27 25 24 23 22 20 19 17 17 14 13 13 12 10 9 8 8 5 7 9 9 10 11 12 12 11 10 10 10 9 9 9 9 9 10
28 28 26 21 29 27 27 27 29 28 27 25 24 22 21 20 18 17 17 16 14 12 10 9 9 7 9 11 12 13 13 14 13 13 12 11 11 10 9 8 9 11 11
29 28 27 23 19 30 25 30 32 31 29 27 25 22 20 20 19 18 19 18 15 15 14 12 13 12 12 14 14 14 13 13 13 13 13 11 12 11 10 9 10 12 13
28 31 30 27 21 29 34 34 34 32 31 28 25 23 22 22 21 21 22 19 19 19 21 17 16 15 13 15 16 14 13 11 11 13 13 13 12 12 10 10 11 13 14
29 34 33 35 33 37 36 34 36 35 34 28 25 24 25 24 24 25 24 23 22 23 20 19 18 18 16 16 16 15 14 12 11 12 15 14 13 14 12 11 13 15 15
34 31 34 35 32 36 38 35 37 37 34 30 29 26 22 27 29 27 25 25 23 21 22 21 21 21 21 18 17 17 15 12 11 13 14 13 13 14 13 13 13 14 15
39 35 36 38 38 39 36 38 40 39 36 34 34 24 11 13 16 28 28 26 26 24 24 23 24 24 24 20 18 16 14 14 13 11 13 13 14 15 14 14 13 13 14
33 38 40 44 41 40 39 40 40 38 37 39 36 35 27 12 11 11 25 29 30 29 27 28 28 27 24 22 20 16 15 14 14 11 13 13 14 14 13 13 13 15 15
29 30 36 46 43 40 40 39 39 40 43 43 38 39 39 32 20 18 20 20 31 29 33 31 32 31 26 20 20 15 15 13 12 13 13 12 13 16 16 16 17 17 14
33 32 34 36 36 37 38 41 42 42 44 43 40 40 41 37 36 31 24 19 23 30 31 37 38 36 31 28 19 17 17 14 12 14 14 17 17 20 17 19 21 16 16
31 31 32 26 42 41 38 39 38 38 38 35 38 37 35 33 31 32 30 32 36 41 37 40 40 36 30 27 21 19 18 14 13 13 14 17 21 20 18 18 17 18 18
28 30 22 27 33 40 39 41 41 37 35 31 33 32 32 31 33 37 38 39 37 34 40 41 41 36 32 25 22 19 17 15 14 13 16 18 20 21 22 20 20 18 17
7 9 13 17 22 19 37 29 35 38 41 38 37 32 32 34 37 40 42 46 43 29 36 39 36 41 31 27 22 19 17 16 15 14 16 17 20 20 19 22 19 16 20
7 8 9 11 12 12 18 21 24 31 34 34 37 40 38 38 39 43 44 38 40 39 27 40 37 30 27 23 22 20 18 17 16 16 17 18 19 20 20 19 18 19 19
12 10 11 16 17 17 14 16 23 30 26 30 33 30 30 30 31 32 33 42 29 30 22 23 25 21 20 22 20 20 19 19 17 17 18 19 20 22 20 17 15 16 20
10 10 10 12 15 19 18 17 24 29 27 29 31 30 29 28 29 29 26 22 22 21 22 24 22 24 23 23 22 21 20 21 19 21 20 20 18 18 18 15 17 19 20
11 11 12 12 13 15 17 20 21 18 22 28 34 34 34 32 34 34 29 27 28 30 31 33 31 28 28 25 25 24 24 24 23 22 19 20 18 16 17 17 17 19 19
16 16 15 15 15 16 17 19 21 24 28 30 27 25 29 30 32 31 34 38 37 36 40 42 37 34 31 28 27 27 27 26 25 21 21 18 16 17 16 17 15 19 19
19 20 20 20 20 19 19 21 22 23 24 27 29 31 29 28 31 30 32 34 40 44 41 38 36 34 32 31 31 31 27 22 23 23 21 19 18 18 15 17 16 18 18
20 20 20 21 21 21 23 23 23 25 26 27 26 26 30 33 32 31 34 33 33 31 33 35 36 36 36 33 31 26 22 23 26 24 22 19 19 17 17 17 16 18 18
25 24 23 23 22 22 23 25 28 29 28 27 28 27 28 30 31 33 32 31 34 35 38 38 47 42 36 29 24 23 25 25 26 23 16 15 18 17 17 17 18 18 17
26 28 29 27 26 25 25 25 26 26 28 30 28 28 28 29 30 29 29 30 31 31 31 32 31 29 26 26 21 25 23 23 24 23 22 21 18 17 17 18 18 17 17
28 27 27 27 28 28 26 24 24 25 26 27 28 28 27 29 28 26 26 27 28 29 29 30 28 29 25 25 31 30 30 28 27 27 25 21 19 18 18 19 19 17 15
30 28 28 27 27 28 25 25 23 21 22 25 26 28 27 27 27 27 29 27 31 31 31 30 29 29 28 29 29 30 29 31 32 27 25 24 23 16 13 21 20 18 15

GFSMA_850_spd_102.txt.gz
Wind_Speed
19 22 26 28 27 24 24 25 25 25 24 23 22 20 18 16 14 12 12 11 9 8 7 8 8 7 7 6 6 5 6 6 6 6 6 7 7 7 7 7 8 9 10
13 18 25 29 29 27 24 28 27 27 25 24 23 22 20 18 16 15 14 14 12 10 9 9 9 9 8 8 7 7 7 8 9 9 8 8 8 7 7 8 9 9 10
19 22 23 28 28 30 28 30 30 30 26 25 25 24 21 20 19 18 16 16 15 13 11 11 10 9 8 9 8 9 9 12 12 12 11 11 8 9 8 9 8 9 11
24 25 28 29 30 33 33 30 32 31 28 27 27 26 24 22 22 21 19 18 17 16 14 13 11 11 10 11 11 12 14 13 14 13 12 10 11 9 9 9 8 9 10
28 28 29 30 27 27 37 31 31 28 29 29 29 27 27 25 24 23 23 22 20 18 17 15 13 14 14 14 15 16 16 14 12 13 14 12 11 12 11 9 8 10 11
25 24 26 30 31 29 31 32 37 29 31 30 30 29 27 26 24 25 25 22 22 21 19 19 18 17 16 15 17 17 17 15 12 10 13 13 12 12 11 10 10 9 11
24 21 25 28 30 28 26 26 28 26 30 35 33 32 30 29 28 28 27 26 26 24 23 22 21 21 19 17 17 18 16 15 14 11 12 14 13 13 12 12 11 10 12
24 25 26 29 31 30 29 30 37 37 33 35 36 32 29 31 32 33 31 31 29 26 26 24 22 22 21 20 18 19 18 16 15 13 12 14 13 13 12 12 12 12 12
24 29 30 35 32 31 37 40 38 40 40 37 44 35 15 18 24 34 37 35 31 30 27 25 24 23 23 23 20 21 18 18 15 13 12 13 13 14 14 13 12 11 13
23 27 31 34 42 39 38 40 43 44 43 44 45 42 36 20 13 15 25 33 33 32 30 27 28 25 25 26 26 22 20 18 15 13 12 12 12 14 14 12 12 13 15
23 26 32 37 37 40 44 43 40 43 42 43 44 42 41 42 34 20 15 21 29 32 33 33 28 27 30 29 29 26 21 20 16 16 14 14 14 13 15 14 13 15 17
32 31 31 33 39 39 38 45 46 42 44 46 45 47 42 42 44 36 28 25 25 25 33 33 27 25 30 35 32 29 25 25 19 18 17 18 19 19 23 16 15 18 20
22 23 27 33 35 39 37 39 40 35 42 43 42 44 41 42 43 42 43 37 30 27 28 34 36 37 38 40 36 32 27 24 19 17 18 18 23 24 21 20 18 18 17
14 22 28 33 30 30 32 31 34 37 38 39 40 39 40 40 38 40 41 33 29 32 36 40 40 42 41 41 40 35 30 23 19 17 18 22 21 21 20 22 20 18 20
8 8 8 10 11 24 27 27 36 43 39 36 35 32 32 33 32 32 33 33 31 28 33 42 44 44 42 43 42 37 30 24 20 22 21 19 20 20 20 20 19 21 18
9 9 10 10 11 7 7 14 19 35 39 40 52 45 38 39 38 38 41 38 38 40 42 37 39 44 43 46 43 35 26 20 21 21 20 20 18 18 20 20 19 18 18
17 19 16 13 13 14 15 15 12 14 20 28 38 46 49 57 48 45 41 41 38 36 37 33 38 41 42 43 42 30 24 22 22 21 20 19 18 18 19 18 19 17 16
12 10 12 13 13 14 14 16 18 16 20 23 25 26 30 40 44 40 40 42 31 31 36 37 32 33 31 35 29 24 22 22 22 23 23 22 20 19 19 18 20 17 17
13 14 13 13 13 14 15 15 17 21 22 15 18 30 30 33 35 33 29 31 30 30 26 24 21 22 26 26 27 27 27 27 30 27 26 22 20 18 19 19 18 18 17
17 16 17 17 17 17 17 18 20 21 22 24 27 31 27 21 32 28 31 31 28 31 30 30 29 28 28 30 33 34 34 35 32 29 25 21 22 21 18 18 18 16 16
21 21 21 21 20 20 20 20 22 24 25 26 26 28 29 31 34 27 26 27 30 33 36 38 37 37 39 40 40 39 39 35 30 29 25 25 23 21 18 21 20 18 17
22 22 22 23 22 22 23 23 25 27 27 28 30 29 28 30 31 31 34 31 31 33 33 37 35 48 42 32 39 46 41 34 34 33 29 24 23 22 19 21 17 18 17
28 28 28 29 28 25 24 25 26 27 28 29 29 31 33 29 29 32 35 34 35 30 32 31 34 38 40 43 43 37 38 37 34 25 16 17 22 21 19 20 19 18 18
27 28 27 27 27 26 26 26 26 26 27 28 28 28 30 32 30 28 32 35 36 34 34 34 34 35 35 37 41 37 31 29 26 25 23 20 19 19 20 20 20 20 19
32 32 30 29 28 28 28 28 28 28 29 29 27 28 25 27 29 29 33 33 34 35 31 31 31 31 28 28 30 30 29 31 32 32 26 22 20 20 20 21 21 20 19
32 31 31 30 29 28 27 27 27 28 29 29 29 26 27 23 24 26 31 32 34 33 29 28 27 26 24 26 26 30 30 36 32 31 28 26 25 20 17 23 23 22 20

GFSMA_850_spd_105.txt.gz
Wind_Speed
16 18 20 24 26 26 24 21 21 26 25 25 24 23 20 18 16 14 13 12 11 11 10 10 9 9 8 7 7 6 6 5 6 5 6 5 5 5 5 5 7 7 8
12 14 17 21 27 27 26 23 22 27 26 25 26 25 23 21 19 17 16 16 15 13 12 12 11 10 10 10 8 7 7 8 8 9 9 8 7 6 6 6 8 8 8
14 13 14 18 20 25 27 26 25 28 27 27 27 26 25 23 22 21 19 18 17 17 15 14 13 12 11 10 8 8 8 10 12 12 12 11 9 8 7 7 8 8 8
19 19 21 20 22 26 28 26 26 29 31 29 29 28 28 25 25 23 22 21 20 20 19 17 15 14 13 11 10 10 11 14 15 14 13 12 11 10 7 9 9 8 8
23 25 26 25 24 27 29 28 28 33 28 30 28 29 29 28 27 26 26 25 23 22 21 20 18 17 15 15 14 13 14 13 13 12 13 13 13 12 12 11 10 10 9
25 24 25 23 24 26 29 29 30 34 35 30 32 34 31 29 29 29 29 28 27 26 25 22 22 21 18 17 17 16 14 14 13 12 11 14 15 16 14 12 10 11 10
21 21 20 21 20 26 28 29 27 29 33 37 32 33 34 34 32 31 33 30 30 28 26 26 25 25 24 22 19 17 16 15 14 13 12 13 16 17 15 13 12 12 11
20 21 21 22 21 23 24 26 26 29 36 34 33 31 28 33 36 40 37 35 33 31 30 30 28 27 25 24 22 20 18 17 16 15 14 15 17 18 17 15 13 12 12
19 21 23 24 23 24 26 27 27 28 30 35 35 30 17 21 29 32 38 38 36 35 33 32 32 29 28 27 23 23 21 19 18 17 17 17 17 17 18 17 14 14 13
19 22 22 25 26 27 30 32 29 32 33 35 37 40 40 29 19 21 27 33 36 39 39 37 34 31 29 29 28 25 24 22 20 19 18 19 18 18 18 18 14 14 13
24 23 23 21 25 29 31 33 35 38 41 44 48 45 46 51 46 30 25 24 22 27 39 39 34 34 33 31 28 29 26 25 24 21 19 20 20 19 18 18 15 16 14
21 24 26 29 27 29 32 33 35 36 39 44 44 46 47 41 48 45 41 42 33 27 27 33 37 36 34 33 27 27 28 29 28 24 24 23 22 21 20 23 20 19 18
19 19 20 23 23 23 27 32 38 43 41 42 44 50 48 45 43 42 43 38 36 37 35 30 28 34 35 28 29 32 34 34 33 30 27 27 26 23 24 28 23 22 21
12 13 17 13 16 20 25 35 35 35 29 38 47 52 47 44 44 47 43 35 34 36 36 39 36 35 33 36 34 34 38 36 36 33 28 25 26 27 32 29 26 24 24
3 7 6 10 11 10 13 14 36 25 29 30 35 34 41 42 43 41 41 44 42 30 32 42 41 41 38 39 36 38 40 41 39 35 32 28 27 27 28 28 28 28 26
14 12 12 11 9 10 10 12 8 10 14 30 33 39 40 39 36 34 35 38 35 31 32 34 37 41 39 42 44 37 42 45 41 37 32 27 26 27 28 29 26 27 27
17 16 12 12 13 12 14 11 12 14 13 15 18 28 38 41 38 38 37 38 39 39 36 40 40 44 44 40 42 43 45 47 40 31 25 25 25 25 26 26 27 27 25
12 12 14 13 13 16 16 15 16 16 17 17 13 15 22 24 35 45 45 48 47 44 44 48 47 38 43 40 36 40 46 40 31 27 26 25 25 27 27 27 27 25 24
12 13 13 14 14 14 15 15 16 17 19 21 21 24 16 14 19 28 31 32 37 47 48 49 50 34 35 33 36 36 40 33 26 26 26 25 29 28 27 27 26 26 25
15 16 16 17 17 17 18 18 18 19 19 19 21 21 22 25 28 23 17 25 39 33 31 34 32 34 26 25 29 35 35 30 31 31 30 30 29 29 28 28 24 25 23
19 19 20 19 19 20 21 22 23 23 23 23 22 22 23 24 24 25 29 24 20 27 32 26 29 33 32 29 34 37 39 38 38 36 34 33 34 31 30 29 25 23 23
22 23 24 24 23 23 22 23 25 27 27 27 28 27 25 25 25 26 26 29 28 26 25 33 33 32 40 39 40 44 44 43 38 39 37 37 36 33 30 28 26 24 23
23 23 24 24 24 24 25 25 26 26 27 28 29 30 31 30 28 27 28 29 31 33 31 30 35 39 35 35 41 45 45 49 46 42 42 40 38 35 28 28 26 24 23
26 26 26 25 25 23 23 23 23 25 26 27 28 29 30 31 30 29 29 30 31 32 35 37 33 36 37 32 34 39 48 47 49 45 41 36 35 35 30 29 28 26 24
30 30 29 29 28 27 26 25 24 25 25 25 26 27 28 29 30 29 27 30 32 32 30 31 37 36 37 37 36 35 43 45 47 47 42 34 31 28 29 30 28 27 24
29 29 29 27 25 26 24 25 24 25 27 28 27 25 26 28 24 23 25 26 31 33 31 29 32 36 36 34 41 37 40 46 47 42 42 37 31 30 24 31 30 30 27

GFSMA_850_spd_108.txt.gz
Wind_Speed
16 16 19 21 20 22 22 21 17 15 20 25 25 22 19 18 15 13 13 15 14 14 13 13 13 13 12 10 9 9 8 7 7 7 6 6 6 6 6 6 7 8 7
16 17 17 20 20 22 25 25 22 21 20 21 22 25 24 23 21 17 17 15 17 16 16 15 15 15 13 12 11 10 9 9 9 10 10 10 9 8 8 8 8 9 9
16 15 14 16 15 18 22 26 27 26 21 24 22 19 20 20 22 22 22 21 20 19 19 18 17 16 16 15 14 13 11 11 12 13 13 13 12 11 10 10 10 10 10
19 17 16 17 18 18 20 25 27 28 23 26 27 27 28 23 23 19 20 23 23 22 21 22 20 19 18 17 15 13 12 14 14 16 17 17 15 14 13 12 12 11 12
25 22 21 21 18 20 23 25 27 28 27 26 33 34 29 27 26 23 21 22 24 25 24 24 23 22 21 20 18 17 16 16 16 16 16 17 18 17 15 15 14 13 14
23 26 26 24 23 24 25 25 29 30 29 27 28 31 37 33 26 23 23 21 21 24 27 27 26 26 25 24 21 20 19 19 17 16 16 15 17 18 18 18 16 15 16
19 34 29 24 24 23 22 24 27 29 29 28 32 39 40 41 40 33 29 28 28 25 23 29 30 30 29 27 25 23 21 21 19 17 17 16 17 19 20 19 18 17 17
25 27 23 22 21 19 20 23 25 28 28 23 26 22 24 33 41 43 38 34 34 34 36 35 34 32 31 31 29 28 25 22 21 19 19 18 19 19 20 20 20 18 19
21 20 20 22 22 20 19 22 25 24 21 21 26 24 12 19 25 32 39 39 37 39 40 43 39 35 34 34 32 29 29 27 25 22 20 20 20 21 21 22 21 19 20
16 17 18 20 21 21 22 23 24 25 26 29 30 30 36 24 12 21 30 27 35 38 41 41 43 39 36 35 33 33 31 28 28 25 22 21 21 22 22 20 21 20 19
17 18 20 21 21 21 21 23 26 29 32 35 37 39 37 40 41 38 25 22 28 30 33 38 38 38 40 36 36 34 31 28 29 27 25 25 24 23 23 23 22 21 20
14 15 18 21 22 25 25 27 29 31 32 34 35 42 43 39 44 43 42 43 34 30 30 32 35 33 35 39 39 37 34 31 32 29 28 26 27 27 26 26 24 23 23
10 15 19 17 17 19 23 26 27 28 31 34 36 41 48 42 47 42 43 43 40 42 39 38 38 37 29 33 36 34 35 28 32 31 30 29 32 31 29 28 27 29 25
10 14 13 17 13 14 19 23 25 29 33 35 36 39 46 43 46 50 46 42 35 34 33 32 31 31 35 33 30 31 30 31 33 35 37 37 35 35 32 31 31 28 30
2 3 4 6 8 9 13 13 15 12 15 31 38 35 39 39 50 54 52 47 36 28 32 30 30 31 34 35 32 34 40 43 34 37 40 41 39 39 37 36 37 36 33
7 6 7 8 9 9 10 13 12 15 12 14 14 18 32 31 39 38 41 41 43 44 42 41 36 32 33 32 35 41 46 43 40 44 44 47 45 43 39 36 34 36 35
9 10 9 10 11 12 14 14 15 14 15 14 17 19 22 18 22 43 42 38 39 41 39 39 40 39 36 37 35 37 40 43 43 44 47 51 45 41 37 32 33 35 33
9 12 11 12 11 13 14 14 15 18 17 19 19 20 22 15 16 19 28 37 43 36 30 32 33 39 42 44 44 40 41 43 41 42 51 48 43 40 33 35 35 32 30
12 13 14 15 15 16 17 17 17 17 18 19 21 21 22 22 23 21 15 17 22 36 36 48 48 44 46 47 44 42 48 42 40 45 50 43 36 31 35 34 31 31 30
15 16 16 18 19 19 20 20 21 22 21 21 20 20 20 21 23 25 25 27 27 19 21 29 34 38 36 31 35 34 34 34 35 40 37 35 33 34 34 35 32 30 29
17 18 19 18 19 19 20 22 23 23 24 24 24 24 23 22 22 23 26 27 26 26 28 19 33 33 38 34 34 34 30 29 38 37 37 35 36 37 38 35 33 30 28
18 19 20 21 21 21 20 20 21 22 23 24 26 26 27 26 26 25 25 24 26 27 28 31 24 30 36 35 33 34 32 33 36 41 40 40 40 40 39 37 34 31 27
21 21 21 21 21 20 20 21 22 23 24 25 26 27 28 26 27 28 28 28 27 25 27 30 34 33 28 36 36 38 41 39 43 44 47 46 43 42 40 37 35 31 28
22 22 22 21 21 20 18 17 17 18 20 21 22 24 25 26 25 23 25 28 28 28 27 28 31 32 33 29 35 38 35 38 46 50 48 51 50 47 44 41 36 35 30
22 22 22 22 21 21 19 19 19 17 16 17 17 17 19 21 22 27 26 25 26 26 27 30 31 33 34 33 31 37 41 42 46 53 52 50 51 51 49 43 39 37 32
22 23 23 23 23 22 21 20 21 18 18 18 18 17 18 18 21 24 25 26 30 29 29 32 32 34 34 34 34 36 43 45 46 42 51 49 49 50 40 43 38 35 33

GFSMA_850_spd_111.txt.gz
Wind_Speed
15 16 17 18 20 20 22 23 22 17 17 18 20 19 17 16 14 13 13 16 16 15 14 14 14 14 13 12 11 10 10 9 9 8 8 7 7 7 8 8 8 9 9
20 18 18 22 22 22 21 20 23 24 20 19 20 20 18 19 17 16 15 15 17 18 17 16 16 15 15 14 13 12 11 11 10 10 10 10 10 11 11 10 10 10 11
19 16 17 17 17 19 18 21 23 23 23 25 21 17 19 20 20 18 18 17 17 18 19 19 18 18 17 18 17 16 14 13 14 14 13 13 14 14 14 13 12 12 12
22 18 14 14 14 13 15 19 22 27 29 28 21 27 27 26 24 20 19 20 20 20 20 21 20 20 19 19 18 18 18 16 15 15 15 16 17 18 17 16 15 14 13
21 20 19 14 14 14 16 18 20 22 24 25 27 26 28 34 32 28 26 23 24 25 22 21 22 21 23 22 21 20 20 20 18 16 16 18 18 18 19 18 18 17 15
19 21 23 16 17 16 21 24 23 25 25 26 26 28 28 29 31 32 27 27 26 24 25 26 25 23 23 24 24 23 22 21 20 18 18 19 19 18 19 19 20 19 18
22 19 17 11 14 29 29 24 21 22 25 27 24 25 26 27 32 39 39 32 28 26 26 26 25 25 25 26 27 27 26 23 22 22 19 19 19 19 19 20 21 21 20
26 25 26 24 22 31 27 23 23 25 28 28 29 24 18 26 31 37 41 46 42 34 34 32 32 30 26 28 29 29 29 27 25 25 23 21 20 20 20 20 22 22 21
30 31 30 27 28 28 24 22 22 23 26 25 26 25 9 14 17 22 29 35 49 49 42 39 38 36 34 32 32 32 31 30 28 28 26 24 21 20 21 22 23 22 21
20 21 21 23 23 24 22 23 21 20 24 28 24 25 28 23 11 15 19 24 25 36 41 41 41 40 41 38 40 37 34 31 30 28 27 26 23 22 22 23 23 23 23
11 11 14 18 19 20 21 23 23 24 27 28 30 31 30 31 32 34 26 24 22 31 31 28 30 39 42 39 36 37 37 33 30 28 26 24 27 27 25 27 24 24 26
14 14 15 17 16 19 21 23 24 26 27 29 30 33 34 30 32 36 37 40 39 40 32 34 39 41 37 35 30 30 38 36 31 28 22 27 29 30 29 30 28 27 28
8 13 17 18 18 21 23 25 26 26 27 29 30 33 37 39 35 39 39 40 42 42 41 38 31 39 41 40 33 29 28 33 33 31 31 30 29 33 33 32 31 31 31
5 9 10 11 15 17 20 19 21 24 27 30 30 33 34 37 41 41 44 38 34 39 42 44 45 40 44 46 34 32 28 27 32 30 33 30 31 35 36 34 34 33 34
3 2 1 3 5 8 9 13 13 16 14 14 16 18 23 29 39 39 42 41 43 35 35 43 38 39 38 30 29 30 30 32 31 31 32 35 35 44 36 41 37 35 33
3 1 2 4 6 8 8 10 10 11 14 14 14 14 15 17 16 16 21 37 44 48 38 24 31 38 40 37 32 31 32 32 31 31 34 39 45 46 42 42 43 40 40
4 4 5 8 7 11 15 15 16 16 18 17 19 19 19 19 19 19 21 19 30 40 37 41 41 41 43 39 40 44 37 35 34 33 33 37 40 41 40 44 47 43 39
11 11 11 11 13 14 14 15 19 21 20 19 19 21 21 22 24 25 23 17 16 12 18 41 38 33 30 38 38 39 40 43 43 43 42 42 45 43 44 47 48 43 39
13 14 15 15 15 16 17 17 17 16 18 19 20 19 20 20 21 22 24 26 28 28 25 20 20 29 29 34 39 41 47 49 49 52 47 44 46 45 42 47 43 41 37
16 16 17 17 17 18 18 19 20 20 21 20 20 21 21 21 22 23 24 23 24 27 27 27 26 19 23 25 26 33 35 34 34 35 39 41 40 36 39 42 41 37 38
17 18 18 18 18 17 16 19 21 21 21 22 22 20 21 23 23 22 23 24 25 26 26 25 26 25 24 23 28 26 31 31 32 33 32 30 30 40 46 39 37 39 35
19 20 19 19 18 16 18 19 19 20 20 21 22 23 23 22 21 22 21 22 23 24 25 24 24 23 23 23 24 26 31 33 34 31 30 30 34 44 41 40 41 42 39
19 18 18 17 17 16 16 16 17 19 19 19 21 22 22 20 21 21 21 22 23 22 21 21 24 22 23 24 24 26 29 32 33 36 31 36 37 41 41 42 44 42 38
17 17 16 16 17 16 15 14 15 16 17 17 18 18 18 19 18 20 25 26 26 26 25 26 26 26 26 26 25 21 24 32 33 33 33 41 43 47 46 44 43 41 38
17 17 17 17 17 17 14 14 14 15 14 15 15 15 16 17 16 22 24 26 28 28 30 29 28 27 27 28 29 30 34 27 37 38 36 39 46 47 49 47 47 44 40
18 18 18 17 17 18 14 14 15 15 15 15 15 15 15 15 15 19 22 24 26 28 29 32 35 35 32 32 32 32 29 31 34 39 38 40 45 47 44 52 50 47 41

GFSMA_850_spd_114.txt.gz
Wind_Speed
23 23 21 18 17 21 19 21 24 23 22 21 18 20 19 15 14 18 19 20 18 17 17 16 15 14 13 13 12 11 10 10 9 9 9 8 7 7 7 8 8 8 9
25 22 21 22 25 24 20 19 22 25 23 21 21 21 23 23 20 19 19 21 21 19 19 18 17 17 15 14 14 14 12 11 11 11 11 10 10 10 11 10 10 10 10
28 26 24 23 25 25 22 22 22 22 23 25 27 26 28 29 24 25 21 23 25 24 21 21 20 19 18 17 17 16 16 14 14 13 14 13 13 13 14 14 13 13 12
29 29 27 25 22 20 17 18 21 23 24 26 29 28 28 27 26 27 26 28 30 30 27 23 22 21 21 20 19 19 19 18 18 17 16 15 15 16 16 17 16 15 15
31 29 27 24 23 20 15 13 17 19 20 24 27 27 26 25 29 34 31 29 26 28 27 26 24 23 23 22 22 21 20 20 20 19 18 17 17 17 17 17 18 17 17
31 31 31 27 24 19 16 15 15 18 20 21 23 24 24 27 27 30 35 35 33 30 31 30 29 28 25 24 24 24 23 22 22 22 20 19 17 18 18 18 18 18 18
29 29 28 26 25 21 18 30 18 23 21 19 20 25 26 27 30 33 31 34 39 36 34 31 30 30 28 27 25 25 25 25 23 24 23 22 20 18 19 19 17 20 20
32 33 28 27 23 20 18 21 18 22 23 21 23 19 19 23 29 32 33 34 36 39 37 34 32 35 33 28 25 24 24 24 24 26 25 23 23 20 19 20 19 20 22
35 36 29 27 24 22 23 25 23 24 23 23 24 21 7 12 16 21 25 25 27 31 38 45 41 37 37 35 32 32 29 26 25 26 28 27 26 23 20 20 20 20 23
41 35 29 27 28 24 25 24 23 24 21 24 21 25 25 25 9 9 14 19 22 26 27 28 35 48 49 44 42 39 36 33 27 29 30 30 30 27 22 18 19 21 22
30 38 24 22 20 20 19 20 21 22 23 25 25 25 26 27 28 33 28 31 31 25 26 31 32 30 32 40 45 44 40 31 29 31 31 33 31 27 24 21 19 22 23
16 18 22 19 15 15 16 17 20 22 23 24 24 25 26 26 26 28 32 35 39 41 40 41 34 31 32 33 35 38 38 34 32 31 33 34 32 30 26 22 20 21 26
6 6 5 7 11 13 16 18 21 24 26 28 25 25 26 28 31 36 38 40 36 40 41 40 40 44 44 43 44 43 38 33 32 30 35 36 34 32 28 24 22 22 25
3 2 5 6 8 11 14 16 17 19 20 24 24 28 30 28 26 30 36 41 36 37 39 41 40 35 38 39 40 39 37 35 33 31 33 35 36 35 30 26 23 30 36
6 4 1 2 2 3 5 7 12 11 14 12 15 14 13 20 19 16 18 13 20 31 30 31 38 40 38 43 44 50 51 47 40 33 32 34 37 37 35 31 29 30 36
6 5 4 2 2 3 4 6 7 10 12 15 14 14 16 15 14 16 15 17 21 18 20 27 34 39 39 41 45 45 42 41 44 39 32 32 32 33 32 31 28 32 37
8 8 7 7 8 8 10 12 13 15 15 15 16 17 17 19 19 21 22 22 20 20 22 17 13 20 29 33 32 34 38 39 40 35 31 30 32 32 33 31 28 31 35
13 13 11 10 11 10 11 12 13 14 16 17 20 22 21 21 22 24 24 23 24 24 25 26 21 20 20 30 35 36 41 39 36 39 39 37 35 37 33 34 35 37 41
15 15 13 12 13 14 15 15 15 16 16 16 16 17 18 21 21 21 20 23 23 22 23 25 28 27 26 19 23 22 31 37 36 29 33 38 41 45 43 43 43 38 40
14 14 15 16 16 15 14 17 17 18 18 17 16 16 16 18 21 21 21 21 23 23 23 23 23 22 24 23 19 18 18 21 26 27 35 37 38 42 44 44 44 44 42
18 18 18 16 15 15 13 18 18 17 17 17 16 17 18 18 17 17 18 17 20 22 23 23 24 23 19 18 18 19 19 20 22 22 25 30 31 32 32 34 36 35 36
18 17 16 16 15 15 14 15 18 18 17 17 18 19 20 19 16 17 15 16 18 18 18 21 21 21 21 17 17 16 19 22 26 24 24 24 27 27 27 27 26 26 33
17 16 16 16 15 15 15 15 15 17 18 18 16 16 17 16 17 18 21 21 20 18 16 17 20 20 23 23 24 27 23 21 21 25 28 28 26 27 27 25 30 38 34
17 17 16 16 16 15 16 15 15 15 15 15 15 15 17 19 21 19 23 25 23 24 22 20 23 25 26 26 27 27 28 34 33 29 24 33 29 27 26 31 36 38 37
16 16 16 16 16 16 15 15 17 19 18 17 14 13 16 15 19 17 21 24 25 24 23 23 24 25 25 25 24 27 29 29 30 30 32 29 32 31 30 33 37 38 38
17 16 16 16 17 17 14 14 14 18 20 19 19 19 17 15 15 16 21 24 26 27 25 29 28 26 24 23 20 19 21 26 29 30 24 30 30 31 34 37 41 43 43

GFSMA_850_spd_117.txt.gz
Wind_Speed
24 23 22 23 24 23 24 23 22 25 25 25 24 24 24 21 17 23 21 19 20 18 18 18 17 15 15 14 14 13 12 12 12 12 12 11 10 9 8 7 7 7 7
32 29 30 29 31 28 25 23 22 23 25 25 24 24 24 24 19 19 23 23 23 23 21 19 20 18 17 16 16 16 15 14 14 14 14 13 12 11 11 11 10 10 9
30 32 31 31 28 30 29 27 25 22 23 24 26 26 24 26 24 24 24 24 25 26 25 22 21 22 21 19 18 18 17 16 15 15 16 15 15 14 15 14 14 13 12
34 31 33 33 30 32 32 28 26 25 26 26 27 31 31 32 34 32 28 25 27 27 27 26 23 23 24 23 22 20 20 20 20 20 19 19 19 18 17 17 17 17 15
35 36 35 36 35 33 31 31 26 24 23 22 24 28 32 35 28 31 36 31 32 32 30 30 29 27 26 26 26 25 23 23 22 22 22 21 20 19 18 17 17 18 17
34 36 34 35 36 34 31 30 25 22 21 17 16 20 23 23 26 27 29 33 36 33 32 31 30 31 29 27 27 28 26 26 25 24 23 23 22 21 19 18 18 18 18
32 35 38 39 40 38 33 25 18 17 16 16 16 18 25 26 24 24 28 31 35 36 36 35 36 36 34 31 30 30 29 27 28 27 25 25 24 23 22 19 18 18 17
33 31 35 39 37 38 34 28 22 21 21 23 20 20 17 24 24 26 27 29 31 31 34 36 40 39 39 35 33 29 30 28 29 30 30 27 26 25 24 22 19 19 19
29 37 37 37 34 36 35 31 25 21 22 20 21 17 9 15 15 18 24 25 23 24 25 29 34 39 40 38 37 35 33 29 29 30 31 31 30 28 26 24 23 21 21
28 31 37 40 38 33 27 27 23 20 22 20 19 21 26 27 15 11 18 20 19 20 22 23 25 27 33 44 42 39 39 38 34 34 32 32 32 32 30 28 25 21 22
22 29 25 35 40 32 30 25 24 22 19 17 21 21 21 24 27 29 21 22 25 29 29 29 29 29 30 30 35 47 51 51 45 41 37 35 36 34 33 32 29 24 22
4 6 13 5 13 35 32 28 20 15 16 16 18 18 20 21 23 25 27 30 31 37 35 36 34 33 36 36 34 34 34 35 40 39 40 36 37 35 35 32 31 28 26
7 9 8 13 16 7 5 6 8 11 14 18 21 23 25 25 24 22 25 32 31 36 37 38 36 35 33 34 37 40 38 38 34 33 34 35 37 38 35 35 35 31 28
9 8 8 6 4 8 5 5 9 11 11 14 15 18 20 21 24 24 15 14 19 24 29 37 38 38 31 32 33 31 37 44 44 42 39 39 34 34 38 38 39 35 32
11 4 9 8 5 5 1 1 1 4 6 8 9 10 11 10 11 12 11 10 10 7 14 13 16 20 24 30 31 32 36 38 39 39 38 37 35 37 36 40 40 36 34
12 9 9 8 6 4 3 3 3 4 5 6 8 9 11 14 14 14 14 12 14 12 11 15 17 16 23 27 30 36 35 38 45 48 47 46 35 30 35 39 40 41 37
12 11 12 12 11 10 9 9 9 10 11 12 12 14 14 15 15 17 17 17 17 18 19 25 24 23 23 17 19 25 26 38 45 46 45 38 45 50 39 38 41 41 37
13 12 12 12 12 12 12 12 12 12 13 14 15 15 15 17 18 20 22 21 19 18 21 28 31 27 27 28 22 19 24 28 36 32 36 39 36 42 45 37 37 39 38
13 12 12 12 12 12 13 12 12 12 13 14 14 15 15 16 17 17 18 20 24 25 21 23 28 26 25 23 26 23 17 19 22 27 32 37 44 46 40 39 40 44 39
15 15 14 13 12 11 11 14 14 13 12 11 11 12 13 14 15 15 16 16 15 18 19 21 23 24 23 21 21 22 24 24 21 18 17 22 23 29 35 36 39 45 45
15 14 13 13 12 11 11 12 14 13 12 12 11 12 13 12 10 11 12 14 15 17 19 20 21 22 22 21 20 20 20 24 30 24 18 15 18 22 24 28 34 38 41
12 12 12 12 11 11 10 10 12 13 13 13 13 12 10 9 9 11 14 14 15 17 17 17 19 21 22 23 23 23 24 26 26 19 24 24 20 21 22 24 24 27 30
14 14 14 14 13 13 12 12 12 13 13 13 12 11 10 10 11 14 19 20 19 17 15 17 19 20 23 23 25 27 26 27 27 30 29 32 28 28 22 23 22 18 20
14 14 13 13 12 11 12 12 12 14 15 13 13 13 14 14 13 14 18 22 20 19 19 20 19 19 21 22 23 24 26 28 30 29 24 30 32 31 30 24 20 18 16
14 14 13 13 12 12 12 13 14 18 19 19 18 15 15 17 16 14 17 20 24 23 19 19 18 20 23 21 19 20 22 24 26 26 24 26 26 30 31 28 22 18 20
15 14 13 13 13 14 13 13 12 15 18 21 21 20 19 17 14 13 17 20 23 22 22 21 22 23 21 20 19 17 18 20 22 22 11 15 15 18 24 32 30 24 23

GFSMA_850_spd_120.txt.gz
Wind_Speed
32 30 28 27 26 26 25 26 27 28 28 28 29 30 28 26 26 28 27 27 25 21 20 20 18 18 18 17 16 15 14 14 13 14 14 14 13 12 11 10 9 8 7
34 35 35 32 31 32 31 30 31 29 28 28 29 31 31 30 28 28 26 30 27 25 23 22 21 20 20 19 18 18 17 16 15 15 15 16 16 15 14 13 12 11 10
30 34 34 36 37 36 35 34 34 30 28 26 29 31 32 32 30 30 27 26 29 27 26 26 24 22 22 21 20 19 19 19 18 17 17 17 18 17 16 16 15 15 13
32 30 32 34 34 34 36 37 35 34 32 29 28 29 32 32 31 30 30 30 31 29 28 28 27 25 23 23 24 23 22 20 20 20 20 19 19 19 20 19 18 18 17
30 31 31 33 34 37 38 38 37 35 34 32 31 30 32 34 39 38 34 32 30 30 30 29 29 28 27 26 25 26 25 25 25 23 23 23 23 23 23 21 20 19 19
31 30 32 34 33 36 40 39 39 37 35 33 32 29 28 25 22 20 40 38 37 29 27 32 30 33 32 29 25 25 27 28 28 27 26 25 25 25 24 24 22 21 19
25 30 31 32 32 34 37 38 37 37 35 29 24 24 28 27 21 20 19 23 27 30 35 36 34 33 34 32 31 28 28 29 30 30 29 27 27 27 27 26 24 22 20
27 29 34 35 32 31 37 40 39 38 35 26 25 22 18 20 25 24 20 24 23 24 30 37 42 40 38 39 38 34 32 31 30 31 32 31 29 29 28 28 27 24 22
26 27 29 32 34 31 31 37 42 41 33 30 28 22 8 11 10 17 23 22 21 23 27 26 31 34 37 38 36 38 37 36 32 31 33 32 31 31 30 30 29 28 25
24 23 20 26 28 31 29 35 36 34 31 30 23 23 25 19 8 10 17 18 21 22 23 21 23 25 24 27 30 34 39 37 37 35 35 34 30 31 32 32 32 30 28
17 13 9 15 21 20 31 29 41 37 31 30 29 23 20 18 15 19 17 19 19 24 24 22 27 27 28 27 28 30 30 32 38 40 39 40 37 34 37 34 36 33 31
12 11 11 8 4 7 7 24 25 27 36 30 22 15 15 13 14 14 16 22 25 25 26 27 32 30 32 33 32 33 33 33 33 34 39 44 47 47 41 39 38 37 34
14 12 14 10 7 2 6 5 10 10 23 1 9 10 13 16 17 19 22 21 19 23 26 27 29 28 28 27 28 30 30 33 35 35 33 34 36 39 41 39 40 41 38
19 19 16 13 10 6 6 4 5 11 5 7 5 7 12 14 16 16 17 18 22 23 23 25 17 17 21 25 26 26 30 27 27 31 35 41 40 35 41 42 41 39 42
16 15 15 14 14 12 8 7 4 5 3 2 4 5 6 6 6 7 9 10 10 3 9 14 8 9 12 19 22 25 29 30 29 31 33 34 35 44 40 41 41 44 43
12 12 12 13 12 10 9 7 6 7 6 5 5 6 6 6 8 8 10 10 13 12 11 13 20 21 22 23 23 25 25 32 33 35 34 33 36 40 43 43 43 39 40
14 14 14 13 11 9 7 7 7 8 8 9 9 8 8 9 12 13 14 14 12 13 17 24 23 24 23 26 26 25 23 23 27 28 28 29 32 40 46 48 46 40 39
14 13 14 14 13 13 12 11 11 11 10 9 9 10 10 12 12 13 13 14 16 18 20 24 26 26 27 25 27 28 26 22 23 22 26 31 30 40 44 41 42 42 36
15 15 14 12 11 11 12 11 12 12 12 12 11 10 10 10 11 11 11 13 13 14 16 21 26 27 24 23 25 25 27 25 24 22 19 23 28 30 33 34 40 42 50
17 15 13 12 10 9 9 11 11 9 8 8 9 10 11 11 11 11 12 13 13 15 17 19 20 21 22 21 21 26 29 25 27 21 24 19 19 18 22 27 26 30 35
13 13 13 12 11 11 11 10 12 11 11 10 9 10 9 8 6 7 10 13 13 14 15 17 18 19 21 23 25 25 27 28 27 25 26 24 24 19 18 19 22 28 38
12 12 12 11 11 11 12 12 12 11 12 12 11 10 9 7 7 8 10 13 14 17 18 18 18 21 21 21 23 24 26 27 30 23 26 29 27 29 23 19 18 21 22
11 12 12 12 12 12 10 10 10 10 11 12 12 12 11 10 10 11 11 15 16 15 15 15 18 18 20 20 23 27 26 26 28 28 29 36 28 30 30 30 23 20 21
10 11 11 12 11 11 12 12 11 13 14 13 13 14 14 14 13 13 12 15 19 19 17 17 17 18 18 22 23 23 24 26 28 25 22 29 29 30 28 31 30 25 21
11 12 12 12 11 11 11 11 11 14 16 17 17 16 15 16 15 13 13 16 20 21 18 17 18 18 18 21 22 23 23 24 27 27 23 18 17 26 26 27 26 24 23
13 14 13 14 13 13 12 13 15 17 19 19 18 17 18 19 18 16 16 18 22 22 21 22 21 20 20 22 22 20 20 21 22 24 16 25 30 27 21 26 21 16 21

GFSMA_850_spd_123.txt.gz
Wind_Speed
28 32 33 31 31 31 29 29 31 31 30 30 30 30 32 33 30 28 29 28 29 27 25 22 20 19 19 19 19 17 16 16 15 15 15 15 15 15 14 12 11 9 9
30 31 34 37 36 36 35 35 36 35 34 34 33 33 34 34 34 32 31 31 31 31 29 27 24 22 20 21 21 20 19 18 18 17 17 17 17 17 16 16 14 13 12
30 31 34 35 35 36 37 40 39 38 37 35 36 34 34 35 35 37 33 31 30 34 33 31 28 26 23 22 22 23 22 21 20 19 19 18 18 18 18 18 17 16 15
29 33 34 36 36 34 33 35 37 39 37 37 37 35 34 35 36 36 35 31 32 30 36 32 31 29 27 25 23 23 24 22 20 21 21 20 20 20 20 20 20 19 18
26 29 32 34 32 35 35 33 36 38 39 38 36 36 36 35 34 36 34 33 36 37 36 35 33 30 29 28 26 25 24 24 24 23 23 22 23 23 22 23 23 23 21
23 25 30 33 33 33 36 35 34 36 39 39 36 38 37 35 34 36 35 34 22 40 39 41 38 35 35 32 30 29 27 27 27 27 26 26 26 26 25 26 25 24 23
25 25 28 32 32 36 35 33 32 32 34 35 36 37 37 36 34 31 28 29 28 26 38 34 40 39 35 31 34 34 30 28 27 28 28 29 28 28 27 27 27 27 25
24 25 27 31 31 30 33 34 28 29 33 34 35 33 22 29 32 31 30 27 21 22 28 31 30 34 37 32 33 33 36 34 31 31 30 30 30 30 31 29 28 28 27
22 26 28 29 27 25 29 31 28 26 26 32 34 30 11 14 18 22 27 29 27 25 24 20 25 27 31 34 38 38 40 40 40 36 33 33 31 31 32 32 30 30 29
24 26 25 27 19 18 21 22 25 24 21 28 33 37 31 14 10 7 12 17 21 24 21 21 22 28 23 22 23 24 27 30 30 34 35 36 36 34 32 32 30 31 31
18 17 18 19 15 9 14 15 17 21 28 25 31 28 32 37 36 23 18 20 20 18 23 23 22 22 19 21 22 23 23 23 27 29 32 39 38 40 36 34 32 30 31
17 15 15 13 14 11 8 5 10 15 9 17 19 23 43 36 26 20 17 16 17 17 21 20 21 23 23 23 24 25 26 28 28 30 31 31 34 39 39 40 39 36 37
18 17 18 19 16 16 13 9 8 8 7 16 21 27 28 5 26 15 16 16 17 16 19 19 16 17 22 24 25 30 31 28 30 31 30 32 35 33 33 38 42 43 43
18 19 19 19 19 17 16 14 10 8 3 4 5 7 14 17 20 7 13 14 15 18 15 15 16 23 23 23 24 26 29 28 32 32 35 34 34 35 36 37 35 40 42
15 15 16 17 17 17 15 14 12 9 8 6 2 3 11 8 7 8 8 9 9 5 9 11 10 11 17 16 19 20 21 24 27 32 34 34 34 35 36 40 41 38 40
18 17 16 16 14 13 12 12 11 11 8 7 7 4 9 9 8 7 7 8 7 10 11 13 18 22 24 27 28 25 26 27 27 30 32 33 36 37 36 37 38 37 39
17 18 16 16 15 14 14 12 11 9 8 6 5 5 8 9 10 10 11 11 12 12 15 19 20 21 22 24 26 26 26 26 23 24 25 27 31 33 34 36 38 37 40
19 20 19 16 14 14 12 12 12 12 12 10 8 7 8 10 10 11 10 10 11 12 15 17 20 21 23 25 26 27 29 26 28 24 24 24 23 28 31 31 36 41 41
20 16 13 14 15 14 14 14 13 12 10 9 10 11 11 11 10 10 10 10 10 11 13 17 19 19 20 22 23 23 24 25 26 23 23 25 25 22 23 27 33 33 41
18 16 14 12 12 12 12 13 12 12 11 11 10 10 10 10 10 9 10 11 12 13 14 15 16 16 18 20 22 24 25 25 25 23 24 23 24 25 20 20 22 27 27
14 14 14 14 13 13 12 12 12 12 11 10 10 10 10 8 7 6 9 10 12 13 15 17 17 18 18 21 22 24 25 27 25 21 23 23 25 24 25 24 21 19 22
13 13 13 13 13 13 13 13 13 11 12 13 13 11 9 9 9 9 10 11 13 15 16 18 19 19 19 19 21 24 26 29 32 25 31 28 25 25 23 25 30 26 20
13 13 13 13 12 12 11 11 10 11 11 12 12 13 13 13 13 14 13 12 13 14 15 17 20 19 20 19 21 25 25 25 27 28 31 35 28 28 24 22 24 30 30
12 13 13 14 13 13 12 11 12 13 13 14 15 16 16 15 14 14 14 15 15 16 17 18 19 20 20 19 20 23 25 25 26 25 25 30 27 27 27 22 19 20 24
13 13 14 13 14 13 13 13 14 15 16 16 16 15 15 16 16 16 17 18 18 19 19 19 19 20 20 19 20 24 25 26 29 30 26 16 28 37 33 28 21 19 16
13 14 14 15 15 16 15 15 17 19 19 18 18 17 17 18 17 16 16 18 21 22 23 22 20 21 21 22 21 23 23 24 25 25 26 31 32 30 26 24 10 14 18

GFSMA_850_spd_126.txt.gz
Wind_Speed
26 27 29 31 33 34 33 30 31 31 32 32 34 34 32 32 33 33 33 30 29 30 29 27 23 23 20 19 19 19 18 17 17 16 16 16 16 15 15 13 12 11 10
26 28 29 29 31 33 36 38 37 36 37 36 37 35 36 36 35 35 35 35 31 31 31 30 28 26 25 22 20 21 21 20 20 19 18 18 18 17 17 17 16 14 13
24 26 28 31 31 31 34 34 37 40 42 41 41 40 38 37 37 36 36 37 34 34 34 33 33 30 29 27 23 22 23 23 22 22 21 20 19 19 19 19 19 17 16
21 23 25 28 30 33 35 36 35 35 38 38 40 40 39 36 36 36 36 37 37 35 36 37 36 34 32 31 29 25 23 24 23 23 22 22 21 20 20 20 20 20 19
20 22 24 27 27 29 32 34 37 35 35 35 36 37 38 37 35 34 34 34 36 37 36 38 36 38 34 34 32 29 26 25 23 22 23 22 22 22 21 21 21 21 21
20 22 23 25 26 29 30 32 34 34 34 36 36 38 37 36 35 36 35 33 34 34 33 29 39 45 44 40 38 34 30 27 25 26 26 26 26 26 24 24 24 24 24
19 21 23 24 26 30 31 31 31 32 32 31 31 34 33 33 35 35 33 33 34 34 35 35 32 41 41 41 43 40 37 32 29 27 27 26 27 28 28 27 27 26 26
21 21 23 25 26 30 28 27 25 28 29 29 26 28 23 26 30 31 33 34 34 29 29 30 30 32 39 38 31 42 41 39 33 30 31 31 29 29 28 29 30 29 28
21 22 23 24 23 24 26 24 22 25 26 25 24 20 10 11 17 23 28 33 35 32 31 27 24 25 30 32 28 25 29 39 35 35 34 35 36 34 32 29 30 30 30
19 20 18 19 19 20 23 24 21 20 24 25 21 23 22 26 15 14 20 25 30 34 32 28 25 24 24 24 24 25 24 26 27 31 35 40 32 33 35 34 31 31 29
16 15 17 18 21 22 14 16 16 17 18 22 22 19 18 17 26 28 21 15 15 19 20 22 24 23 22 20 18 16 16 17 20 23 23 21 24 27 33 35 35 33 32
19 19 19 20 19 19 21 20 14 13 12 7 6 7 10 11 16 15 15 34 38 34 27 22 19 17 18 17 18 19 19 22 23 24 28 29 29 27 27 29 34 37 37
18 19 18 19 20 20 20 20 21 16 10 9 6 10 12 15 13 11 9 20 24 17 13 14 14 15 17 15 18 22 23 25 27 28 30 31 33 34 34 33 31 33 39
19 20 20 20 20 19 19 17 18 17 13 10 6 6 6 7 9 11 11 15 26 12 4 8 13 13 18 16 17 19 19 20 21 24 30 33 34 33 35 35 35 35 35
19 20 21 20 20 19 18 18 17 16 18 15 10 8 8 8 9 8 6 3 7 9 5 4 8 12 13 14 15 15 15 19 21 22 25 29 30 32 33 35 36 37 39
20 20 19 19 18 17 17 16 15 14 12 12 13 12 11 11 11 10 9 8 8 12 9 7 10 12 17 20 22 24 22 21 26 22 25 27 30 31 32 32 33 36 39
20 20 20 17 15 15 14 14 14 14 13 12 12 12 12 12 12 11 11 8 10 12 13 17 19 21 23 23 24 24 25 24 22 22 24 25 27 30 26 28 32 33 37
19 18 16 16 14 13 13 12 13 14 12 11 10 11 11 11 11 10 9 9 10 11 12 15 17 18 18 20 20 22 22 23 25 25 24 25 28 27 27 23 23 27 30
19 17 15 15 15 15 15 15 14 12 12 13 13 13 13 12 11 10 10 10 11 11 12 14 17 17 18 20 20 19 19 20 18 20 21 22 25 26 27 27 24 23 27
20 16 14 13 13 12 12 13 13 12 11 11 11 11 11 11 10 11 12 11 11 12 13 13 14 15 16 18 20 22 21 21 19 18 16 16 20 21 22 25 27 24 24
18 15 13 13 12 12 12 12 12 12 12 12 11 10 10 9 9 10 11 11 12 13 13 14 14 16 17 19 21 21 23 25 20 18 19 19 19 18 18 21 23 26 29
16 14 13 12 12 12 12 12 12 12 13 14 13 12 11 11 11 11 12 12 12 14 15 15 16 16 17 18 19 19 22 25 27 20 30 24 24 22 20 18 19 22 26
15 13 13 13 12 11 11 11 13 13 15 15 17 17 16 15 14 12 11 11 13 14 15 17 19 18 19 17 19 20 22 23 23 26 29 31 26 24 22 19 19 19 17
15 13 13 13 13 13 12 11 14 15 15 16 17 17 18 17 17 16 16 18 17 16 16 17 18 20 20 18 17 18 22 24 26 26 26 29 28 31 27 21 21 16 17
15 14 14 14 14 13 13 13 14 17 17 18 18 17 18 19 19 16 18 20 20 20 17 17 18 20 21 20 17 22 21 24 28 29 28 23 32 36 33 25 20 16 16
15 15 15 16 16 14 14 14 15 18 18 18 17 17 18 19 18 16 17 19 23 23 21 20 19 20 21 19 18 20 21 23 23 25 26 28 30 30 26 23 14 29 24